<?xml version="1.0" encoding="UTF-8" standalone="no" ?>
<gpx xmlns="http://www.topografix.com/GPX/1/1" xmlns:xsi="http://www.w3.org/2001/XMLSchema-instance" xsi:schemaLocation="http://www.topografix.com/GPX/1/1 http://www.topografix.com/GPX/1/1/gpx.xsd" version="1.1" creator="VisuGPX - https://www.visugpx.com">
  <metadata>
    <name>GR54 Tour des ecrins</name>
    <desc><![CDATA[Randonnée pédestre à travers l'Isère et les Hautes-Alpes avec le GR54 Tour des massifs de l'Oisans et des Ecrins au départ de Bourg-d'Oisans. Gîtes d'étapes, Chambres d'hôtes, Refuges, Hôtels, Auberges, Maison d'hôtes, Camping, itinéraires, cartes, informations pratiques.]]></desc>
  </metadata>
  <trk>
    <name><![CDATA[GR54 Tour de l’Oisans et des Ecrins (Isère, Hautes-Alpes) (2017)]]></name>
    <desc><![CDATA[Randonnée pédestre à travers l'Isère et les Hautes-Alpes avec le GR54 Tour des massifs de l'Oisans et des Ecrins au départ de Bourg-d'Oisans. Gîtes d'étapes, Chambres d'hôtes, Refuges, Hôtels, Auberges, Maison d'hôtes, Camping, itinéraires, cartes, informations pratiques.]]></desc>
    <extensions>
      <line xmlns="http://www.topografix.com/GPX/gpx_style/0/2">
        <color>0000FF</color>
        <width>4</width>
      </line>
    </extensions>
    <trkseg>
      <trkpt lat="45.05511" lon="6.03276">
        <ele>720</ele>
        <time>2017-02-26T10:39:20Z</time>
      </trkpt>
      <trkpt lat="45.0585" lon="6.03662">
        <ele>721</ele>
        <time>2017-02-26T10:39:40Z</time>
      </trkpt>
      <trkpt lat="45.05917" lon="6.03802">
        <ele>722</ele>
        <time>2017-02-26T10:40:00Z</time>
      </trkpt>
      <trkpt lat="45.06181" lon="6.03727">
        <ele>718</ele>
        <time>2017-02-26T10:40:20Z</time>
      </trkpt>
      <trkpt lat="45.06249" lon="6.03692">
        <ele>719</ele>
        <time>2017-02-26T10:40:40Z</time>
      </trkpt>
      <trkpt lat="45.06293" lon="6.03714">
        <ele>719</ele>
        <time>2017-02-26T10:41:00Z</time>
      </trkpt>
      <trkpt lat="45.06293" lon="6.03714">
        <ele>719</ele>
        <time>2017-02-26T10:41:20Z</time>
      </trkpt>
      <trkpt lat="45.06425" lon="6.03898">
        <ele>724</ele>
        <time>2017-02-26T10:41:40Z</time>
      </trkpt>
      <trkpt lat="45.06403" lon="6.03984">
        <ele>725</ele>
        <time>2017-02-26T10:42:00Z</time>
      </trkpt>
      <trkpt lat="45.06405" lon="6.04062">
        <ele>731</ele>
        <time>2017-02-26T10:42:20Z</time>
      </trkpt>
      <trkpt lat="45.06381" lon="6.04115">
        <ele>748</ele>
        <time>2017-02-26T10:42:40Z</time>
      </trkpt>
      <trkpt lat="45.06417" lon="6.04126">
        <ele>762</ele>
        <time>2017-02-26T10:43:00Z</time>
      </trkpt>
      <trkpt lat="45.06428" lon="6.04192">
        <ele>800</ele>
        <time>2017-02-26T10:43:20Z</time>
      </trkpt>
      <trkpt lat="45.06364" lon="6.0424">
        <ele>807</ele>
        <time>2017-02-26T10:43:40Z</time>
      </trkpt>
      <trkpt lat="45.06381" lon="6.04276">
        <ele>851</ele>
        <time>2017-02-26T10:44:00Z</time>
      </trkpt>
      <trkpt lat="45.06428" lon="6.04293">
        <ele>855</ele>
        <time>2017-02-26T10:44:20Z</time>
      </trkpt>
      <trkpt lat="45.06353" lon="6.04345">
        <ele>900</ele>
        <time>2017-02-26T10:44:40Z</time>
      </trkpt>
      <trkpt lat="45.06329" lon="6.04379">
        <ele>919</ele>
        <time>2017-02-26T10:45:00Z</time>
      </trkpt>
      <trkpt lat="45.06359" lon="6.04426">
        <ele>941</ele>
        <time>2017-02-26T10:45:20Z</time>
      </trkpt>
      <trkpt lat="45.06403" lon="6.04634">
        <ele>988</ele>
        <time>2017-02-26T10:45:40Z</time>
      </trkpt>
      <trkpt lat="45.06491" lon="6.04684">
        <ele>997</ele>
        <time>2017-02-26T10:46:00Z</time>
      </trkpt>
      <trkpt lat="45.06567" lon="6.04705">
        <ele>999</ele>
        <time>2017-02-26T10:46:20Z</time>
      </trkpt>
      <trkpt lat="45.06632" lon="6.04761">
        <ele>1008</ele>
        <time>2017-02-26T10:46:40Z</time>
      </trkpt>
      <trkpt lat="45.06691" lon="6.04845">
        <ele>1009</ele>
        <time>2017-02-26T10:47:00Z</time>
      </trkpt>
      <trkpt lat="45.06658" lon="6.04898">
        <ele>1033</ele>
        <time>2017-02-26T10:47:20Z</time>
      </trkpt>
      <trkpt lat="45.06708" lon="6.05115">
        <ele>1070</ele>
        <time>2017-02-26T10:47:40Z</time>
      </trkpt>
      <trkpt lat="45.06694" lon="6.05308">
        <ele>1110</ele>
        <time>2017-02-26T10:48:00Z</time>
      </trkpt>
      <trkpt lat="45.06657" lon="6.05235">
        <ele>1129</ele>
        <time>2017-02-26T10:48:20Z</time>
      </trkpt>
      <trkpt lat="45.06588" lon="6.05149">
        <ele>1133</ele>
        <time>2017-02-26T10:48:40Z</time>
      </trkpt>
      <trkpt lat="45.06547" lon="6.05107">
        <ele>1160</ele>
        <time>2017-02-26T10:49:00Z</time>
      </trkpt>
      <trkpt lat="45.06497" lon="6.05029">
        <ele>1166</ele>
        <time>2017-02-26T10:49:20Z</time>
      </trkpt>
      <trkpt lat="45.06416" lon="6.0504">
        <ele>1205</ele>
        <time>2017-02-26T10:49:40Z</time>
      </trkpt>
      <trkpt lat="45.06358" lon="6.04986">
        <ele>1185</ele>
        <time>2017-02-26T10:50:00Z</time>
      </trkpt>
      <trkpt lat="45.06267" lon="6.04995">
        <ele>1197</ele>
        <time>2017-02-26T10:50:20Z</time>
      </trkpt>
      <trkpt lat="45.06288" lon="6.05025">
        <ele>1219</ele>
        <time>2017-02-26T10:50:40Z</time>
      </trkpt>
      <trkpt lat="45.06269" lon="6.05038">
        <ele>1220</ele>
        <time>2017-02-26T10:51:00Z</time>
      </trkpt>
      <trkpt lat="45.06305" lon="6.05051">
        <ele>1224</ele>
        <time>2017-02-26T10:51:20Z</time>
      </trkpt>
      <trkpt lat="45.06287" lon="6.0507">
        <ele>1225</ele>
        <time>2017-02-26T10:51:40Z</time>
      </trkpt>
      <trkpt lat="45.06308" lon="6.05089">
        <ele>1242</ele>
        <time>2017-02-26T10:52:00Z</time>
      </trkpt>
      <trkpt lat="45.06287" lon="6.05104">
        <ele>1245</ele>
        <time>2017-02-26T10:52:20Z</time>
      </trkpt>
      <trkpt lat="45.06366" lon="6.05263">
        <ele>1314</ele>
        <time>2017-02-26T10:52:40Z</time>
      </trkpt>
      <trkpt lat="45.06437" lon="6.0531">
        <ele>1292</ele>
        <time>2017-02-26T10:53:00Z</time>
      </trkpt>
      <trkpt lat="45.06399" lon="6.05478">
        <ele>1368</ele>
        <time>2017-02-26T10:53:20Z</time>
      </trkpt>
      <trkpt lat="45.06438" lon="6.05551">
        <ele>1338</ele>
        <time>2017-02-26T10:53:40Z</time>
      </trkpt>
      <trkpt lat="45.06423" lon="6.0566">
        <ele>1375</ele>
        <time>2017-02-26T10:54:00Z</time>
      </trkpt>
      <trkpt lat="45.0646" lon="6.05701">
        <ele>1366</ele>
        <time>2017-02-26T10:54:20Z</time>
      </trkpt>
      <trkpt lat="45.0645" lon="6.05875">
        <ele>1408</ele>
        <time>2017-02-26T10:54:40Z</time>
      </trkpt>
      <trkpt lat="45.06494" lon="6.06014">
        <ele>1409</ele>
        <time>2017-02-26T10:55:00Z</time>
      </trkpt>
      <trkpt lat="45.06455" lon="6.0598">
        <ele>1418</ele>
        <time>2017-02-26T10:55:20Z</time>
      </trkpt>
      <trkpt lat="45.06481" lon="6.06066">
        <ele>1417</ele>
        <time>2017-02-26T10:55:40Z</time>
      </trkpt>
      <trkpt lat="45.06464" lon="6.06115">
        <ele>1430</ele>
        <time>2017-02-26T10:56:00Z</time>
      </trkpt>
      <trkpt lat="45.06613" lon="6.06152">
        <ele>1417</ele>
        <time>2017-02-26T10:56:20Z</time>
      </trkpt>
      <trkpt lat="45.0676" lon="6.06012">
        <ele>1425</ele>
        <time>2017-02-26T10:56:40Z</time>
      </trkpt>
      <trkpt lat="45.06794" lon="6.06014">
        <ele>1429</ele>
        <time>2017-02-26T10:57:00Z</time>
      </trkpt>
      <trkpt lat="45.0682" lon="6.06061">
        <ele>1430</ele>
        <time>2017-02-26T10:57:20Z</time>
      </trkpt>
      <trkpt lat="45.06769" lon="6.06192">
        <ele>1437</ele>
        <time>2017-02-26T10:57:40Z</time>
      </trkpt>
      <trkpt lat="45.06781" lon="6.06274">
        <ele>1448</ele>
        <time>2017-02-26T10:58:00Z</time>
      </trkpt>
      <trkpt lat="45.0677" lon="6.06325">
        <ele>1454</ele>
        <time>2017-02-26T10:58:20Z</time>
      </trkpt>
      <trkpt lat="45.06773" lon="6.06373">
        <ele>1465</ele>
        <time>2017-02-26T10:58:40Z</time>
      </trkpt>
      <trkpt lat="45.06828" lon="6.06385">
        <ele>1466</ele>
        <time>2017-02-26T10:59:00Z</time>
      </trkpt>
      <trkpt lat="45.06905" lon="6.06355">
        <ele>1460</ele>
        <time>2017-02-26T10:59:20Z</time>
      </trkpt>
      <trkpt lat="45.0696" lon="6.06405">
        <ele>1462</ele>
        <time>2017-02-26T10:59:40Z</time>
      </trkpt>
      <trkpt lat="45.07146" lon="6.06443">
        <ele>1486</ele>
        <time>2017-02-26T11:00:00Z</time>
      </trkpt>
      <trkpt lat="45.07228" lon="6.06418">
        <ele>1486</ele>
        <time>2017-02-26T11:00:20Z</time>
      </trkpt>
      <trkpt lat="45.07302" lon="6.06443">
        <ele>1496</ele>
        <time>2017-02-26T11:00:40Z</time>
      </trkpt>
      <trkpt lat="45.07373" lon="6.06396">
        <ele>1484</ele>
        <time>2017-02-26T11:01:00Z</time>
      </trkpt>
      <trkpt lat="45.07429" lon="6.06392">
        <ele>1496</ele>
        <time>2017-02-26T11:01:20Z</time>
      </trkpt>
      <trkpt lat="45.07457" lon="6.06308">
        <ele>1482</ele>
        <time>2017-02-26T11:01:40Z</time>
      </trkpt>
      <trkpt lat="45.07617" lon="6.0627">
        <ele>1505</ele>
        <time>2017-02-26T11:02:00Z</time>
      </trkpt>
      <trkpt lat="45.07767" lon="6.06332">
        <ele>1511</ele>
        <time>2017-02-26T11:02:20Z</time>
      </trkpt>
      <trkpt lat="45.07861" lon="6.06413">
        <ele>1516</ele>
        <time>2017-02-26T11:02:40Z</time>
      </trkpt>
      <trkpt lat="45.0791" lon="6.06394">
        <ele>1506</ele>
        <time>2017-02-26T11:03:00Z</time>
      </trkpt>
      <trkpt lat="45.07925" lon="6.06495">
        <ele>1507</ele>
        <time>2017-02-26T11:03:20Z</time>
      </trkpt>
      <trkpt lat="45.07955" lon="6.06548">
        <ele>1494</ele>
        <time>2017-02-26T11:03:40Z</time>
      </trkpt>
      <trkpt lat="45.07981" lon="6.06647">
        <ele>1501</ele>
        <time>2017-02-26T11:04:00Z</time>
      </trkpt>
      <trkpt lat="45.0801" lon="6.06666">
        <ele>1459</ele>
        <time>2017-02-26T11:04:20Z</time>
      </trkpt>
      <trkpt lat="45.08046" lon="6.06819">
        <ele>1464</ele>
        <time>2017-02-26T11:04:40Z</time>
      </trkpt>
      <trkpt lat="45.0809" lon="6.06851">
        <ele>1440</ele>
        <time>2017-02-26T11:05:00Z</time>
      </trkpt>
      <trkpt lat="45.08102" lon="6.06903">
        <ele>1444</ele>
        <time>2017-02-26T11:05:20Z</time>
      </trkpt>
      <trkpt lat="45.08137" lon="6.06907">
        <ele>1448</ele>
        <time>2017-02-26T11:05:40Z</time>
      </trkpt>
      <trkpt lat="45.08134" lon="6.07061">
        <ele>1455</ele>
        <time>2017-02-26T11:06:00Z</time>
      </trkpt>
      <trkpt lat="45.08211" lon="6.07405">
        <ele>1485</ele>
        <time>2017-02-26T11:06:20Z</time>
      </trkpt>
      <trkpt lat="45.08173" lon="6.07729">
        <ele>1505</ele>
        <time>2017-02-26T11:06:40Z</time>
      </trkpt>
      <trkpt lat="45.08189" lon="6.07948">
        <ele>1526</ele>
        <time>2017-02-26T11:07:00Z</time>
      </trkpt>
      <trkpt lat="45.08146" lon="6.08171">
        <ele>1538</ele>
        <time>2017-02-26T11:07:20Z</time>
      </trkpt>
      <trkpt lat="45.08146" lon="6.08171">
        <ele>1538</ele>
        <time>2017-02-26T11:07:40Z</time>
      </trkpt>
      <trkpt lat="45.08161" lon="6.08231">
        <ele>1540</ele>
        <time>2017-02-26T11:08:00Z</time>
      </trkpt>
      <trkpt lat="45.08142" lon="6.08314">
        <ele>1542</ele>
        <time>2017-02-26T11:08:20Z</time>
      </trkpt>
      <trkpt lat="45.08148" lon="6.08443">
        <ele>1552</ele>
        <time>2017-02-26T11:08:40Z</time>
      </trkpt>
      <trkpt lat="45.08119" lon="6.08589">
        <ele>1562</ele>
        <time>2017-02-26T11:09:00Z</time>
      </trkpt>
      <trkpt lat="45.08125" lon="6.08703">
        <ele>1571</ele>
        <time>2017-02-26T11:09:20Z</time>
      </trkpt>
      <trkpt lat="45.0809" lon="6.08776">
        <ele>1574</ele>
        <time>2017-02-26T11:09:40Z</time>
      </trkpt>
      <trkpt lat="45.08061" lon="6.0901">
        <ele>1584</ele>
        <time>2017-02-26T11:10:00Z</time>
      </trkpt>
      <trkpt lat="45.08089" lon="6.09149">
        <ele>1592</ele>
        <time>2017-02-26T11:10:20Z</time>
      </trkpt>
      <trkpt lat="45.08095" lon="6.09327">
        <ele>1597</ele>
        <time>2017-02-26T11:10:40Z</time>
      </trkpt>
      <trkpt lat="45.08123" lon="6.09428">
        <ele>1605</ele>
        <time>2017-02-26T11:11:00Z</time>
      </trkpt>
      <trkpt lat="45.08157" lon="6.0972">
        <ele>1610</ele>
        <time>2017-02-26T11:11:20Z</time>
      </trkpt>
      <trkpt lat="45.08107" lon="6.10035">
        <ele>1639</ele>
        <time>2017-02-26T11:11:40Z</time>
      </trkpt>
      <trkpt lat="45.08049" lon="6.10237">
        <ele>1647</ele>
        <time>2017-02-26T11:12:00Z</time>
      </trkpt>
      <trkpt lat="45.07992" lon="6.10301">
        <ele>1651</ele>
        <time>2017-02-26T11:12:20Z</time>
      </trkpt>
      <trkpt lat="45.07948" lon="6.10407">
        <ele>1649</ele>
        <time>2017-02-26T11:12:40Z</time>
      </trkpt>
      <trkpt lat="45.07878" lon="6.10507">
        <ele>1654</ele>
        <time>2017-02-26T11:13:00Z</time>
      </trkpt>
      <trkpt lat="45.07825" lon="6.10694">
        <ele>1675</ele>
        <time>2017-02-26T11:13:20Z</time>
      </trkpt>
      <trkpt lat="45.07831" lon="6.10763">
        <ele>1683</ele>
        <time>2017-02-26T11:13:40Z</time>
      </trkpt>
      <trkpt lat="45.0789" lon="6.10853">
        <ele>1702</ele>
        <time>2017-02-26T11:14:00Z</time>
      </trkpt>
      <trkpt lat="45.07908" lon="6.11022">
        <ele>1712</ele>
        <time>2017-02-26T11:14:20Z</time>
      </trkpt>
      <trkpt lat="45.07899" lon="6.11119">
        <ele>1709</ele>
        <time>2017-02-26T11:14:40Z</time>
      </trkpt>
      <trkpt lat="45.07848" lon="6.11426">
        <ele>1716</ele>
        <time>2017-02-26T11:15:00Z</time>
      </trkpt>
      <trkpt lat="45.07857" lon="6.11602">
        <ele>1734</ele>
        <time>2017-02-26T11:15:20Z</time>
      </trkpt>
      <trkpt lat="45.07796" lon="6.11793">
        <ele>1741</ele>
        <time>2017-02-26T11:15:40Z</time>
      </trkpt>
      <trkpt lat="45.07796" lon="6.12005">
        <ele>1758</ele>
        <time>2017-02-26T11:16:00Z</time>
      </trkpt>
      <trkpt lat="45.07823" lon="6.12078">
        <ele>1754</ele>
        <time>2017-02-26T11:16:20Z</time>
      </trkpt>
      <trkpt lat="45.07837" lon="6.12282">
        <ele>1769</ele>
        <time>2017-02-26T11:16:40Z</time>
      </trkpt>
      <trkpt lat="45.07885" lon="6.12402">
        <ele>1772</ele>
        <time>2017-02-26T11:17:00Z</time>
      </trkpt>
      <trkpt lat="45.07907" lon="6.12488">
        <ele>1778</ele>
        <time>2017-02-26T11:17:20Z</time>
      </trkpt>
      <trkpt lat="45.07982" lon="6.12602">
        <ele>1788</ele>
        <time>2017-02-26T11:17:40Z</time>
      </trkpt>
      <trkpt lat="45.08101" lon="6.12846">
        <ele>1807</ele>
        <time>2017-02-26T11:18:00Z</time>
      </trkpt>
      <trkpt lat="45.0812" lon="6.1296">
        <ele>1820</ele>
        <time>2017-02-26T11:18:20Z</time>
      </trkpt>
      <trkpt lat="45.08058" lon="6.13102">
        <ele>1833</ele>
        <time>2017-02-26T11:18:40Z</time>
      </trkpt>
      <trkpt lat="45.08099" lon="6.1317">
        <ele>1832</ele>
        <time>2017-02-26T11:19:00Z</time>
      </trkpt>
      <trkpt lat="45.08134" lon="6.13181">
        <ele>1835</ele>
        <time>2017-02-26T11:19:20Z</time>
      </trkpt>
      <trkpt lat="45.08057" lon="6.13241">
        <ele>1842</ele>
        <time>2017-02-26T11:19:40Z</time>
      </trkpt>
      <trkpt lat="45.0801" lon="6.1317">
        <ele>1845</ele>
        <time>2017-02-26T11:20:00Z</time>
      </trkpt>
      <trkpt lat="45.07979" lon="6.13078">
        <ele>1859</ele>
        <time>2017-02-26T11:20:20Z</time>
      </trkpt>
      <trkpt lat="45.07951" lon="6.13187">
        <ele>1862</ele>
        <time>2017-02-26T11:20:40Z</time>
      </trkpt>
      <trkpt lat="45.07996" lon="6.13424">
        <ele>1883</ele>
        <time>2017-02-26T11:21:00Z</time>
      </trkpt>
      <trkpt lat="45.0806" lon="6.13576">
        <ele>1890</ele>
        <time>2017-02-26T11:21:20Z</time>
      </trkpt>
      <trkpt lat="45.08078" lon="6.13861">
        <ele>1930</ele>
        <time>2017-02-26T11:21:40Z</time>
      </trkpt>
      <trkpt lat="45.08176" lon="6.14172">
        <ele>1936</ele>
        <time>2017-02-26T11:22:00Z</time>
      </trkpt>
      <trkpt lat="45.08358" lon="6.14488">
        <ele>1962</ele>
        <time>2017-02-26T11:22:20Z</time>
      </trkpt>
      <trkpt lat="45.08523" lon="6.14739">
        <ele>1984</ele>
        <time>2017-02-26T11:22:40Z</time>
      </trkpt>
      <trkpt lat="45.08566" lon="6.14767">
        <ele>1988</ele>
        <time>2017-02-26T11:23:00Z</time>
      </trkpt>
      <trkpt lat="45.08645" lon="6.14883">
        <ele>1992</ele>
        <time>2017-02-26T11:23:20Z</time>
      </trkpt>
      <trkpt lat="45.08645" lon="6.14883">
        <ele>1992</ele>
        <time>2017-02-26T11:23:40Z</time>
      </trkpt>
      <trkpt lat="45.08852" lon="6.14938">
        <ele>1983</ele>
        <time>2017-02-26T11:24:00Z</time>
      </trkpt>
      <trkpt lat="45.08893" lon="6.14923">
        <ele>1981</ele>
        <time>2017-02-26T11:24:20Z</time>
      </trkpt>
      <trkpt lat="45.08958" lon="6.14928">
        <ele>1971</ele>
        <time>2017-02-26T11:24:40Z</time>
      </trkpt>
      <trkpt lat="45.09038" lon="6.1484">
        <ele>1983</ele>
        <time>2017-02-26T11:25:00Z</time>
      </trkpt>
      <trkpt lat="45.09054" lon="6.14855">
        <ele>1980</ele>
        <time>2017-02-26T11:25:20Z</time>
      </trkpt>
      <trkpt lat="45.08976" lon="6.14958">
        <ele>1967</ele>
        <time>2017-02-26T11:25:40Z</time>
      </trkpt>
      <trkpt lat="45.08998" lon="6.14962">
        <ele>1965</ele>
        <time>2017-02-26T11:26:00Z</time>
      </trkpt>
      <trkpt lat="45.09041" lon="6.14911">
        <ele>1972</ele>
        <time>2017-02-26T11:26:20Z</time>
      </trkpt>
      <trkpt lat="45.09107" lon="6.14891">
        <ele>1976</ele>
        <time>2017-02-26T11:26:40Z</time>
      </trkpt>
      <trkpt lat="45.09173" lon="6.14968">
        <ele>1956</ele>
        <time>2017-02-26T11:27:00Z</time>
      </trkpt>
      <trkpt lat="45.09138" lon="6.14979">
        <ele>1938</ele>
        <time>2017-02-26T11:27:20Z</time>
      </trkpt>
      <trkpt lat="45.09167" lon="6.1508">
        <ele>1899</ele>
        <time>2017-02-26T11:27:40Z</time>
      </trkpt>
      <trkpt lat="45.09196" lon="6.15102">
        <ele>1887</ele>
        <time>2017-02-26T11:28:00Z</time>
      </trkpt>
      <trkpt lat="45.0916" lon="6.15121">
        <ele>1868</ele>
        <time>2017-02-26T11:28:20Z</time>
      </trkpt>
      <trkpt lat="45.09217" lon="6.15166">
        <ele>1874</ele>
        <time>2017-02-26T11:28:40Z</time>
      </trkpt>
      <trkpt lat="45.09196" lon="6.15194">
        <ele>1842</ele>
        <time>2017-02-26T11:29:00Z</time>
      </trkpt>
      <trkpt lat="45.0924" lon="6.15202">
        <ele>1843</ele>
        <time>2017-02-26T11:29:20Z</time>
      </trkpt>
      <trkpt lat="45.09335" lon="6.15312">
        <ele>1812</ele>
        <time>2017-02-26T11:29:40Z</time>
      </trkpt>
      <trkpt lat="45.09288" lon="6.15325">
        <ele>1802</ele>
        <time>2017-02-26T11:30:00Z</time>
      </trkpt>
      <trkpt lat="45.09311" lon="6.1535">
        <ele>1781</ele>
        <time>2017-02-26T11:30:20Z</time>
      </trkpt>
      <trkpt lat="45.09225" lon="6.15374">
        <ele>1759</ele>
        <time>2017-02-26T11:30:40Z</time>
      </trkpt>
      <trkpt lat="45.09146" lon="6.15368">
        <ele>1743</ele>
        <time>2017-02-26T11:31:00Z</time>
      </trkpt>
      <trkpt lat="45.09204" lon="6.15458">
        <ele>1722</ele>
        <time>2017-02-26T11:31:20Z</time>
      </trkpt>
      <trkpt lat="45.09243" lon="6.15483">
        <ele>1719</ele>
        <time>2017-02-26T11:31:40Z</time>
      </trkpt>
      <trkpt lat="45.09181" lon="6.15488">
        <ele>1710</ele>
        <time>2017-02-26T11:32:00Z</time>
      </trkpt>
      <trkpt lat="45.09264" lon="6.15571">
        <ele>1696</ele>
        <time>2017-02-26T11:32:20Z</time>
      </trkpt>
      <trkpt lat="45.09238" lon="6.15621">
        <ele>1667</ele>
        <time>2017-02-26T11:32:40Z</time>
      </trkpt>
      <trkpt lat="45.09187" lon="6.15612">
        <ele>1663</ele>
        <time>2017-02-26T11:33:00Z</time>
      </trkpt>
      <trkpt lat="45.09141" lon="6.15636">
        <ele>1647</ele>
        <time>2017-02-26T11:33:20Z</time>
      </trkpt>
      <trkpt lat="45.09151" lon="6.15771">
        <ele>1619</ele>
        <time>2017-02-26T11:33:40Z</time>
      </trkpt>
      <trkpt lat="45.09129" lon="6.15805">
        <ele>1615</ele>
        <time>2017-02-26T11:34:00Z</time>
      </trkpt>
      <trkpt lat="45.09146" lon="6.15835">
        <ele>1608</ele>
        <time>2017-02-26T11:34:20Z</time>
      </trkpt>
      <trkpt lat="45.09087" lon="6.16183">
        <ele>1533</ele>
        <time>2017-02-26T11:34:40Z</time>
      </trkpt>
      <trkpt lat="45.0906" lon="6.16239">
        <ele>1521</ele>
        <time>2017-02-26T11:35:00Z</time>
      </trkpt>
      <trkpt lat="45.09051" lon="6.16337">
        <ele>1493</ele>
        <time>2017-02-26T11:35:20Z</time>
      </trkpt>
      <trkpt lat="45.08955" lon="6.16438">
        <ele>1453</ele>
        <time>2017-02-26T11:35:40Z</time>
      </trkpt>
      <trkpt lat="45.08917" lon="6.16432">
        <ele>1451</ele>
        <time>2017-02-26T11:36:00Z</time>
      </trkpt>
      <trkpt lat="45.08857" lon="6.1635">
        <ele>1456</ele>
        <time>2017-02-26T11:36:20Z</time>
      </trkpt>
      <trkpt lat="45.08814" lon="6.1635">
        <ele>1449</ele>
        <time>2017-02-26T11:36:40Z</time>
      </trkpt>
      <trkpt lat="45.08707" lon="6.1628">
        <ele>1442</ele>
        <time>2017-02-26T11:37:00Z</time>
      </trkpt>
      <trkpt lat="45.08655" lon="6.16359">
        <ele>1421</ele>
        <time>2017-02-26T11:37:20Z</time>
      </trkpt>
      <trkpt lat="45.08575" lon="6.16303">
        <ele>1413</ele>
        <time>2017-02-26T11:37:40Z</time>
      </trkpt>
      <trkpt lat="45.08434" lon="6.16288">
        <ele>1407</ele>
        <time>2017-02-26T11:38:00Z</time>
      </trkpt>
      <trkpt lat="45.08389" lon="6.16305">
        <ele>1400</ele>
        <time>2017-02-26T11:38:20Z</time>
      </trkpt>
      <trkpt lat="45.08299" lon="6.16234">
        <ele>1399</ele>
        <time>2017-02-26T11:38:40Z</time>
      </trkpt>
      <trkpt lat="45.08272" lon="6.16172">
        <ele>1399</ele>
        <time>2017-02-26T11:39:00Z</time>
      </trkpt>
      <trkpt lat="45.08158" lon="6.16054">
        <ele>1394</ele>
        <time>2017-02-26T11:39:20Z</time>
      </trkpt>
      <trkpt lat="45.0811" lon="6.15951">
        <ele>1410</ele>
        <time>2017-02-26T11:39:40Z</time>
      </trkpt>
      <trkpt lat="45.08037" lon="6.15883">
        <ele>1416</ele>
        <time>2017-02-26T11:40:00Z</time>
      </trkpt>
      <trkpt lat="45.07957" lon="6.1584">
        <ele>1403</ele>
        <time>2017-02-26T11:40:20Z</time>
      </trkpt>
      <trkpt lat="45.07919" lon="6.15799">
        <ele>1421</ele>
        <time>2017-02-26T11:40:40Z</time>
      </trkpt>
      <trkpt lat="45.07879" lon="6.15801">
        <ele>1408</ele>
        <time>2017-02-26T11:41:00Z</time>
      </trkpt>
      <trkpt lat="45.07795" lon="6.15735">
        <ele>1420</ele>
        <time>2017-02-26T11:41:20Z</time>
      </trkpt>
      <trkpt lat="45.07684" lon="6.15756">
        <ele>1396</ele>
        <time>2017-02-26T11:41:40Z</time>
      </trkpt>
      <trkpt lat="45.07543" lon="6.15707">
        <ele>1410</ele>
        <time>2017-02-26T11:42:00Z</time>
      </trkpt>
      <trkpt lat="45.07488" lon="6.15752">
        <ele>1390</ele>
        <time>2017-02-26T11:42:20Z</time>
      </trkpt>
      <trkpt lat="45.07449" lon="6.15745">
        <ele>1394</ele>
        <time>2017-02-26T11:42:40Z</time>
      </trkpt>
      <trkpt lat="45.07372" lon="6.1567">
        <ele>1384</ele>
        <time>2017-02-26T11:43:00Z</time>
      </trkpt>
      <trkpt lat="45.07304" lon="6.15677">
        <ele>1368</ele>
        <time>2017-02-26T11:43:20Z</time>
      </trkpt>
      <trkpt lat="45.07111" lon="6.15524">
        <ele>1359</ele>
        <time>2017-02-26T11:43:40Z</time>
      </trkpt>
      <trkpt lat="45.0711" lon="6.15565">
        <ele>1356</ele>
        <time>2017-02-26T11:44:00Z</time>
      </trkpt>
      <trkpt lat="45.07091" lon="6.1558">
        <ele>1349</ele>
        <time>2017-02-26T11:44:20Z</time>
      </trkpt>
      <trkpt lat="45.07023" lon="6.15554">
        <ele>1340</ele>
        <time>2017-02-26T11:44:40Z</time>
      </trkpt>
      <trkpt lat="45.06985" lon="6.15524">
        <ele>1330</ele>
        <time>2017-02-26T11:45:00Z</time>
      </trkpt>
      <trkpt lat="45.06988" lon="6.15591">
        <ele>1318</ele>
        <time>2017-02-26T11:45:20Z</time>
      </trkpt>
      <trkpt lat="45.06949" lon="6.15632">
        <ele>1303</ele>
        <time>2017-02-26T11:45:40Z</time>
      </trkpt>
      <trkpt lat="45.06893" lon="6.15642">
        <ele>1288</ele>
        <time>2017-02-26T11:46:00Z</time>
      </trkpt>
      <trkpt lat="45.06902" lon="6.15666">
        <ele>1286</ele>
        <time>2017-02-26T11:46:20Z</time>
      </trkpt>
      <trkpt lat="45.06887" lon="6.1573">
        <ele>1296</ele>
        <time>2017-02-26T11:46:40Z</time>
      </trkpt>
      <trkpt lat="45.06919" lon="6.15737">
        <ele>1291</ele>
        <time>2017-02-26T11:47:00Z</time>
      </trkpt>
      <trkpt lat="45.07002" lon="6.1581">
        <ele>1317</ele>
        <time>2017-02-26T11:47:20Z</time>
      </trkpt>
      <trkpt lat="45.07032" lon="6.1588">
        <ele>1346</ele>
        <time>2017-02-26T11:47:40Z</time>
      </trkpt>
      <trkpt lat="45.07081" lon="6.1591">
        <ele>1371</ele>
        <time>2017-02-26T11:48:00Z</time>
      </trkpt>
      <trkpt lat="45.07076" lon="6.16091">
        <ele>1426</ele>
        <time>2017-02-26T11:48:20Z</time>
      </trkpt>
      <trkpt lat="45.07095" lon="6.16157">
        <ele>1444</ele>
        <time>2017-02-26T11:48:40Z</time>
      </trkpt>
      <trkpt lat="45.0709" lon="6.16299">
        <ele>1463</ele>
        <time>2017-02-26T11:49:00Z</time>
      </trkpt>
      <trkpt lat="45.07105" lon="6.1637">
        <ele>1470</ele>
        <time>2017-02-26T11:49:20Z</time>
      </trkpt>
      <trkpt lat="45.07093" lon="6.16475">
        <ele>1473</ele>
        <time>2017-02-26T11:49:40Z</time>
      </trkpt>
      <trkpt lat="45.07141" lon="6.1655">
        <ele>1485</ele>
        <time>2017-02-26T11:50:00Z</time>
      </trkpt>
      <trkpt lat="45.07119" lon="6.1667">
        <ele>1504</ele>
        <time>2017-02-26T11:50:20Z</time>
      </trkpt>
      <trkpt lat="45.07126" lon="6.16741">
        <ele>1510</ele>
        <time>2017-02-26T11:50:40Z</time>
      </trkpt>
      <trkpt lat="45.07085" lon="6.16874">
        <ele>1534</ele>
        <time>2017-02-26T11:51:00Z</time>
      </trkpt>
      <trkpt lat="45.07152" lon="6.17046">
        <ele>1546</ele>
        <time>2017-02-26T11:51:20Z</time>
      </trkpt>
      <trkpt lat="45.07205" lon="6.17277">
        <ele>1548</ele>
        <time>2017-02-26T11:51:40Z</time>
      </trkpt>
      <trkpt lat="45.07281" lon="6.17408">
        <ele>1562</ele>
        <time>2017-02-26T11:52:00Z</time>
      </trkpt>
      <trkpt lat="45.07325" lon="6.17507">
        <ele>1555</ele>
        <time>2017-02-26T11:52:20Z</time>
      </trkpt>
      <trkpt lat="45.07413" lon="6.17618">
        <ele>1555</ele>
        <time>2017-02-26T11:52:40Z</time>
      </trkpt>
      <trkpt lat="45.07501" lon="6.177">
        <ele>1571</ele>
        <time>2017-02-26T11:53:00Z</time>
      </trkpt>
      <trkpt lat="45.07564" lon="6.17818">
        <ele>1556</ele>
        <time>2017-02-26T11:53:20Z</time>
      </trkpt>
      <trkpt lat="45.07704" lon="6.17932">
        <ele>1563</ele>
        <time>2017-02-26T11:53:40Z</time>
      </trkpt>
      <trkpt lat="45.07749" lon="6.17979">
        <ele>1562</ele>
        <time>2017-02-26T11:54:00Z</time>
      </trkpt>
      <trkpt lat="45.07845" lon="6.17977">
        <ele>1572</ele>
        <time>2017-02-26T11:54:20Z</time>
      </trkpt>
      <trkpt lat="45.07845" lon="6.18078">
        <ele>1569</ele>
        <time>2017-02-26T11:54:40Z</time>
      </trkpt>
      <trkpt lat="45.07923" lon="6.18206">
        <ele>1584</ele>
        <time>2017-02-26T11:55:00Z</time>
      </trkpt>
      <trkpt lat="45.07955" lon="6.18339">
        <ele>1606</ele>
        <time>2017-02-26T11:55:20Z</time>
      </trkpt>
      <trkpt lat="45.07928" lon="6.18376">
        <ele>1614</ele>
        <time>2017-02-26T11:55:40Z</time>
      </trkpt>
      <trkpt lat="45.07972" lon="6.18681">
        <ele>1669</ele>
        <time>2017-02-26T11:56:00Z</time>
      </trkpt>
      <trkpt lat="45.07964" lon="6.18719">
        <ele>1674</ele>
        <time>2017-02-26T11:56:20Z</time>
      </trkpt>
      <trkpt lat="45.07946" lon="6.18694">
        <ele>1680</ele>
        <time>2017-02-26T11:56:40Z</time>
      </trkpt>
      <trkpt lat="45.07934" lon="6.18833">
        <ele>1692</ele>
        <time>2017-02-26T11:57:00Z</time>
      </trkpt>
      <trkpt lat="45.07939" lon="6.18983">
        <ele>1698</ele>
        <time>2017-02-26T11:57:20Z</time>
      </trkpt>
      <trkpt lat="45.0791" lon="6.19178">
        <ele>1749</ele>
        <time>2017-02-26T11:57:40Z</time>
      </trkpt>
      <trkpt lat="45.07898" lon="6.19219">
        <ele>1759</ele>
        <time>2017-02-26T11:58:00Z</time>
      </trkpt>
      <trkpt lat="45.07895" lon="6.19316">
        <ele>1766</ele>
        <time>2017-02-26T11:58:20Z</time>
      </trkpt>
      <trkpt lat="45.07872" lon="6.19533">
        <ele>1801</ele>
        <time>2017-02-26T11:58:40Z</time>
      </trkpt>
      <trkpt lat="45.07876" lon="6.19629">
        <ele>1816</ele>
        <time>2017-02-26T11:59:00Z</time>
      </trkpt>
      <trkpt lat="45.07811" lon="6.19575">
        <ele>1850</ele>
        <time>2017-02-26T11:59:20Z</time>
      </trkpt>
      <trkpt lat="45.07798" lon="6.19524">
        <ele>1856</ele>
        <time>2017-02-26T11:59:40Z</time>
      </trkpt>
      <trkpt lat="45.07782" lon="6.19539">
        <ele>1862</ele>
        <time>2017-02-26T12:00:00Z</time>
      </trkpt>
      <trkpt lat="45.07775" lon="6.19485">
        <ele>1861</ele>
        <time>2017-02-26T12:00:20Z</time>
      </trkpt>
      <trkpt lat="45.07758" lon="6.19515">
        <ele>1872</ele>
        <time>2017-02-26T12:00:40Z</time>
      </trkpt>
      <trkpt lat="45.07732" lon="6.19485">
        <ele>1888</ele>
        <time>2017-02-26T12:01:00Z</time>
      </trkpt>
      <trkpt lat="45.07658" lon="6.19552">
        <ele>1914</ele>
        <time>2017-02-26T12:01:20Z</time>
      </trkpt>
      <trkpt lat="45.07643" lon="6.19552">
        <ele>1914</ele>
        <time>2017-02-26T12:01:40Z</time>
      </trkpt>
      <trkpt lat="45.07608" lon="6.19603">
        <ele>1937</ele>
        <time>2017-02-26T12:02:00Z</time>
      </trkpt>
      <trkpt lat="45.07654" lon="6.19736">
        <ele>1968</ele>
        <time>2017-02-26T12:02:20Z</time>
      </trkpt>
      <trkpt lat="45.07548" lon="6.19728">
        <ele>1980</ele>
        <time>2017-02-26T12:02:40Z</time>
      </trkpt>
      <trkpt lat="45.07551" lon="6.19751">
        <ele>2002</ele>
        <time>2017-02-26T12:03:00Z</time>
      </trkpt>
      <trkpt lat="45.07516" lon="6.19741">
        <ele>1984</ele>
        <time>2017-02-26T12:03:20Z</time>
      </trkpt>
      <trkpt lat="45.07528" lon="6.19771">
        <ele>2004</ele>
        <time>2017-02-26T12:03:40Z</time>
      </trkpt>
      <trkpt lat="45.07508" lon="6.19779">
        <ele>2005</ele>
        <time>2017-02-26T12:04:00Z</time>
      </trkpt>
      <trkpt lat="45.07537" lon="6.19792">
        <ele>2009</ele>
        <time>2017-02-26T12:04:20Z</time>
      </trkpt>
      <trkpt lat="45.07531" lon="6.19865">
        <ele>2038</ele>
        <time>2017-02-26T12:04:40Z</time>
      </trkpt>
      <trkpt lat="45.07552" lon="6.19882">
        <ele>2041</ele>
        <time>2017-02-26T12:05:00Z</time>
      </trkpt>
      <trkpt lat="45.07534" lon="6.1991">
        <ele>2046</ele>
        <time>2017-02-26T12:05:20Z</time>
      </trkpt>
      <trkpt lat="45.07596" lon="6.19992">
        <ele>2068</ele>
        <time>2017-02-26T12:05:40Z</time>
      </trkpt>
      <trkpt lat="45.07635" lon="6.20097">
        <ele>2091</ele>
        <time>2017-02-26T12:06:00Z</time>
      </trkpt>
      <trkpt lat="45.07608" lon="6.2011">
        <ele>2100</ele>
        <time>2017-02-26T12:06:20Z</time>
      </trkpt>
      <trkpt lat="45.07595" lon="6.20088">
        <ele>2103</ele>
        <time>2017-02-26T12:06:40Z</time>
      </trkpt>
      <trkpt lat="45.0759" lon="6.20118">
        <ele>2104</ele>
        <time>2017-02-26T12:07:00Z</time>
      </trkpt>
      <trkpt lat="45.07564" lon="6.20073">
        <ele>2105</ele>
        <time>2017-02-26T12:07:20Z</time>
      </trkpt>
      <trkpt lat="45.0756" lon="6.2009">
        <ele>2122</ele>
        <time>2017-02-26T12:07:40Z</time>
      </trkpt>
      <trkpt lat="45.07466" lon="6.20103">
        <ele>2144</ele>
        <time>2017-02-26T12:08:00Z</time>
      </trkpt>
      <trkpt lat="45.07566" lon="6.20253">
        <ele>2172</ele>
        <time>2017-02-26T12:08:20Z</time>
      </trkpt>
      <trkpt lat="45.07551" lon="6.20266">
        <ele>2180</ele>
        <time>2017-02-26T12:08:40Z</time>
      </trkpt>
      <trkpt lat="45.0749" lon="6.20234">
        <ele>2185</ele>
        <time>2017-02-26T12:09:00Z</time>
      </trkpt>
      <trkpt lat="45.07458" lon="6.20234">
        <ele>2186</ele>
        <time>2017-02-26T12:09:20Z</time>
      </trkpt>
      <trkpt lat="45.0747" lon="6.20262">
        <ele>2205</ele>
        <time>2017-02-26T12:09:40Z</time>
      </trkpt>
      <trkpt lat="45.07396" lon="6.20249">
        <ele>2199</ele>
        <time>2017-02-26T12:10:00Z</time>
      </trkpt>
      <trkpt lat="45.0732" lon="6.20378">
        <ele>2236</ele>
        <time>2017-02-26T12:10:20Z</time>
      </trkpt>
      <trkpt lat="45.07363" lon="6.20535">
        <ele>2250</ele>
        <time>2017-02-26T12:10:40Z</time>
      </trkpt>
      <trkpt lat="45.07363" lon="6.20535">
        <ele>2250</ele>
        <time>2017-02-26T12:11:00Z</time>
      </trkpt>
      <trkpt lat="45.07302" lon="6.2056">
        <ele>2242</ele>
        <time>2017-02-26T12:11:20Z</time>
      </trkpt>
      <trkpt lat="45.0714" lon="6.20614">
        <ele>2233</ele>
        <time>2017-02-26T12:11:40Z</time>
      </trkpt>
      <trkpt lat="45.07075" lon="6.20681">
        <ele>2228</ele>
        <time>2017-02-26T12:12:00Z</time>
      </trkpt>
      <trkpt lat="45.07066" lon="6.20799">
        <ele>2219</ele>
        <time>2017-02-26T12:12:20Z</time>
      </trkpt>
      <trkpt lat="45.0701" lon="6.21015">
        <ele>2211</ele>
        <time>2017-02-26T12:12:40Z</time>
      </trkpt>
      <trkpt lat="45.06905" lon="6.21178">
        <ele>2210</ele>
        <time>2017-02-26T12:13:00Z</time>
      </trkpt>
      <trkpt lat="45.06863" lon="6.21329">
        <ele>2208</ele>
        <time>2017-02-26T12:13:20Z</time>
      </trkpt>
      <trkpt lat="45.06584" lon="6.21771">
        <ele>2204</ele>
        <time>2017-02-26T12:13:40Z</time>
      </trkpt>
      <trkpt lat="45.06572" lon="6.21998">
        <ele>2194</ele>
        <time>2017-02-26T12:14:00Z</time>
      </trkpt>
      <trkpt lat="45.06496" lon="6.22103">
        <ele>2205</ele>
        <time>2017-02-26T12:14:20Z</time>
      </trkpt>
      <trkpt lat="45.06491" lon="6.22303">
        <ele>2228</ele>
        <time>2017-02-26T12:14:40Z</time>
      </trkpt>
      <trkpt lat="45.06379" lon="6.22715">
        <ele>2264</ele>
        <time>2017-02-26T12:15:00Z</time>
      </trkpt>
      <trkpt lat="45.06325" lon="6.22785">
        <ele>2278</ele>
        <time>2017-02-26T12:15:20Z</time>
      </trkpt>
      <trkpt lat="45.06311" lon="6.22912">
        <ele>2282</ele>
        <time>2017-02-26T12:15:40Z</time>
      </trkpt>
      <trkpt lat="45.06322" lon="6.23015">
        <ele>2290</ele>
        <time>2017-02-26T12:16:00Z</time>
      </trkpt>
      <trkpt lat="45.06276" lon="6.23266">
        <ele>2309</ele>
        <time>2017-02-26T12:16:20Z</time>
      </trkpt>
      <trkpt lat="45.06291" lon="6.2335">
        <ele>2309</ele>
        <time>2017-02-26T12:16:40Z</time>
      </trkpt>
      <trkpt lat="45.06276" lon="6.23421">
        <ele>2313</ele>
        <time>2017-02-26T12:17:00Z</time>
      </trkpt>
      <trkpt lat="45.06285" lon="6.23496">
        <ele>2312</ele>
        <time>2017-02-26T12:17:20Z</time>
      </trkpt>
      <trkpt lat="45.06272" lon="6.23616">
        <ele>2319</ele>
        <time>2017-02-26T12:17:40Z</time>
      </trkpt>
      <trkpt lat="45.06234" lon="6.23693">
        <ele>2334</ele>
        <time>2017-02-26T12:18:00Z</time>
      </trkpt>
      <trkpt lat="45.06143" lon="6.238">
        <ele>2353</ele>
        <time>2017-02-26T12:18:20Z</time>
      </trkpt>
      <trkpt lat="45.05971" lon="6.2388">
        <ele>2360</ele>
        <time>2017-02-26T12:18:40Z</time>
      </trkpt>
      <trkpt lat="45.05882" lon="6.23876">
        <ele>2347</ele>
        <time>2017-02-26T12:19:00Z</time>
      </trkpt>
      <trkpt lat="45.0578" lon="6.23925">
        <ele>2327</ele>
        <time>2017-02-26T12:19:20Z</time>
      </trkpt>
      <trkpt lat="45.05724" lon="6.2409">
        <ele>2304</ele>
        <time>2017-02-26T12:19:40Z</time>
      </trkpt>
      <trkpt lat="45.05711" lon="6.24307">
        <ele>2282</ele>
        <time>2017-02-26T12:20:00Z</time>
      </trkpt>
      <trkpt lat="45.05732" lon="6.245">
        <ele>2263</ele>
        <time>2017-02-26T12:20:20Z</time>
      </trkpt>
      <trkpt lat="45.05709" lon="6.24603">
        <ele>2249</ele>
        <time>2017-02-26T12:20:40Z</time>
      </trkpt>
      <trkpt lat="45.05683" lon="6.24871">
        <ele>2230</ele>
        <time>2017-02-26T12:21:00Z</time>
      </trkpt>
      <trkpt lat="45.05694" lon="6.24955">
        <ele>2223</ele>
        <time>2017-02-26T12:21:20Z</time>
      </trkpt>
      <trkpt lat="45.0569" lon="6.25019">
        <ele>2216</ele>
        <time>2017-02-26T12:21:40Z</time>
      </trkpt>
      <trkpt lat="45.05708" lon="6.25146">
        <ele>2207</ele>
        <time>2017-02-26T12:22:00Z</time>
      </trkpt>
      <trkpt lat="45.0574" lon="6.25247">
        <ele>2205</ele>
        <time>2017-02-26T12:22:20Z</time>
      </trkpt>
      <trkpt lat="45.0568" lon="6.2526">
        <ele>2205</ele>
        <time>2017-02-26T12:22:40Z</time>
      </trkpt>
      <trkpt lat="45.05494" lon="6.2541">
        <ele>2207</ele>
        <time>2017-02-26T12:23:00Z</time>
      </trkpt>
      <trkpt lat="45.05391" lon="6.25431">
        <ele>2211</ele>
        <time>2017-02-26T12:23:20Z</time>
      </trkpt>
      <trkpt lat="45.05286" lon="6.25528">
        <ele>2221</ele>
        <time>2017-02-26T12:23:40Z</time>
      </trkpt>
      <trkpt lat="45.052" lon="6.25663">
        <ele>2216</ele>
        <time>2017-02-26T12:24:00Z</time>
      </trkpt>
      <trkpt lat="45.05183" lon="6.25798">
        <ele>2217</ele>
        <time>2017-02-26T12:24:20Z</time>
      </trkpt>
      <trkpt lat="45.05208" lon="6.25929">
        <ele>2198</ele>
        <time>2017-02-26T12:24:40Z</time>
      </trkpt>
      <trkpt lat="45.05223" lon="6.26054">
        <ele>2185</ele>
        <time>2017-02-26T12:25:00Z</time>
      </trkpt>
      <trkpt lat="45.05258" lon="6.26159">
        <ele>2187</ele>
        <time>2017-02-26T12:25:20Z</time>
      </trkpt>
      <trkpt lat="45.05253" lon="6.26311">
        <ele>2173</ele>
        <time>2017-02-26T12:25:40Z</time>
      </trkpt>
      <trkpt lat="45.05298" lon="6.26365">
        <ele>2172</ele>
        <time>2017-02-26T12:26:00Z</time>
      </trkpt>
      <trkpt lat="45.05288" lon="6.26403">
        <ele>2168</ele>
        <time>2017-02-26T12:26:20Z</time>
      </trkpt>
      <trkpt lat="45.05326" lon="6.26541">
        <ele>2163</ele>
        <time>2017-02-26T12:26:40Z</time>
      </trkpt>
      <trkpt lat="45.0532" lon="6.26633">
        <ele>2161</ele>
        <time>2017-02-26T12:27:00Z</time>
      </trkpt>
      <trkpt lat="45.05305" lon="6.26678">
        <ele>2155</ele>
        <time>2017-02-26T12:27:20Z</time>
      </trkpt>
      <trkpt lat="45.05277" lon="6.26892">
        <ele>2115</ele>
        <time>2017-02-26T12:27:40Z</time>
      </trkpt>
      <trkpt lat="45.05192" lon="6.27105">
        <ele>2091</ele>
        <time>2017-02-26T12:28:00Z</time>
      </trkpt>
      <trkpt lat="45.0517" lon="6.27214">
        <ele>2072</ele>
        <time>2017-02-26T12:28:20Z</time>
      </trkpt>
      <trkpt lat="45.05133" lon="6.27307">
        <ele>2068</ele>
        <time>2017-02-26T12:28:40Z</time>
      </trkpt>
      <trkpt lat="45.05076" lon="6.27365">
        <ele>2053</ele>
        <time>2017-02-26T12:29:00Z</time>
      </trkpt>
      <trkpt lat="45.05091" lon="6.2739">
        <ele>2047</ele>
        <time>2017-02-26T12:29:20Z</time>
      </trkpt>
      <trkpt lat="45.05056" lon="6.27412">
        <ele>2045</ele>
        <time>2017-02-26T12:29:40Z</time>
      </trkpt>
      <trkpt lat="45.05041" lon="6.27489">
        <ele>2022</ele>
        <time>2017-02-26T12:30:00Z</time>
      </trkpt>
      <trkpt lat="45.05085" lon="6.27541">
        <ele>2009</ele>
        <time>2017-02-26T12:30:20Z</time>
      </trkpt>
      <trkpt lat="45.051" lon="6.27538">
        <ele>2009</ele>
        <time>2017-02-26T12:30:40Z</time>
      </trkpt>
      <trkpt lat="45.051" lon="6.27601">
        <ele>1994</ele>
        <time>2017-02-26T12:31:00Z</time>
      </trkpt>
      <trkpt lat="45.05135" lon="6.2762">
        <ele>1988</ele>
        <time>2017-02-26T12:31:20Z</time>
      </trkpt>
      <trkpt lat="45.05114" lon="6.27686">
        <ele>1970</ele>
        <time>2017-02-26T12:31:40Z</time>
      </trkpt>
      <trkpt lat="45.05148" lon="6.27682">
        <ele>1970</ele>
        <time>2017-02-26T12:32:00Z</time>
      </trkpt>
      <trkpt lat="45.05136" lon="6.27719">
        <ele>1965</ele>
        <time>2017-02-26T12:32:20Z</time>
      </trkpt>
      <trkpt lat="45.05191" lon="6.2768">
        <ele>1959</ele>
        <time>2017-02-26T12:32:40Z</time>
      </trkpt>
      <trkpt lat="45.05248" lon="6.27678">
        <ele>1948</ele>
        <time>2017-02-26T12:33:00Z</time>
      </trkpt>
      <trkpt lat="45.05217" lon="6.27731">
        <ele>1947</ele>
        <time>2017-02-26T12:33:20Z</time>
      </trkpt>
      <trkpt lat="45.05232" lon="6.27757">
        <ele>1930</ele>
        <time>2017-02-26T12:33:40Z</time>
      </trkpt>
      <trkpt lat="45.0522" lon="6.27777">
        <ele>1930</ele>
        <time>2017-02-26T12:34:00Z</time>
      </trkpt>
      <trkpt lat="45.05267" lon="6.27783">
        <ele>1913</ele>
        <time>2017-02-26T12:34:20Z</time>
      </trkpt>
      <trkpt lat="45.0532" lon="6.27725">
        <ele>1920</ele>
        <time>2017-02-26T12:34:40Z</time>
      </trkpt>
      <trkpt lat="45.05297" lon="6.27785">
        <ele>1909</ele>
        <time>2017-02-26T12:35:00Z</time>
      </trkpt>
      <trkpt lat="45.05321" lon="6.27781">
        <ele>1907</ele>
        <time>2017-02-26T12:35:20Z</time>
      </trkpt>
      <trkpt lat="45.05298" lon="6.27873">
        <ele>1886</ele>
        <time>2017-02-26T12:35:40Z</time>
      </trkpt>
      <trkpt lat="45.05353" lon="6.27811">
        <ele>1880</ele>
        <time>2017-02-26T12:36:00Z</time>
      </trkpt>
      <trkpt lat="45.05344" lon="6.27937">
        <ele>1850</ele>
        <time>2017-02-26T12:36:20Z</time>
      </trkpt>
      <trkpt lat="45.05403" lon="6.27839">
        <ele>1854</ele>
        <time>2017-02-26T12:36:40Z</time>
      </trkpt>
      <trkpt lat="45.05402" lon="6.2794">
        <ele>1836</ele>
        <time>2017-02-26T12:37:00Z</time>
      </trkpt>
      <trkpt lat="45.05435" lon="6.2794">
        <ele>1817</ele>
        <time>2017-02-26T12:37:20Z</time>
      </trkpt>
      <trkpt lat="45.0537" lon="6.28049">
        <ele>1813</ele>
        <time>2017-02-26T12:37:40Z</time>
      </trkpt>
      <trkpt lat="45.05565" lon="6.28004">
        <ele>1763</ele>
        <time>2017-02-26T12:38:00Z</time>
      </trkpt>
      <trkpt lat="45.05705" lon="6.28002">
        <ele>1745</ele>
        <time>2017-02-26T12:38:20Z</time>
      </trkpt>
      <trkpt lat="45.05705" lon="6.28047">
        <ele>1747</ele>
        <time>2017-02-26T12:38:40Z</time>
      </trkpt>
      <trkpt lat="45.05485" lon="6.28399">
        <ele>1774</ele>
        <time>2017-02-26T12:39:00Z</time>
      </trkpt>
      <trkpt lat="45.05412" lon="6.28452">
        <ele>1782</ele>
        <time>2017-02-26T12:39:20Z</time>
      </trkpt>
      <trkpt lat="45.05386" lon="6.28663">
        <ele>1796</ele>
        <time>2017-02-26T12:39:40Z</time>
      </trkpt>
      <trkpt lat="45.05297" lon="6.28742">
        <ele>1788</ele>
        <time>2017-02-26T12:40:00Z</time>
      </trkpt>
      <trkpt lat="45.05235" lon="6.28837">
        <ele>1803</ele>
        <time>2017-02-26T12:40:20Z</time>
      </trkpt>
      <trkpt lat="45.05074" lon="6.28918">
        <ele>1820</ele>
        <time>2017-02-26T12:40:40Z</time>
      </trkpt>
      <trkpt lat="45.05036" lon="6.28914">
        <ele>1802</ele>
        <time>2017-02-26T12:41:00Z</time>
      </trkpt>
      <trkpt lat="45.04859" lon="6.28982">
        <ele>1763</ele>
        <time>2017-02-26T12:41:20Z</time>
      </trkpt>
      <trkpt lat="45.04819" lon="6.29111">
        <ele>1749</ele>
        <time>2017-02-26T12:41:40Z</time>
      </trkpt>
      <trkpt lat="45.04819" lon="6.29111">
        <ele>1749</ele>
        <time>2017-02-26T12:42:00Z</time>
      </trkpt>
      <trkpt lat="45.04842" lon="6.29206">
        <ele>1804</ele>
        <time>2017-02-26T12:42:20Z</time>
      </trkpt>
      <trkpt lat="45.04891" lon="6.29276">
        <ele>1799</ele>
        <time>2017-02-26T12:42:40Z</time>
      </trkpt>
      <trkpt lat="45.04935" lon="6.29455">
        <ele>1780</ele>
        <time>2017-02-26T12:43:00Z</time>
      </trkpt>
      <trkpt lat="45.04863" lon="6.29399">
        <ele>1773</ele>
        <time>2017-02-26T12:43:20Z</time>
      </trkpt>
      <trkpt lat="45.04933" lon="6.29515">
        <ele>1769</ele>
        <time>2017-02-26T12:43:40Z</time>
      </trkpt>
      <trkpt lat="45.04892" lon="6.29551">
        <ele>1747</ele>
        <time>2017-02-26T12:44:00Z</time>
      </trkpt>
      <trkpt lat="45.04851" lon="6.29534">
        <ele>1742</ele>
        <time>2017-02-26T12:44:20Z</time>
      </trkpt>
      <trkpt lat="45.04813" lon="6.29699">
        <ele>1688</ele>
        <time>2017-02-26T12:44:40Z</time>
      </trkpt>
      <trkpt lat="45.04832" lon="6.29963">
        <ele>1647</ele>
        <time>2017-02-26T12:45:00Z</time>
      </trkpt>
      <trkpt lat="45.04862" lon="6.30042">
        <ele>1640</ele>
        <time>2017-02-26T12:45:20Z</time>
      </trkpt>
      <trkpt lat="45.04819" lon="6.30176">
        <ele>1601</ele>
        <time>2017-02-26T12:45:40Z</time>
      </trkpt>
      <trkpt lat="45.04766" lon="6.30184">
        <ele>1595</ele>
        <time>2017-02-26T12:46:00Z</time>
      </trkpt>
      <trkpt lat="45.04707" lon="6.30236">
        <ele>1572</ele>
        <time>2017-02-26T12:46:20Z</time>
      </trkpt>
      <trkpt lat="45.04668" lon="6.30223">
        <ele>1567</ele>
        <time>2017-02-26T12:46:40Z</time>
      </trkpt>
      <trkpt lat="45.04697" lon="6.30294">
        <ele>1556</ele>
        <time>2017-02-26T12:47:00Z</time>
      </trkpt>
      <trkpt lat="45.04733" lon="6.30313">
        <ele>1558</ele>
        <time>2017-02-26T12:47:20Z</time>
      </trkpt>
      <trkpt lat="45.04809" lon="6.30294">
        <ele>1579</ele>
        <time>2017-02-26T12:47:40Z</time>
      </trkpt>
      <trkpt lat="45.04745" lon="6.30334">
        <ele>1555</ele>
        <time>2017-02-26T12:48:00Z</time>
      </trkpt>
      <trkpt lat="45.04728" lon="6.30354">
        <ele>1545</ele>
        <time>2017-02-26T12:48:20Z</time>
      </trkpt>
      <trkpt lat="45.04675" lon="6.3036">
        <ele>1537</ele>
        <time>2017-02-26T12:48:40Z</time>
      </trkpt>
      <trkpt lat="45.04719" lon="6.30382">
        <ele>1540</ele>
        <time>2017-02-26T12:49:00Z</time>
      </trkpt>
      <trkpt lat="45.04756" lon="6.30373">
        <ele>1562</ele>
        <time>2017-02-26T12:49:20Z</time>
      </trkpt>
      <trkpt lat="45.04716" lon="6.30429">
        <ele>1531</ele>
        <time>2017-02-26T12:49:40Z</time>
      </trkpt>
      <trkpt lat="45.04695" lon="6.30515">
        <ele>1524</ele>
        <time>2017-02-26T12:50:00Z</time>
      </trkpt>
      <trkpt lat="45.04647" lon="6.30547">
        <ele>1513</ele>
        <time>2017-02-26T12:50:20Z</time>
      </trkpt>
      <trkpt lat="45.0458" lon="6.30517">
        <ele>1501</ele>
        <time>2017-02-26T12:50:40Z</time>
      </trkpt>
      <trkpt lat="45.04528" lon="6.30538">
        <ele>1490</ele>
        <time>2017-02-26T12:51:00Z</time>
      </trkpt>
      <trkpt lat="45.04639" lon="6.30738">
        <ele>1493</ele>
        <time>2017-02-26T12:51:20Z</time>
      </trkpt>
      <trkpt lat="45.04631" lon="6.31094">
        <ele>1479</ele>
        <time>2017-02-26T12:51:40Z</time>
      </trkpt>
      <trkpt lat="45.04563" lon="6.31233">
        <ele>1466</ele>
        <time>2017-02-26T12:52:00Z</time>
      </trkpt>
      <trkpt lat="45.04498" lon="6.31341">
        <ele>1464</ele>
        <time>2017-02-26T12:52:20Z</time>
      </trkpt>
      <trkpt lat="45.0453" lon="6.3148">
        <ele>1475</ele>
        <time>2017-02-26T12:52:40Z</time>
      </trkpt>
      <trkpt lat="45.04507" lon="6.31523">
        <ele>1480</ele>
        <time>2017-02-26T12:53:00Z</time>
      </trkpt>
      <trkpt lat="45.0454" lon="6.31575">
        <ele>1483</ele>
        <time>2017-02-26T12:53:20Z</time>
      </trkpt>
      <trkpt lat="45.04557" lon="6.3171">
        <ele>1505</ele>
        <time>2017-02-26T12:53:40Z</time>
      </trkpt>
      <trkpt lat="45.0454" lon="6.31802">
        <ele>1518</ele>
        <time>2017-02-26T12:54:00Z</time>
      </trkpt>
      <trkpt lat="45.04493" lon="6.31791">
        <ele>1538</ele>
        <time>2017-02-26T12:54:20Z</time>
      </trkpt>
      <trkpt lat="45.04539" lon="6.31854">
        <ele>1528</ele>
        <time>2017-02-26T12:54:40Z</time>
      </trkpt>
      <trkpt lat="45.04518" lon="6.31931">
        <ele>1540</ele>
        <time>2017-02-26T12:55:00Z</time>
      </trkpt>
      <trkpt lat="45.04521" lon="6.31978">
        <ele>1541</ele>
        <time>2017-02-26T12:55:20Z</time>
      </trkpt>
      <trkpt lat="45.04498" lon="6.32051">
        <ele>1570</ele>
        <time>2017-02-26T12:55:40Z</time>
      </trkpt>
      <trkpt lat="45.04498" lon="6.32117">
        <ele>1572</ele>
        <time>2017-02-26T12:56:00Z</time>
      </trkpt>
      <trkpt lat="45.0448" lon="6.32188">
        <ele>1572</ele>
        <time>2017-02-26T12:56:20Z</time>
      </trkpt>
      <trkpt lat="45.04433" lon="6.32272">
        <ele>1580</ele>
        <time>2017-02-26T12:56:40Z</time>
      </trkpt>
      <trkpt lat="45.04453" lon="6.32311">
        <ele>1577</ele>
        <time>2017-02-26T12:57:00Z</time>
      </trkpt>
      <trkpt lat="45.04431" lon="6.32317">
        <ele>1581</ele>
        <time>2017-02-26T12:57:20Z</time>
      </trkpt>
      <trkpt lat="45.04434" lon="6.32351">
        <ele>1578</ele>
        <time>2017-02-26T12:57:40Z</time>
      </trkpt>
      <trkpt lat="45.04386" lon="6.32319">
        <ele>1600</ele>
        <time>2017-02-26T12:58:00Z</time>
      </trkpt>
      <trkpt lat="45.04325" lon="6.32338">
        <ele>1624</ele>
        <time>2017-02-26T12:58:20Z</time>
      </trkpt>
      <trkpt lat="45.04251" lon="6.32311">
        <ele>1642</ele>
        <time>2017-02-26T12:58:40Z</time>
      </trkpt>
      <trkpt lat="45.04196" lon="6.32334">
        <ele>1675</ele>
        <time>2017-02-26T12:59:00Z</time>
      </trkpt>
      <trkpt lat="45.04198" lon="6.32259">
        <ele>1679</ele>
        <time>2017-02-26T12:59:20Z</time>
      </trkpt>
      <trkpt lat="45.0414" lon="6.32285">
        <ele>1708</ele>
        <time>2017-02-26T12:59:40Z</time>
      </trkpt>
      <trkpt lat="45.04092" lon="6.32371">
        <ele>1721</ele>
        <time>2017-02-26T13:00:00Z</time>
      </trkpt>
      <trkpt lat="45.04028" lon="6.32396">
        <ele>1752</ele>
        <time>2017-02-26T13:00:20Z</time>
      </trkpt>
      <trkpt lat="45.04108" lon="6.3242">
        <ele>1726</ele>
        <time>2017-02-26T13:00:40Z</time>
      </trkpt>
      <trkpt lat="45.04102" lon="6.32478">
        <ele>1725</ele>
        <time>2017-02-26T13:01:00Z</time>
      </trkpt>
      <trkpt lat="45.04108" lon="6.32521">
        <ele>1721</ele>
        <time>2017-02-26T13:01:20Z</time>
      </trkpt>
      <trkpt lat="45.04066" lon="6.32542">
        <ele>1730</ele>
        <time>2017-02-26T13:01:40Z</time>
      </trkpt>
      <trkpt lat="45.04064" lon="6.32598">
        <ele>1721</ele>
        <time>2017-02-26T13:02:00Z</time>
      </trkpt>
      <trkpt lat="45.04119" lon="6.32703">
        <ele>1707</ele>
        <time>2017-02-26T13:02:20Z</time>
      </trkpt>
      <trkpt lat="45.04161" lon="6.32907">
        <ele>1687</ele>
        <time>2017-02-26T13:02:40Z</time>
      </trkpt>
      <trkpt lat="45.04169" lon="6.32995">
        <ele>1668</ele>
        <time>2017-02-26T13:03:00Z</time>
      </trkpt>
      <trkpt lat="45.04128" lon="6.3307">
        <ele>1676</ele>
        <time>2017-02-26T13:03:20Z</time>
      </trkpt>
      <trkpt lat="45.0414" lon="6.33375">
        <ele>1645</ele>
        <time>2017-02-26T13:03:40Z</time>
      </trkpt>
      <trkpt lat="45.04102" lon="6.33564">
        <ele>1649</ele>
        <time>2017-02-26T13:04:00Z</time>
      </trkpt>
      <trkpt lat="45.03993" lon="6.33682">
        <ele>1697</ele>
        <time>2017-02-26T13:04:20Z</time>
      </trkpt>
      <trkpt lat="45.03986" lon="6.33772">
        <ele>1691</ele>
        <time>2017-02-26T13:04:40Z</time>
      </trkpt>
      <trkpt lat="45.03899" lon="6.34055">
        <ele>1704</ele>
        <time>2017-02-26T13:05:00Z</time>
      </trkpt>
      <trkpt lat="45.03904" lon="6.34119">
        <ele>1688</ele>
        <time>2017-02-26T13:05:20Z</time>
      </trkpt>
      <trkpt lat="45.03808" lon="6.3445">
        <ele>1686</ele>
        <time>2017-02-26T13:05:40Z</time>
      </trkpt>
      <trkpt lat="45.03829" lon="6.34516">
        <ele>1666</ele>
        <time>2017-02-26T13:06:00Z</time>
      </trkpt>
      <trkpt lat="45.03791" lon="6.34662">
        <ele>1660</ele>
        <time>2017-02-26T13:06:20Z</time>
      </trkpt>
      <trkpt lat="45.03791" lon="6.34793">
        <ele>1648</ele>
        <time>2017-02-26T13:06:40Z</time>
      </trkpt>
      <trkpt lat="45.03697" lon="6.34881">
        <ele>1659</ele>
        <time>2017-02-26T13:07:00Z</time>
      </trkpt>
      <trkpt lat="45.03636" lon="6.35031">
        <ele>1666</ele>
        <time>2017-02-26T13:07:20Z</time>
      </trkpt>
      <trkpt lat="45.03565" lon="6.35083">
        <ele>1681</ele>
        <time>2017-02-26T13:07:40Z</time>
      </trkpt>
      <trkpt lat="45.03521" lon="6.35218">
        <ele>1658</ele>
        <time>2017-02-26T13:08:00Z</time>
      </trkpt>
      <trkpt lat="45.03451" lon="6.35302">
        <ele>1664</ele>
        <time>2017-02-26T13:08:20Z</time>
      </trkpt>
      <trkpt lat="45.03451" lon="6.35366">
        <ele>1660</ele>
        <time>2017-02-26T13:08:40Z</time>
      </trkpt>
      <trkpt lat="45.0328" lon="6.35566">
        <ele>1673</ele>
        <time>2017-02-26T13:09:00Z</time>
      </trkpt>
      <trkpt lat="45.03198" lon="6.35823">
        <ele>1667</ele>
        <time>2017-02-26T13:09:20Z</time>
      </trkpt>
      <trkpt lat="45.03237" lon="6.35866">
        <ele>1664</ele>
        <time>2017-02-26T13:09:40Z</time>
      </trkpt>
      <trkpt lat="45.03213" lon="6.35971">
        <ele>1665</ele>
        <time>2017-02-26T13:10:00Z</time>
      </trkpt>
      <trkpt lat="45.03066" lon="6.36342">
        <ele>1671</ele>
        <time>2017-02-26T13:10:20Z</time>
      </trkpt>
      <trkpt lat="45.03028" lon="6.36351">
        <ele>1672</ele>
        <time>2017-02-26T13:10:40Z</time>
      </trkpt>
      <trkpt lat="45.02935" lon="6.36495">
        <ele>1675</ele>
        <time>2017-02-26T13:11:00Z</time>
      </trkpt>
      <trkpt lat="45.02794" lon="6.36624">
        <ele>1690</ele>
        <time>2017-02-26T13:11:20Z</time>
      </trkpt>
      <trkpt lat="45.02658" lon="6.3669">
        <ele>1695</ele>
        <time>2017-02-26T13:11:40Z</time>
      </trkpt>
      <trkpt lat="45.02591" lon="6.36688">
        <ele>1694</ele>
        <time>2017-02-26T13:12:00Z</time>
      </trkpt>
      <trkpt lat="45.02535" lon="6.3672">
        <ele>1697</ele>
        <time>2017-02-26T13:12:20Z</time>
      </trkpt>
      <trkpt lat="45.02496" lon="6.36767">
        <ele>1707</ele>
        <time>2017-02-26T13:12:40Z</time>
      </trkpt>
      <trkpt lat="45.02433" lon="6.368">
        <ele>1707</ele>
        <time>2017-02-26T13:13:00Z</time>
      </trkpt>
      <trkpt lat="45.02397" lon="6.36857">
        <ele>1713</ele>
        <time>2017-02-26T13:13:20Z</time>
      </trkpt>
      <trkpt lat="45.02305" lon="6.36924">
        <ele>1715</ele>
        <time>2017-02-26T13:13:40Z</time>
      </trkpt>
      <trkpt lat="45.02245" lon="6.36999">
        <ele>1715</ele>
        <time>2017-02-26T13:14:00Z</time>
      </trkpt>
      <trkpt lat="45.02174" lon="6.37018">
        <ele>1715</ele>
        <time>2017-02-26T13:14:20Z</time>
      </trkpt>
      <trkpt lat="45.02117" lon="6.37104">
        <ele>1729</ele>
        <time>2017-02-26T13:14:40Z</time>
      </trkpt>
      <trkpt lat="45.02083" lon="6.37098">
        <ele>1716</ele>
        <time>2017-02-26T13:15:00Z</time>
      </trkpt>
      <trkpt lat="45.02024" lon="6.37156">
        <ele>1723</ele>
        <time>2017-02-26T13:15:20Z</time>
      </trkpt>
      <trkpt lat="45.01884" lon="6.3719">
        <ele>1728</ele>
        <time>2017-02-26T13:15:40Z</time>
      </trkpt>
      <trkpt lat="45.0179" lon="6.37166">
        <ele>1722</ele>
        <time>2017-02-26T13:16:00Z</time>
      </trkpt>
      <trkpt lat="45.0179" lon="6.37166">
        <ele>1722</ele>
        <time>2017-02-26T13:16:20Z</time>
      </trkpt>
      <trkpt lat="45.01672" lon="6.37215">
        <ele>1743</ele>
        <time>2017-02-26T13:16:40Z</time>
      </trkpt>
      <trkpt lat="45.01628" lon="6.37157">
        <ele>1742</ele>
        <time>2017-02-26T13:17:00Z</time>
      </trkpt>
      <trkpt lat="45.01531" lon="6.3711">
        <ele>1754</ele>
        <time>2017-02-26T13:17:20Z</time>
      </trkpt>
      <trkpt lat="45.01447" lon="6.37217">
        <ele>1771</ele>
        <time>2017-02-26T13:17:40Z</time>
      </trkpt>
      <trkpt lat="45.01425" lon="6.37303">
        <ele>1784</ele>
        <time>2017-02-26T13:18:00Z</time>
      </trkpt>
      <trkpt lat="45.01361" lon="6.37415">
        <ele>1803</ele>
        <time>2017-02-26T13:18:20Z</time>
      </trkpt>
      <trkpt lat="45.01347" lon="6.37346">
        <ele>1801</ele>
        <time>2017-02-26T13:18:40Z</time>
      </trkpt>
      <trkpt lat="45.01331" lon="6.37333">
        <ele>1807</ele>
        <time>2017-02-26T13:19:00Z</time>
      </trkpt>
      <trkpt lat="45.01318" lon="6.37368">
        <ele>1821</ele>
        <time>2017-02-26T13:19:20Z</time>
      </trkpt>
      <trkpt lat="45.01287" lon="6.3737">
        <ele>1828</ele>
        <time>2017-02-26T13:19:40Z</time>
      </trkpt>
      <trkpt lat="45.013" lon="6.37402">
        <ele>1825</ele>
        <time>2017-02-26T13:20:00Z</time>
      </trkpt>
      <trkpt lat="45.01285" lon="6.37406">
        <ele>1830</ele>
        <time>2017-02-26T13:20:20Z</time>
      </trkpt>
      <trkpt lat="45.01297" lon="6.37436">
        <ele>1834</ele>
        <time>2017-02-26T13:20:40Z</time>
      </trkpt>
      <trkpt lat="45.01274" lon="6.37443">
        <ele>1840</ele>
        <time>2017-02-26T13:21:00Z</time>
      </trkpt>
      <trkpt lat="45.01268" lon="6.37492">
        <ele>1848</ele>
        <time>2017-02-26T13:21:20Z</time>
      </trkpt>
      <trkpt lat="45.01285" lon="6.37503">
        <ele>1862</ele>
        <time>2017-02-26T13:21:40Z</time>
      </trkpt>
      <trkpt lat="45.01271" lon="6.37541">
        <ele>1870</ele>
        <time>2017-02-26T13:22:00Z</time>
      </trkpt>
      <trkpt lat="45.01306" lon="6.37554">
        <ele>1871</ele>
        <time>2017-02-26T13:22:20Z</time>
      </trkpt>
      <trkpt lat="45.0125" lon="6.3758">
        <ele>1888</ele>
        <time>2017-02-26T13:22:40Z</time>
      </trkpt>
      <trkpt lat="45.01285" lon="6.37606">
        <ele>1905</ele>
        <time>2017-02-26T13:23:00Z</time>
      </trkpt>
      <trkpt lat="45.01256" lon="6.37632">
        <ele>1913</ele>
        <time>2017-02-26T13:23:20Z</time>
      </trkpt>
      <trkpt lat="45.01164" lon="6.37662">
        <ele>1945</ele>
        <time>2017-02-26T13:23:40Z</time>
      </trkpt>
      <trkpt lat="45.0113" lon="6.37649">
        <ele>1945</ele>
        <time>2017-02-26T13:24:00Z</time>
      </trkpt>
      <trkpt lat="45.01129" lon="6.3769">
        <ele>1967</ele>
        <time>2017-02-26T13:24:20Z</time>
      </trkpt>
      <trkpt lat="45.011" lon="6.37702">
        <ele>1972</ele>
        <time>2017-02-26T13:24:40Z</time>
      </trkpt>
      <trkpt lat="45.01098" lon="6.37752">
        <ele>1997</ele>
        <time>2017-02-26T13:25:00Z</time>
      </trkpt>
      <trkpt lat="45.01039" lon="6.37767">
        <ele>2003</ele>
        <time>2017-02-26T13:25:20Z</time>
      </trkpt>
      <trkpt lat="45.01007" lon="6.37803">
        <ele>2009</ele>
        <time>2017-02-26T13:25:40Z</time>
      </trkpt>
      <trkpt lat="45.00915" lon="6.3782">
        <ele>2016</ele>
        <time>2017-02-26T13:26:00Z</time>
      </trkpt>
      <trkpt lat="45.00507" lon="6.38114">
        <ele>2057</ele>
        <time>2017-02-26T13:26:20Z</time>
      </trkpt>
      <trkpt lat="45.00461" lon="6.38189">
        <ele>2063</ele>
        <time>2017-02-26T13:26:40Z</time>
      </trkpt>
      <trkpt lat="45.00344" lon="6.3823">
        <ele>2060</ele>
        <time>2017-02-26T13:27:00Z</time>
      </trkpt>
      <trkpt lat="45.00287" lon="6.38286">
        <ele>2070</ele>
        <time>2017-02-26T13:27:20Z</time>
      </trkpt>
      <trkpt lat="45.00073" lon="6.38413">
        <ele>2082</ele>
        <time>2017-02-26T13:27:40Z</time>
      </trkpt>
      <trkpt lat="44.99895" lon="6.38539">
        <ele>2080</ele>
        <time>2017-02-26T13:28:00Z</time>
      </trkpt>
      <trkpt lat="44.99873" lon="6.38593">
        <ele>2090</ele>
        <time>2017-02-26T13:28:20Z</time>
      </trkpt>
      <trkpt lat="44.99744" lon="6.3867">
        <ele>2092</ele>
        <time>2017-02-26T13:28:40Z</time>
      </trkpt>
      <trkpt lat="44.99712" lon="6.38719">
        <ele>2101</ele>
        <time>2017-02-26T13:29:00Z</time>
      </trkpt>
      <trkpt lat="44.9965" lon="6.3875">
        <ele>2101</ele>
        <time>2017-02-26T13:29:20Z</time>
      </trkpt>
      <trkpt lat="44.99622" lon="6.38788">
        <ele>2117</ele>
        <time>2017-02-26T13:29:40Z</time>
      </trkpt>
      <trkpt lat="44.99514" lon="6.38833">
        <ele>2129</ele>
        <time>2017-02-26T13:30:00Z</time>
      </trkpt>
      <trkpt lat="44.99423" lon="6.38844">
        <ele>2138</ele>
        <time>2017-02-26T13:30:20Z</time>
      </trkpt>
      <trkpt lat="44.99395" lon="6.38889">
        <ele>2146</ele>
        <time>2017-02-26T13:30:40Z</time>
      </trkpt>
      <trkpt lat="44.99304" lon="6.38919">
        <ele>2152</ele>
        <time>2017-02-26T13:31:00Z</time>
      </trkpt>
      <trkpt lat="44.99209" lon="6.39035">
        <ele>2164</ele>
        <time>2017-02-26T13:31:20Z</time>
      </trkpt>
      <trkpt lat="44.99138" lon="6.39078">
        <ele>2166</ele>
        <time>2017-02-26T13:31:40Z</time>
      </trkpt>
      <trkpt lat="44.99043" lon="6.39209">
        <ele>2178</ele>
        <time>2017-02-26T13:32:00Z</time>
      </trkpt>
      <trkpt lat="44.99006" lon="6.39224">
        <ele>2178</ele>
        <time>2017-02-26T13:32:20Z</time>
      </trkpt>
      <trkpt lat="44.98909" lon="6.39352">
        <ele>2184</ele>
        <time>2017-02-26T13:32:40Z</time>
      </trkpt>
      <trkpt lat="44.98826" lon="6.3943">
        <ele>2190</ele>
        <time>2017-02-26T13:33:00Z</time>
      </trkpt>
      <trkpt lat="44.98586" lon="6.39707">
        <ele>2213</ele>
        <time>2017-02-26T13:33:20Z</time>
      </trkpt>
      <trkpt lat="44.98564" lon="6.39764">
        <ele>2218</ele>
        <time>2017-02-26T13:33:40Z</time>
      </trkpt>
      <trkpt lat="44.98505" lon="6.39829">
        <ele>2219</ele>
        <time>2017-02-26T13:34:00Z</time>
      </trkpt>
      <trkpt lat="44.98481" lon="6.39891">
        <ele>2224</ele>
        <time>2017-02-26T13:34:20Z</time>
      </trkpt>
      <trkpt lat="44.98448" lon="6.3993">
        <ele>2227</ele>
        <time>2017-02-26T13:34:40Z</time>
      </trkpt>
      <trkpt lat="44.98414" lon="6.40039">
        <ele>2230</ele>
        <time>2017-02-26T13:35:00Z</time>
      </trkpt>
      <trkpt lat="44.98252" lon="6.40232">
        <ele>2240</ele>
        <time>2017-02-26T13:35:20Z</time>
      </trkpt>
      <trkpt lat="44.98221" lon="6.40299">
        <ele>2244</ele>
        <time>2017-02-26T13:35:40Z</time>
      </trkpt>
      <trkpt lat="44.98173" lon="6.40318">
        <ele>2244</ele>
        <time>2017-02-26T13:36:00Z</time>
      </trkpt>
      <trkpt lat="44.98021" lon="6.4049">
        <ele>2262</ele>
        <time>2017-02-26T13:36:20Z</time>
      </trkpt>
      <trkpt lat="44.97842" lon="6.40599">
        <ele>2300</ele>
        <time>2017-02-26T13:36:40Z</time>
      </trkpt>
      <trkpt lat="44.97762" lon="6.40698">
        <ele>2327</ele>
        <time>2017-02-26T13:37:00Z</time>
      </trkpt>
      <trkpt lat="44.97777" lon="6.40747">
        <ele>2332</ele>
        <time>2017-02-26T13:37:20Z</time>
      </trkpt>
      <trkpt lat="44.97766" lon="6.40786">
        <ele>2342</ele>
        <time>2017-02-26T13:37:40Z</time>
      </trkpt>
      <trkpt lat="44.97798" lon="6.4097">
        <ele>2357</ele>
        <time>2017-02-26T13:38:00Z</time>
      </trkpt>
      <trkpt lat="44.97781" lon="6.41041">
        <ele>2354</ele>
        <time>2017-02-26T13:38:20Z</time>
      </trkpt>
      <trkpt lat="44.97815" lon="6.41103">
        <ele>2355</ele>
        <time>2017-02-26T13:38:40Z</time>
      </trkpt>
      <trkpt lat="44.97842" lon="6.41183">
        <ele>2359</ele>
        <time>2017-02-26T13:39:00Z</time>
      </trkpt>
      <trkpt lat="44.97938" lon="6.41511">
        <ele>2340</ele>
        <time>2017-02-26T13:39:20Z</time>
      </trkpt>
      <trkpt lat="44.97938" lon="6.41582">
        <ele>2334</ele>
        <time>2017-02-26T13:39:40Z</time>
      </trkpt>
      <trkpt lat="44.97985" lon="6.41672">
        <ele>2318</ele>
        <time>2017-02-26T13:40:00Z</time>
      </trkpt>
      <trkpt lat="44.98004" lon="6.4185">
        <ele>2292</ele>
        <time>2017-02-26T13:40:20Z</time>
      </trkpt>
      <trkpt lat="44.98047" lon="6.41889">
        <ele>2291</ele>
        <time>2017-02-26T13:40:40Z</time>
      </trkpt>
      <trkpt lat="44.98115" lon="6.42097">
        <ele>2260</ele>
        <time>2017-02-26T13:41:00Z</time>
      </trkpt>
      <trkpt lat="44.98164" lon="6.42112">
        <ele>2262</ele>
        <time>2017-02-26T13:41:20Z</time>
      </trkpt>
      <trkpt lat="44.98226" lon="6.42224">
        <ele>2258</ele>
        <time>2017-02-26T13:41:40Z</time>
      </trkpt>
      <trkpt lat="44.98209" lon="6.42275">
        <ele>2252</ele>
        <time>2017-02-26T13:42:00Z</time>
      </trkpt>
      <trkpt lat="44.98234" lon="6.42363">
        <ele>2247</ele>
        <time>2017-02-26T13:42:20Z</time>
      </trkpt>
      <trkpt lat="44.98234" lon="6.42477">
        <ele>2240</ele>
        <time>2017-02-26T13:42:40Z</time>
      </trkpt>
      <trkpt lat="44.98234" lon="6.42685">
        <ele>2234</ele>
        <time>2017-02-26T13:43:00Z</time>
      </trkpt>
      <trkpt lat="44.9814" lon="6.43013">
        <ele>2206</ele>
        <time>2017-02-26T13:43:20Z</time>
      </trkpt>
      <trkpt lat="44.98073" lon="6.43479">
        <ele>2171</ele>
        <time>2017-02-26T13:43:40Z</time>
      </trkpt>
      <trkpt lat="44.98077" lon="6.43528">
        <ele>2172</ele>
        <time>2017-02-26T13:44:00Z</time>
      </trkpt>
      <trkpt lat="44.9805" lon="6.43674">
        <ele>2167</ele>
        <time>2017-02-26T13:44:20Z</time>
      </trkpt>
      <trkpt lat="44.98061" lon="6.43766">
        <ele>2162</ele>
        <time>2017-02-26T13:44:40Z</time>
      </trkpt>
      <trkpt lat="44.98042" lon="6.43869">
        <ele>2163</ele>
        <time>2017-02-26T13:45:00Z</time>
      </trkpt>
      <trkpt lat="44.98003" lon="6.43927">
        <ele>2153</ele>
        <time>2017-02-26T13:45:20Z</time>
      </trkpt>
      <trkpt lat="44.9793" lon="6.44129">
        <ele>2115</ele>
        <time>2017-02-26T13:45:40Z</time>
      </trkpt>
      <trkpt lat="44.97921" lon="6.44247">
        <ele>2095</ele>
        <time>2017-02-26T13:46:00Z</time>
      </trkpt>
      <trkpt lat="44.97892" lon="6.44232">
        <ele>2081</ele>
        <time>2017-02-26T13:46:20Z</time>
      </trkpt>
      <trkpt lat="44.97874" lon="6.44283">
        <ele>2066</ele>
        <time>2017-02-26T13:46:40Z</time>
      </trkpt>
      <trkpt lat="44.97869" lon="6.44335">
        <ele>2056</ele>
        <time>2017-02-26T13:47:00Z</time>
      </trkpt>
      <trkpt lat="44.97842" lon="6.44354">
        <ele>2046</ele>
        <time>2017-02-26T13:47:20Z</time>
      </trkpt>
      <trkpt lat="44.97825" lon="6.44404">
        <ele>2021</ele>
        <time>2017-02-26T13:47:40Z</time>
      </trkpt>
      <trkpt lat="44.97792" lon="6.44434">
        <ele>2007</ele>
        <time>2017-02-26T13:48:00Z</time>
      </trkpt>
      <trkpt lat="44.97748" lon="6.44547">
        <ele>1966</ele>
        <time>2017-02-26T13:48:20Z</time>
      </trkpt>
      <trkpt lat="44.97598" lon="6.44625">
        <ele>1947</ele>
        <time>2017-02-26T13:48:40Z</time>
      </trkpt>
      <trkpt lat="44.97613" lon="6.44648">
        <ele>1940</ele>
        <time>2017-02-26T13:49:00Z</time>
      </trkpt>
      <trkpt lat="44.97598" lon="6.44663">
        <ele>1938</ele>
        <time>2017-02-26T13:49:20Z</time>
      </trkpt>
      <trkpt lat="44.97599" lon="6.44743">
        <ele>1919</ele>
        <time>2017-02-26T13:49:40Z</time>
      </trkpt>
      <trkpt lat="44.97614" lon="6.44781">
        <ele>1916</ele>
        <time>2017-02-26T13:50:00Z</time>
      </trkpt>
      <trkpt lat="44.97575" lon="6.45047">
        <ele>1902</ele>
        <time>2017-02-26T13:50:20Z</time>
      </trkpt>
      <trkpt lat="44.97549" lon="6.45163">
        <ele>1893</ele>
        <time>2017-02-26T13:50:40Z</time>
      </trkpt>
      <trkpt lat="44.97581" lon="6.45213">
        <ele>1879</ele>
        <time>2017-02-26T13:51:00Z</time>
      </trkpt>
      <trkpt lat="44.97584" lon="6.45273">
        <ele>1869</ele>
        <time>2017-02-26T13:51:20Z</time>
      </trkpt>
      <trkpt lat="44.97566" lon="6.45328">
        <ele>1861</ele>
        <time>2017-02-26T13:51:40Z</time>
      </trkpt>
      <trkpt lat="44.97573" lon="6.45412">
        <ele>1844</ele>
        <time>2017-02-26T13:52:00Z</time>
      </trkpt>
      <trkpt lat="44.97674" lon="6.45717">
        <ele>1787</ele>
        <time>2017-02-26T13:52:20Z</time>
      </trkpt>
      <trkpt lat="44.97661" lon="6.4585">
        <ele>1760</ele>
        <time>2017-02-26T13:52:40Z</time>
      </trkpt>
      <trkpt lat="44.97722" lon="6.4615">
        <ele>1723</ele>
        <time>2017-02-26T13:53:00Z</time>
      </trkpt>
      <trkpt lat="44.97787" lon="6.46264">
        <ele>1711</ele>
        <time>2017-02-26T13:53:20Z</time>
      </trkpt>
      <trkpt lat="44.97874" lon="6.46311">
        <ele>1697</ele>
        <time>2017-02-26T13:53:40Z</time>
      </trkpt>
      <trkpt lat="44.97871" lon="6.46363">
        <ele>1697</ele>
        <time>2017-02-26T13:54:00Z</time>
      </trkpt>
      <trkpt lat="44.97898" lon="6.46378">
        <ele>1694</ele>
        <time>2017-02-26T13:54:20Z</time>
      </trkpt>
      <trkpt lat="44.9793" lon="6.46457">
        <ele>1684</ele>
        <time>2017-02-26T13:54:40Z</time>
      </trkpt>
      <trkpt lat="44.97992" lon="6.46528">
        <ele>1682</ele>
        <time>2017-02-26T13:55:00Z</time>
      </trkpt>
      <trkpt lat="44.98009" lon="6.46607">
        <ele>1668</ele>
        <time>2017-02-26T13:55:20Z</time>
      </trkpt>
      <trkpt lat="44.98124" lon="6.46768">
        <ele>1637</ele>
        <time>2017-02-26T13:55:40Z</time>
      </trkpt>
      <trkpt lat="44.98118" lon="6.46826">
        <ele>1639</ele>
        <time>2017-02-26T13:56:00Z</time>
      </trkpt>
      <trkpt lat="44.98159" lon="6.46788">
        <ele>1632</ele>
        <time>2017-02-26T13:56:20Z</time>
      </trkpt>
      <trkpt lat="44.98188" lon="6.46796">
        <ele>1624</ele>
        <time>2017-02-26T13:56:40Z</time>
      </trkpt>
      <trkpt lat="44.98253" lon="6.46942">
        <ele>1606</ele>
        <time>2017-02-26T13:57:00Z</time>
      </trkpt>
      <trkpt lat="44.98346" lon="6.47021">
        <ele>1591</ele>
        <time>2017-02-26T13:57:20Z</time>
      </trkpt>
      <trkpt lat="44.98293" lon="6.4706">
        <ele>1603</ele>
        <time>2017-02-26T13:57:40Z</time>
      </trkpt>
      <trkpt lat="44.98313" lon="6.47103">
        <ele>1601</ele>
        <time>2017-02-26T13:58:00Z</time>
      </trkpt>
      <trkpt lat="44.9836" lon="6.4706">
        <ele>1588</ele>
        <time>2017-02-26T13:58:20Z</time>
      </trkpt>
      <trkpt lat="44.98351" lon="6.47114">
        <ele>1583</ele>
        <time>2017-02-26T13:58:40Z</time>
      </trkpt>
      <trkpt lat="44.98405" lon="6.472">
        <ele>1578</ele>
        <time>2017-02-26T13:59:00Z</time>
      </trkpt>
      <trkpt lat="44.98454" lon="6.47384">
        <ele>1566</ele>
        <time>2017-02-26T13:59:20Z</time>
      </trkpt>
      <trkpt lat="44.9847" lon="6.47509">
        <ele>1560</ele>
        <time>2017-02-26T13:59:40Z</time>
      </trkpt>
      <trkpt lat="44.98531" lon="6.47644">
        <ele>1546</ele>
        <time>2017-02-26T14:00:00Z</time>
      </trkpt>
      <trkpt lat="44.98557" lon="6.47824">
        <ele>1536</ele>
        <time>2017-02-26T14:00:20Z</time>
      </trkpt>
      <trkpt lat="44.98605" lon="6.47884">
        <ele>1531</ele>
        <time>2017-02-26T14:00:40Z</time>
      </trkpt>
      <trkpt lat="44.98663" lon="6.48077">
        <ele>1520</ele>
        <time>2017-02-26T14:01:00Z</time>
      </trkpt>
      <trkpt lat="44.98703" lon="6.48075">
        <ele>1521</ele>
        <time>2017-02-26T14:01:20Z</time>
      </trkpt>
      <trkpt lat="44.98703" lon="6.48075">
        <ele>1521</ele>
        <time>2017-02-26T14:01:40Z</time>
      </trkpt>
      <trkpt lat="44.98741" lon="6.4812">
        <ele>1522</ele>
        <time>2017-02-26T14:02:00Z</time>
      </trkpt>
      <trkpt lat="44.98742" lon="6.48161">
        <ele>1524</ele>
        <time>2017-02-26T14:02:20Z</time>
      </trkpt>
      <trkpt lat="44.9853" lon="6.48305">
        <ele>1514</ele>
        <time>2017-02-26T14:02:40Z</time>
      </trkpt>
      <trkpt lat="44.98486" lon="6.48339">
        <ele>1511</ele>
        <time>2017-02-26T14:03:00Z</time>
      </trkpt>
      <trkpt lat="44.98402" lon="6.48365">
        <ele>1513</ele>
        <time>2017-02-26T14:03:20Z</time>
      </trkpt>
      <trkpt lat="44.98388" lon="6.48403">
        <ele>1511</ele>
        <time>2017-02-26T14:03:40Z</time>
      </trkpt>
      <trkpt lat="44.98344" lon="6.48444">
        <ele>1509</ele>
        <time>2017-02-26T14:04:00Z</time>
      </trkpt>
      <trkpt lat="44.98325" lon="6.48511">
        <ele>1508</ele>
        <time>2017-02-26T14:04:20Z</time>
      </trkpt>
      <trkpt lat="44.98281" lon="6.48554">
        <ele>1512</ele>
        <time>2017-02-26T14:04:40Z</time>
      </trkpt>
      <trkpt lat="44.98279" lon="6.48618">
        <ele>1507</ele>
        <time>2017-02-26T14:05:00Z</time>
      </trkpt>
      <trkpt lat="44.9822" lon="6.48775">
        <ele>1507</ele>
        <time>2017-02-26T14:05:20Z</time>
      </trkpt>
      <trkpt lat="44.98182" lon="6.48916">
        <ele>1502</ele>
        <time>2017-02-26T14:05:40Z</time>
      </trkpt>
      <trkpt lat="44.98045" lon="6.49021">
        <ele>1497</ele>
        <time>2017-02-26T14:06:00Z</time>
      </trkpt>
      <trkpt lat="44.98032" lon="6.49191">
        <ele>1491</ele>
        <time>2017-02-26T14:06:20Z</time>
      </trkpt>
      <trkpt lat="44.97983" lon="6.49255">
        <ele>1490</ele>
        <time>2017-02-26T14:06:40Z</time>
      </trkpt>
      <trkpt lat="44.97827" lon="6.4962">
        <ele>1484</ele>
        <time>2017-02-26T14:07:00Z</time>
      </trkpt>
      <trkpt lat="44.97827" lon="6.4962">
        <ele>1484</ele>
        <time>2017-02-26T14:07:20Z</time>
      </trkpt>
      <trkpt lat="44.97827" lon="6.4962">
        <ele>1484</ele>
        <time>2017-02-26T14:07:40Z</time>
      </trkpt>
      <trkpt lat="44.97709" lon="6.49655">
        <ele>1484</ele>
        <time>2017-02-26T14:08:00Z</time>
      </trkpt>
      <trkpt lat="44.97638" lon="6.49736">
        <ele>1485</ele>
        <time>2017-02-26T14:08:20Z</time>
      </trkpt>
      <trkpt lat="44.97586" lon="6.49929">
        <ele>1481</ele>
        <time>2017-02-26T14:08:40Z</time>
      </trkpt>
      <trkpt lat="44.97581" lon="6.50039">
        <ele>1480</ele>
        <time>2017-02-26T14:09:00Z</time>
      </trkpt>
      <trkpt lat="44.97512" lon="6.50174">
        <ele>1478</ele>
        <time>2017-02-26T14:09:20Z</time>
      </trkpt>
      <trkpt lat="44.97454" lon="6.5026">
        <ele>1476</ele>
        <time>2017-02-26T14:09:40Z</time>
      </trkpt>
      <trkpt lat="44.97402" lon="6.50371">
        <ele>1474</ele>
        <time>2017-02-26T14:10:00Z</time>
      </trkpt>
      <trkpt lat="44.97355" lon="6.50547">
        <ele>1469</ele>
        <time>2017-02-26T14:10:20Z</time>
      </trkpt>
      <trkpt lat="44.97337" lon="6.50627">
        <ele>1467</ele>
        <time>2017-02-26T14:10:40Z</time>
      </trkpt>
      <trkpt lat="44.97256" lon="6.50535">
        <ele>1471</ele>
        <time>2017-02-26T14:11:00Z</time>
      </trkpt>
      <trkpt lat="44.97243" lon="6.50471">
        <ele>1474</ele>
        <time>2017-02-26T14:11:20Z</time>
      </trkpt>
      <trkpt lat="44.97206" lon="6.50406">
        <ele>1478</ele>
        <time>2017-02-26T14:11:40Z</time>
      </trkpt>
      <trkpt lat="44.97193" lon="6.50353">
        <ele>1479</ele>
        <time>2017-02-26T14:12:00Z</time>
      </trkpt>
      <trkpt lat="44.97164" lon="6.50312">
        <ele>1482</ele>
        <time>2017-02-26T14:12:20Z</time>
      </trkpt>
      <trkpt lat="44.97152" lon="6.50245">
        <ele>1486</ele>
        <time>2017-02-26T14:12:40Z</time>
      </trkpt>
      <trkpt lat="44.97124" lon="6.50207">
        <ele>1489</ele>
        <time>2017-02-26T14:13:00Z</time>
      </trkpt>
      <trkpt lat="44.9712" lon="6.50147">
        <ele>1495</ele>
        <time>2017-02-26T14:13:20Z</time>
      </trkpt>
      <trkpt lat="44.97091" lon="6.50097">
        <ele>1498</ele>
        <time>2017-02-26T14:13:40Z</time>
      </trkpt>
      <trkpt lat="44.97085" lon="6.50061">
        <ele>1502</ele>
        <time>2017-02-26T14:14:00Z</time>
      </trkpt>
      <trkpt lat="44.9707" lon="6.50035">
        <ele>1516</ele>
        <time>2017-02-26T14:14:20Z</time>
      </trkpt>
      <trkpt lat="44.97064" lon="6.49968">
        <ele>1523</ele>
        <time>2017-02-26T14:14:40Z</time>
      </trkpt>
      <trkpt lat="44.97035" lon="6.49975">
        <ele>1530</ele>
        <time>2017-02-26T14:15:00Z</time>
      </trkpt>
      <trkpt lat="44.97017" lon="6.50033">
        <ele>1527</ele>
        <time>2017-02-26T14:15:20Z</time>
      </trkpt>
      <trkpt lat="44.97008" lon="6.50108">
        <ele>1520</ele>
        <time>2017-02-26T14:15:40Z</time>
      </trkpt>
      <trkpt lat="44.96968" lon="6.50157">
        <ele>1532</ele>
        <time>2017-02-26T14:16:00Z</time>
      </trkpt>
      <trkpt lat="44.9696" lon="6.50059">
        <ele>1548</ele>
        <time>2017-02-26T14:16:20Z</time>
      </trkpt>
      <trkpt lat="44.96957" lon="6.49949">
        <ele>1563</ele>
        <time>2017-02-26T14:16:40Z</time>
      </trkpt>
      <trkpt lat="44.96939" lon="6.49844">
        <ele>1577</ele>
        <time>2017-02-26T14:17:00Z</time>
      </trkpt>
      <trkpt lat="44.96885" lon="6.49786">
        <ele>1604</ele>
        <time>2017-02-26T14:17:20Z</time>
      </trkpt>
      <trkpt lat="44.96833" lon="6.49833">
        <ele>1610</ele>
        <time>2017-02-26T14:17:40Z</time>
      </trkpt>
      <trkpt lat="44.96809" lon="6.49893">
        <ele>1615</ele>
        <time>2017-02-26T14:18:00Z</time>
      </trkpt>
      <trkpt lat="44.96765" lon="6.49889">
        <ele>1623</ele>
        <time>2017-02-26T14:18:20Z</time>
      </trkpt>
      <trkpt lat="44.96724" lon="6.49831">
        <ele>1654</ele>
        <time>2017-02-26T14:18:40Z</time>
      </trkpt>
      <trkpt lat="44.96702" lon="6.49741">
        <ele>1669</ele>
        <time>2017-02-26T14:19:00Z</time>
      </trkpt>
      <trkpt lat="44.96752" lon="6.49672">
        <ele>1659</ele>
        <time>2017-02-26T14:19:20Z</time>
      </trkpt>
      <trkpt lat="44.96818" lon="6.49653">
        <ele>1654</ele>
        <time>2017-02-26T14:19:40Z</time>
      </trkpt>
      <trkpt lat="44.96833" lon="6.49511">
        <ele>1653</ele>
        <time>2017-02-26T14:20:00Z</time>
      </trkpt>
      <trkpt lat="44.96819" lon="6.49488">
        <ele>1647</ele>
        <time>2017-02-26T14:20:20Z</time>
      </trkpt>
      <trkpt lat="44.96777" lon="6.49539">
        <ele>1663</ele>
        <time>2017-02-26T14:20:40Z</time>
      </trkpt>
      <trkpt lat="44.96661" lon="6.4958">
        <ele>1697</ele>
        <time>2017-02-26T14:21:00Z</time>
      </trkpt>
      <trkpt lat="44.96608" lon="6.49651">
        <ele>1712</ele>
        <time>2017-02-26T14:21:20Z</time>
      </trkpt>
      <trkpt lat="44.96589" lon="6.49608">
        <ele>1714</ele>
        <time>2017-02-26T14:21:40Z</time>
      </trkpt>
      <trkpt lat="44.96563" lon="6.49604">
        <ele>1736</ele>
        <time>2017-02-26T14:22:00Z</time>
      </trkpt>
      <trkpt lat="44.96545" lon="6.49565">
        <ele>1732</ele>
        <time>2017-02-26T14:22:20Z</time>
      </trkpt>
      <trkpt lat="44.96349" lon="6.49518">
        <ele>1796</ele>
        <time>2017-02-26T14:22:40Z</time>
      </trkpt>
      <trkpt lat="44.96299" lon="6.49468">
        <ele>1793</ele>
        <time>2017-02-26T14:23:00Z</time>
      </trkpt>
      <trkpt lat="44.96241" lon="6.49451">
        <ele>1814</ele>
        <time>2017-02-26T14:23:20Z</time>
      </trkpt>
      <trkpt lat="44.96163" lon="6.49374">
        <ele>1814</ele>
        <time>2017-02-26T14:23:40Z</time>
      </trkpt>
      <trkpt lat="44.96095" lon="6.49378">
        <ele>1821</ele>
        <time>2017-02-26T14:24:00Z</time>
      </trkpt>
      <trkpt lat="44.96015" lon="6.49421">
        <ele>1866</ele>
        <time>2017-02-26T14:24:20Z</time>
      </trkpt>
      <trkpt lat="44.95955" lon="6.49426">
        <ele>1888</ele>
        <time>2017-02-26T14:24:40Z</time>
      </trkpt>
      <trkpt lat="44.95682" lon="6.49599">
        <ele>1986</ele>
        <time>2017-02-26T14:25:00Z</time>
      </trkpt>
      <trkpt lat="44.95594" lon="6.4958">
        <ele>1993</ele>
        <time>2017-02-26T14:25:20Z</time>
      </trkpt>
      <trkpt lat="44.95535" lon="6.4958">
        <ele>2007</ele>
        <time>2017-02-26T14:25:40Z</time>
      </trkpt>
      <trkpt lat="44.95564" lon="6.49503">
        <ele>1999</ele>
        <time>2017-02-26T14:26:00Z</time>
      </trkpt>
      <trkpt lat="44.95486" lon="6.49524">
        <ele>2023</ele>
        <time>2017-02-26T14:26:20Z</time>
      </trkpt>
      <trkpt lat="44.9531" lon="6.49636">
        <ele>2065</ele>
        <time>2017-02-26T14:26:40Z</time>
      </trkpt>
      <trkpt lat="44.95132" lon="6.49715">
        <ele>2091</ele>
        <time>2017-02-26T14:27:00Z</time>
      </trkpt>
      <trkpt lat="44.95037" lon="6.49797">
        <ele>2110</ele>
        <time>2017-02-26T14:27:20Z</time>
      </trkpt>
      <trkpt lat="44.94991" lon="6.49805">
        <ele>2117</ele>
        <time>2017-02-26T14:27:40Z</time>
      </trkpt>
      <trkpt lat="44.94927" lon="6.49876">
        <ele>2137</ele>
        <time>2017-02-26T14:28:00Z</time>
      </trkpt>
      <trkpt lat="44.9488" lon="6.49966">
        <ele>2158</ele>
        <time>2017-02-26T14:28:20Z</time>
      </trkpt>
      <trkpt lat="44.94859" lon="6.49986">
        <ele>2159</ele>
        <time>2017-02-26T14:28:40Z</time>
      </trkpt>
      <trkpt lat="44.94856" lon="6.50003">
        <ele>2169</ele>
        <time>2017-02-26T14:29:00Z</time>
      </trkpt>
      <trkpt lat="44.9488" lon="6.5002">
        <ele>2171</ele>
        <time>2017-02-26T14:29:20Z</time>
      </trkpt>
      <trkpt lat="44.94851" lon="6.50069">
        <ele>2177</ele>
        <time>2017-02-26T14:29:40Z</time>
      </trkpt>
      <trkpt lat="44.94821" lon="6.50067">
        <ele>2182</ele>
        <time>2017-02-26T14:30:00Z</time>
      </trkpt>
      <trkpt lat="44.94704" lon="6.50155">
        <ele>2214</ele>
        <time>2017-02-26T14:30:20Z</time>
      </trkpt>
      <trkpt lat="44.94662" lon="6.50151">
        <ele>2227</ele>
        <time>2017-02-26T14:30:40Z</time>
      </trkpt>
      <trkpt lat="44.94563" lon="6.50189">
        <ele>2244</ele>
        <time>2017-02-26T14:31:00Z</time>
      </trkpt>
      <trkpt lat="44.94458" lon="6.50179">
        <ele>2260</ele>
        <time>2017-02-26T14:31:20Z</time>
      </trkpt>
      <trkpt lat="44.94431" lon="6.50162">
        <ele>2259</ele>
        <time>2017-02-26T14:31:40Z</time>
      </trkpt>
      <trkpt lat="44.94183" lon="6.50202">
        <ele>2307</ele>
        <time>2017-02-26T14:32:00Z</time>
      </trkpt>
      <trkpt lat="44.94183" lon="6.50202">
        <ele>2307</ele>
        <time>2017-02-26T14:32:20Z</time>
      </trkpt>
      <trkpt lat="44.94127" lon="6.50223">
        <ele>2324</ele>
        <time>2017-02-26T14:32:40Z</time>
      </trkpt>
      <trkpt lat="44.942" lon="6.50341">
        <ele>2333</ele>
        <time>2017-02-26T14:33:00Z</time>
      </trkpt>
      <trkpt lat="44.94077" lon="6.50332">
        <ele>2349</ele>
        <time>2017-02-26T14:33:20Z</time>
      </trkpt>
      <trkpt lat="44.94009" lon="6.50278">
        <ele>2353</ele>
        <time>2017-02-26T14:33:40Z</time>
      </trkpt>
      <trkpt lat="44.93759" lon="6.50347">
        <ele>2399</ele>
        <time>2017-02-26T14:34:00Z</time>
      </trkpt>
      <trkpt lat="44.93687" lon="6.50405">
        <ele>2409</ele>
        <time>2017-02-26T14:34:20Z</time>
      </trkpt>
      <trkpt lat="44.93527" lon="6.50381">
        <ele>2429</ele>
        <time>2017-02-26T14:34:40Z</time>
      </trkpt>
      <trkpt lat="44.93418" lon="6.50493">
        <ele>2417</ele>
        <time>2017-02-26T14:35:00Z</time>
      </trkpt>
      <trkpt lat="44.9343" lon="6.50517">
        <ele>2423</ele>
        <time>2017-02-26T14:35:20Z</time>
      </trkpt>
      <trkpt lat="44.93378" lon="6.50545">
        <ele>2407</ele>
        <time>2017-02-26T14:35:40Z</time>
      </trkpt>
      <trkpt lat="44.93292" lon="6.50658">
        <ele>2393</ele>
        <time>2017-02-26T14:36:00Z</time>
      </trkpt>
      <trkpt lat="44.93246" lon="6.50684">
        <ele>2385</ele>
        <time>2017-02-26T14:36:20Z</time>
      </trkpt>
      <trkpt lat="44.93208" lon="6.50731">
        <ele>2387</ele>
        <time>2017-02-26T14:36:40Z</time>
      </trkpt>
      <trkpt lat="44.93047" lon="6.50815">
        <ele>2388</ele>
        <time>2017-02-26T14:37:00Z</time>
      </trkpt>
      <trkpt lat="44.9278" lon="6.50826">
        <ele>2369</ele>
        <time>2017-02-26T14:37:20Z</time>
      </trkpt>
      <trkpt lat="44.92594" lon="6.50776">
        <ele>2357</ele>
        <time>2017-02-26T14:37:40Z</time>
      </trkpt>
      <trkpt lat="44.92575" lon="6.5083">
        <ele>2352</ele>
        <time>2017-02-26T14:38:00Z</time>
      </trkpt>
      <trkpt lat="44.92581" lon="6.50873">
        <ele>2356</ele>
        <time>2017-02-26T14:38:20Z</time>
      </trkpt>
      <trkpt lat="44.92527" lon="6.50905">
        <ele>2353</ele>
        <time>2017-02-26T14:38:40Z</time>
      </trkpt>
      <trkpt lat="44.92486" lon="6.50862">
        <ele>2332</ele>
        <time>2017-02-26T14:39:00Z</time>
      </trkpt>
      <trkpt lat="44.92451" lon="6.50899">
        <ele>2330</ele>
        <time>2017-02-26T14:39:20Z</time>
      </trkpt>
      <trkpt lat="44.92394" lon="6.50907">
        <ele>2315</ele>
        <time>2017-02-26T14:39:40Z</time>
      </trkpt>
      <trkpt lat="44.9231" lon="6.50879">
        <ele>2299</ele>
        <time>2017-02-26T14:40:00Z</time>
      </trkpt>
      <trkpt lat="44.92392" lon="6.50815">
        <ele>2291</ele>
        <time>2017-02-26T14:40:20Z</time>
      </trkpt>
      <trkpt lat="44.92406" lon="6.50751">
        <ele>2293</ele>
        <time>2017-02-26T14:40:40Z</time>
      </trkpt>
      <trkpt lat="44.9235" lon="6.50791">
        <ele>2282</ele>
        <time>2017-02-26T14:41:00Z</time>
      </trkpt>
      <trkpt lat="44.9228" lon="6.50759">
        <ele>2263</ele>
        <time>2017-02-26T14:41:20Z</time>
      </trkpt>
      <trkpt lat="44.92338" lon="6.50721">
        <ele>2266</ele>
        <time>2017-02-26T14:41:40Z</time>
      </trkpt>
      <trkpt lat="44.92213" lon="6.50665">
        <ele>2222</ele>
        <time>2017-02-26T14:42:00Z</time>
      </trkpt>
      <trkpt lat="44.92192" lon="6.50611">
        <ele>2215</ele>
        <time>2017-02-26T14:42:20Z</time>
      </trkpt>
      <trkpt lat="44.92236" lon="6.50615">
        <ele>2214</ele>
        <time>2017-02-26T14:42:40Z</time>
      </trkpt>
      <trkpt lat="44.92304" lon="6.50587">
        <ele>2212</ele>
        <time>2017-02-26T14:43:00Z</time>
      </trkpt>
      <trkpt lat="44.92245" lon="6.50506">
        <ele>2174</ele>
        <time>2017-02-26T14:43:20Z</time>
      </trkpt>
      <trkpt lat="44.9216" lon="6.50502">
        <ele>2189</ele>
        <time>2017-02-26T14:43:40Z</time>
      </trkpt>
      <trkpt lat="44.92252" lon="6.50416">
        <ele>2140</ele>
        <time>2017-02-26T14:44:00Z</time>
      </trkpt>
      <trkpt lat="44.92319" lon="6.50412">
        <ele>2136</ele>
        <time>2017-02-26T14:44:20Z</time>
      </trkpt>
      <trkpt lat="44.92262" lon="6.50366">
        <ele>2129</ele>
        <time>2017-02-26T14:44:40Z</time>
      </trkpt>
      <trkpt lat="44.92192" lon="6.50349">
        <ele>2124</ele>
        <time>2017-02-26T14:45:00Z</time>
      </trkpt>
      <trkpt lat="44.92035" lon="6.50218">
        <ele>2074</ele>
        <time>2017-02-26T14:45:20Z</time>
      </trkpt>
      <trkpt lat="44.91961" lon="6.50206">
        <ele>2064</ele>
        <time>2017-02-26T14:45:40Z</time>
      </trkpt>
      <trkpt lat="44.91731" lon="6.50268">
        <ele>2035</ele>
        <time>2017-02-26T14:46:00Z</time>
      </trkpt>
      <trkpt lat="44.91757" lon="6.50227">
        <ele>2027</ele>
        <time>2017-02-26T14:46:20Z</time>
      </trkpt>
      <trkpt lat="44.91824" lon="6.50178">
        <ele>2025</ele>
        <time>2017-02-26T14:46:40Z</time>
      </trkpt>
      <trkpt lat="44.91689" lon="6.50201">
        <ele>1998</ele>
        <time>2017-02-26T14:47:00Z</time>
      </trkpt>
      <trkpt lat="44.91731" lon="6.50135">
        <ele>1972</ele>
        <time>2017-02-26T14:47:20Z</time>
      </trkpt>
      <trkpt lat="44.91789" lon="6.5007">
        <ele>1963</ele>
        <time>2017-02-26T14:47:40Z</time>
      </trkpt>
      <trkpt lat="44.91484" lon="6.50072">
        <ele>1880</ele>
        <time>2017-02-26T14:48:00Z</time>
      </trkpt>
      <trkpt lat="44.91444" lon="6.50051">
        <ele>1868</ele>
        <time>2017-02-26T14:48:20Z</time>
      </trkpt>
      <trkpt lat="44.9133" lon="6.50062">
        <ele>1850</ele>
        <time>2017-02-26T14:48:40Z</time>
      </trkpt>
      <trkpt lat="44.91128" lon="6.49997">
        <ele>1800</ele>
        <time>2017-02-26T14:49:00Z</time>
      </trkpt>
      <trkpt lat="44.91128" lon="6.49995">
        <ele>1800</ele>
        <time>2017-02-26T14:49:20Z</time>
      </trkpt>
      <trkpt lat="44.90973" lon="6.49905">
        <ele>1781</ele>
        <time>2017-02-26T14:49:40Z</time>
      </trkpt>
      <trkpt lat="44.90944" lon="6.4986">
        <ele>1777</ele>
        <time>2017-02-26T14:50:00Z</time>
      </trkpt>
      <trkpt lat="44.90929" lon="6.49723">
        <ele>1755</ele>
        <time>2017-02-26T14:50:20Z</time>
      </trkpt>
      <trkpt lat="44.90868" lon="6.4965">
        <ele>1747</ele>
        <time>2017-02-26T14:50:40Z</time>
      </trkpt>
      <trkpt lat="44.90719" lon="6.49545">
        <ele>1740</ele>
        <time>2017-02-26T14:51:00Z</time>
      </trkpt>
      <trkpt lat="44.9062" lon="6.49534">
        <ele>1737</ele>
        <time>2017-02-26T14:51:20Z</time>
      </trkpt>
      <trkpt lat="44.90576" lon="6.49553">
        <ele>1739</ele>
        <time>2017-02-26T14:51:40Z</time>
      </trkpt>
      <trkpt lat="44.90503" lon="6.49536">
        <ele>1737</ele>
        <time>2017-02-26T14:52:00Z</time>
      </trkpt>
      <trkpt lat="44.90434" lon="6.49536">
        <ele>1737</ele>
        <time>2017-02-26T14:52:20Z</time>
      </trkpt>
      <trkpt lat="44.90359" lon="6.49467">
        <ele>1731</ele>
        <time>2017-02-26T14:52:40Z</time>
      </trkpt>
      <trkpt lat="44.90294" lon="6.49448">
        <ele>1742</ele>
        <time>2017-02-26T14:53:00Z</time>
      </trkpt>
      <trkpt lat="44.90221" lon="6.49343">
        <ele>1726</ele>
        <time>2017-02-26T14:53:20Z</time>
      </trkpt>
      <trkpt lat="44.90149" lon="6.49302">
        <ele>1721</ele>
        <time>2017-02-26T14:53:40Z</time>
      </trkpt>
      <trkpt lat="44.90005" lon="6.4927">
        <ele>1722</ele>
        <time>2017-02-26T14:54:00Z</time>
      </trkpt>
      <trkpt lat="44.89924" lon="6.49233">
        <ele>1718</ele>
        <time>2017-02-26T14:54:20Z</time>
      </trkpt>
      <trkpt lat="44.89788" lon="6.49212">
        <ele>1715</ele>
        <time>2017-02-26T14:54:40Z</time>
      </trkpt>
      <trkpt lat="44.89715" lon="6.49182">
        <ele>1715</ele>
        <time>2017-02-26T14:55:00Z</time>
      </trkpt>
      <trkpt lat="44.89611" lon="6.49161">
        <ele>1714</ele>
        <time>2017-02-26T14:55:20Z</time>
      </trkpt>
      <trkpt lat="44.89552" lon="6.4912">
        <ele>1714</ele>
        <time>2017-02-26T14:55:40Z</time>
      </trkpt>
      <trkpt lat="44.893" lon="6.49092">
        <ele>1712</ele>
        <time>2017-02-26T14:56:00Z</time>
      </trkpt>
      <trkpt lat="44.89239" lon="6.49045">
        <ele>1691</ele>
        <time>2017-02-26T14:56:20Z</time>
      </trkpt>
      <trkpt lat="44.89177" lon="6.49049">
        <ele>1686</ele>
        <time>2017-02-26T14:56:40Z</time>
      </trkpt>
      <trkpt lat="44.89107" lon="6.49094">
        <ele>1685</ele>
        <time>2017-02-26T14:57:00Z</time>
      </trkpt>
      <trkpt lat="44.88926" lon="6.49073">
        <ele>1653</ele>
        <time>2017-02-26T14:57:20Z</time>
      </trkpt>
      <trkpt lat="44.88796" lon="6.49032">
        <ele>1641</ele>
        <time>2017-02-26T14:57:40Z</time>
      </trkpt>
      <trkpt lat="44.88679" lon="6.48982">
        <ele>1619</ele>
        <time>2017-02-26T14:58:00Z</time>
      </trkpt>
      <trkpt lat="44.88526" lon="6.48955">
        <ele>1609</ele>
        <time>2017-02-26T14:58:20Z</time>
      </trkpt>
      <trkpt lat="44.88387" lon="6.48862">
        <ele>1574</ele>
        <time>2017-02-26T14:58:40Z</time>
      </trkpt>
      <trkpt lat="44.88387" lon="6.48862">
        <ele>1574</ele>
        <time>2017-02-26T14:59:00Z</time>
      </trkpt>
      <trkpt lat="44.88342" lon="6.48884">
        <ele>1576</ele>
        <time>2017-02-26T14:59:20Z</time>
      </trkpt>
      <trkpt lat="44.88187" lon="6.4886">
        <ele>1555</ele>
        <time>2017-02-26T14:59:40Z</time>
      </trkpt>
      <trkpt lat="44.88061" lon="6.4889">
        <ele>1540</ele>
        <time>2017-02-26T15:00:00Z</time>
      </trkpt>
      <trkpt lat="44.87912" lon="6.48946">
        <ele>1507</ele>
        <time>2017-02-26T15:00:20Z</time>
      </trkpt>
      <trkpt lat="44.87846" lon="6.49113">
        <ele>1536</ele>
        <time>2017-02-26T15:00:40Z</time>
      </trkpt>
      <trkpt lat="44.87659" lon="6.49225">
        <ele>1464</ele>
        <time>2017-02-26T15:01:00Z</time>
      </trkpt>
      <trkpt lat="44.87591" lon="6.49369">
        <ele>1485</ele>
        <time>2017-02-26T15:01:20Z</time>
      </trkpt>
      <trkpt lat="44.87541" lon="6.49384">
        <ele>1465</ele>
        <time>2017-02-26T15:01:40Z</time>
      </trkpt>
      <trkpt lat="44.87434" lon="6.49332">
        <ele>1418</ele>
        <time>2017-02-26T15:02:00Z</time>
      </trkpt>
      <trkpt lat="44.8737" lon="6.49433">
        <ele>1454</ele>
        <time>2017-02-26T15:02:20Z</time>
      </trkpt>
      <trkpt lat="44.87211" lon="6.49311">
        <ele>1413</ele>
        <time>2017-02-26T15:02:40Z</time>
      </trkpt>
      <trkpt lat="44.87145" lon="6.49321">
        <ele>1414</ele>
        <time>2017-02-26T15:03:00Z</time>
      </trkpt>
      <trkpt lat="44.87065" lon="6.49315">
        <ele>1409</ele>
        <time>2017-02-26T15:03:20Z</time>
      </trkpt>
      <trkpt lat="44.87065" lon="6.49315">
        <ele>1409</ele>
        <time>2017-02-26T15:03:40Z</time>
      </trkpt>
      <trkpt lat="44.86998" lon="6.49332">
        <ele>1415</ele>
        <time>2017-02-26T15:04:00Z</time>
      </trkpt>
      <trkpt lat="44.86853" lon="6.49313">
        <ele>1401</ele>
        <time>2017-02-26T15:04:20Z</time>
      </trkpt>
      <trkpt lat="44.86783" lon="6.49369">
        <ele>1397</ele>
        <time>2017-02-26T15:04:40Z</time>
      </trkpt>
      <trkpt lat="44.86753" lon="6.49429">
        <ele>1404</ele>
        <time>2017-02-26T15:05:00Z</time>
      </trkpt>
      <trkpt lat="44.86656" lon="6.49517">
        <ele>1391</ele>
        <time>2017-02-26T15:05:20Z</time>
      </trkpt>
      <trkpt lat="44.86659" lon="6.49487">
        <ele>1380</ele>
        <time>2017-02-26T15:05:40Z</time>
      </trkpt>
      <trkpt lat="44.86733" lon="6.49401">
        <ele>1380</ele>
        <time>2017-02-26T15:06:00Z</time>
      </trkpt>
      <trkpt lat="44.8673" lon="6.49364">
        <ele>1373</ele>
        <time>2017-02-26T15:06:20Z</time>
      </trkpt>
      <trkpt lat="44.86695" lon="6.4942">
        <ele>1383</ele>
        <time>2017-02-26T15:06:40Z</time>
      </trkpt>
      <trkpt lat="44.86618" lon="6.49455">
        <ele>1372</ele>
        <time>2017-02-26T15:07:00Z</time>
      </trkpt>
      <trkpt lat="44.865" lon="6.49369">
        <ele>1349</ele>
        <time>2017-02-26T15:07:20Z</time>
      </trkpt>
      <trkpt lat="44.86464" lon="6.49324">
        <ele>1331</ele>
        <time>2017-02-26T15:07:40Z</time>
      </trkpt>
      <trkpt lat="44.86373" lon="6.49358">
        <ele>1332</ele>
        <time>2017-02-26T15:08:00Z</time>
      </trkpt>
      <trkpt lat="44.86257" lon="6.49332">
        <ele>1307</ele>
        <time>2017-02-26T15:08:20Z</time>
      </trkpt>
      <trkpt lat="44.86044" lon="6.49384">
        <ele>1289</ele>
        <time>2017-02-26T15:08:40Z</time>
      </trkpt>
      <trkpt lat="44.86029" lon="6.49343">
        <ele>1285</ele>
        <time>2017-02-26T15:09:00Z</time>
      </trkpt>
      <trkpt lat="44.85964" lon="6.49276">
        <ele>1274</ele>
        <time>2017-02-26T15:09:20Z</time>
      </trkpt>
      <trkpt lat="44.85938" lon="6.49165">
        <ele>1259</ele>
        <time>2017-02-26T15:09:40Z</time>
      </trkpt>
      <trkpt lat="44.85898" lon="6.49167">
        <ele>1261</ele>
        <time>2017-02-26T15:10:00Z</time>
      </trkpt>
      <trkpt lat="44.85849" lon="6.49193">
        <ele>1260</ele>
        <time>2017-02-26T15:10:20Z</time>
      </trkpt>
      <trkpt lat="44.85679" lon="6.49216">
        <ele>1243</ele>
        <time>2017-02-26T15:10:40Z</time>
      </trkpt>
      <trkpt lat="44.85627" lon="6.49188">
        <ele>1235</ele>
        <time>2017-02-26T15:11:00Z</time>
      </trkpt>
      <trkpt lat="44.85536" lon="6.49253">
        <ele>1234</ele>
        <time>2017-02-26T15:11:20Z</time>
      </trkpt>
      <trkpt lat="44.85452" lon="6.4927">
        <ele>1225</ele>
        <time>2017-02-26T15:11:40Z</time>
      </trkpt>
      <trkpt lat="44.85395" lon="6.49309">
        <ele>1222</ele>
        <time>2017-02-26T15:12:00Z</time>
      </trkpt>
      <trkpt lat="44.85252" lon="6.49199">
        <ele>1209</ele>
        <time>2017-02-26T15:12:20Z</time>
      </trkpt>
      <trkpt lat="44.84698" lon="6.48967">
        <ele>1168</ele>
        <time>2017-02-26T15:12:40Z</time>
      </trkpt>
      <trkpt lat="44.84639" lon="6.48974">
        <ele>1166</ele>
        <time>2017-02-26T15:13:00Z</time>
      </trkpt>
      <trkpt lat="44.8462" lon="6.48946">
        <ele>1165</ele>
        <time>2017-02-26T15:13:20Z</time>
      </trkpt>
      <trkpt lat="44.84637" lon="6.48804">
        <ele>1170</ele>
        <time>2017-02-26T15:13:40Z</time>
      </trkpt>
      <trkpt lat="44.84509" lon="6.48624">
        <ele>1179</ele>
        <time>2017-02-26T15:14:00Z</time>
      </trkpt>
      <trkpt lat="44.84467" lon="6.4856">
        <ele>1176</ele>
        <time>2017-02-26T15:14:20Z</time>
      </trkpt>
      <trkpt lat="44.84416" lon="6.48448">
        <ele>1174</ele>
        <time>2017-02-26T15:14:40Z</time>
      </trkpt>
      <trkpt lat="44.84346" lon="6.48504">
        <ele>1166</ele>
        <time>2017-02-26T15:15:00Z</time>
      </trkpt>
      <trkpt lat="44.84248" lon="6.48465">
        <ele>1164</ele>
        <time>2017-02-26T15:15:20Z</time>
      </trkpt>
      <trkpt lat="44.84248" lon="6.48465">
        <ele>1164</ele>
        <time>2017-02-26T15:15:40Z</time>
      </trkpt>
      <trkpt lat="44.84236" lon="6.48437">
        <ele>1164</ele>
        <time>2017-02-26T15:16:00Z</time>
      </trkpt>
      <trkpt lat="44.84187" lon="6.48388">
        <ele>1166</ele>
        <time>2017-02-26T15:16:20Z</time>
      </trkpt>
      <trkpt lat="44.84145" lon="6.48302">
        <ele>1170</ele>
        <time>2017-02-26T15:16:40Z</time>
      </trkpt>
      <trkpt lat="44.84086" lon="6.4827">
        <ele>1170</ele>
        <time>2017-02-26T15:17:00Z</time>
      </trkpt>
      <trkpt lat="44.84102" lon="6.48236">
        <ele>1173</ele>
        <time>2017-02-26T15:17:20Z</time>
      </trkpt>
      <trkpt lat="44.84032" lon="6.4807">
        <ele>1183</ele>
        <time>2017-02-26T15:17:40Z</time>
      </trkpt>
      <trkpt lat="44.84017" lon="6.4797">
        <ele>1184</ele>
        <time>2017-02-26T15:18:00Z</time>
      </trkpt>
      <trkpt lat="44.84023" lon="6.47852">
        <ele>1189</ele>
        <time>2017-02-26T15:18:20Z</time>
      </trkpt>
      <trkpt lat="44.83956" lon="6.47665">
        <ele>1195</ele>
        <time>2017-02-26T15:18:40Z</time>
      </trkpt>
      <trkpt lat="44.83939" lon="6.47523">
        <ele>1199</ele>
        <time>2017-02-26T15:19:00Z</time>
      </trkpt>
      <trkpt lat="44.83897" lon="6.47523">
        <ele>1200</ele>
        <time>2017-02-26T15:19:20Z</time>
      </trkpt>
      <trkpt lat="44.83895" lon="6.4718">
        <ele>1224</ele>
        <time>2017-02-26T15:19:40Z</time>
      </trkpt>
      <trkpt lat="44.83921" lon="6.47105">
        <ele>1206</ele>
        <time>2017-02-26T15:20:00Z</time>
      </trkpt>
      <trkpt lat="44.83906" lon="6.47049">
        <ele>1218</ele>
        <time>2017-02-26T15:20:20Z</time>
      </trkpt>
      <trkpt lat="44.83908" lon="6.46961">
        <ele>1216</ele>
        <time>2017-02-26T15:20:40Z</time>
      </trkpt>
      <trkpt lat="44.83885" lon="6.46918">
        <ele>1220</ele>
        <time>2017-02-26T15:21:00Z</time>
      </trkpt>
      <trkpt lat="44.83885" lon="6.46832">
        <ele>1215</ele>
        <time>2017-02-26T15:21:20Z</time>
      </trkpt>
      <trkpt lat="44.83842" lon="6.46676">
        <ele>1214</ele>
        <time>2017-02-26T15:21:40Z</time>
      </trkpt>
      <trkpt lat="44.83803" lon="6.46626">
        <ele>1228</ele>
        <time>2017-02-26T15:22:00Z</time>
      </trkpt>
      <trkpt lat="44.83783" lon="6.46538">
        <ele>1233</ele>
        <time>2017-02-26T15:22:20Z</time>
      </trkpt>
      <trkpt lat="44.83862" lon="6.46343">
        <ele>1234</ele>
        <time>2017-02-26T15:22:40Z</time>
      </trkpt>
      <trkpt lat="44.83877" lon="6.46219">
        <ele>1237</ele>
        <time>2017-02-26T15:23:00Z</time>
      </trkpt>
      <trkpt lat="44.83904" lon="6.4612">
        <ele>1235</ele>
        <time>2017-02-26T15:23:20Z</time>
      </trkpt>
      <trkpt lat="44.83888" lon="6.46071">
        <ele>1239</ele>
        <time>2017-02-26T15:23:40Z</time>
      </trkpt>
      <trkpt lat="44.83921" lon="6.45878">
        <ele>1231</ele>
        <time>2017-02-26T15:24:00Z</time>
      </trkpt>
      <trkpt lat="44.83915" lon="6.45832">
        <ele>1235</ele>
        <time>2017-02-26T15:24:20Z</time>
      </trkpt>
      <trkpt lat="44.83932" lon="6.45751">
        <ele>1238</ele>
        <time>2017-02-26T15:24:40Z</time>
      </trkpt>
      <trkpt lat="44.83891" lon="6.45538">
        <ele>1251</ele>
        <time>2017-02-26T15:25:00Z</time>
      </trkpt>
      <trkpt lat="44.83911" lon="6.45487">
        <ele>1248</ele>
        <time>2017-02-26T15:25:20Z</time>
      </trkpt>
      <trkpt lat="44.83982" lon="6.45551">
        <ele>1250</ele>
        <time>2017-02-26T15:25:40Z</time>
      </trkpt>
      <trkpt lat="44.84017" lon="6.45412">
        <ele>1264</ele>
        <time>2017-02-26T15:26:00Z</time>
      </trkpt>
      <trkpt lat="44.8399" lon="6.45341">
        <ele>1253</ele>
        <time>2017-02-26T15:26:20Z</time>
      </trkpt>
      <trkpt lat="44.83978" lon="6.45219">
        <ele>1265</ele>
        <time>2017-02-26T15:26:40Z</time>
      </trkpt>
      <trkpt lat="44.83978" lon="6.45103">
        <ele>1270</ele>
        <time>2017-02-26T15:27:00Z</time>
      </trkpt>
      <trkpt lat="44.83879" lon="6.44818">
        <ele>1277</ele>
        <time>2017-02-26T15:27:20Z</time>
      </trkpt>
      <trkpt lat="44.83888" lon="6.44618">
        <ele>1289</ele>
        <time>2017-02-26T15:27:40Z</time>
      </trkpt>
      <trkpt lat="44.83874" lon="6.44498">
        <ele>1307</ele>
        <time>2017-02-26T15:28:00Z</time>
      </trkpt>
      <trkpt lat="44.83796" lon="6.4435">
        <ele>1304</ele>
        <time>2017-02-26T15:28:20Z</time>
      </trkpt>
      <trkpt lat="44.83766" lon="6.44137">
        <ele>1343</ele>
        <time>2017-02-26T15:28:40Z</time>
      </trkpt>
      <trkpt lat="44.83733" lon="6.44051">
        <ele>1339</ele>
        <time>2017-02-26T15:29:00Z</time>
      </trkpt>
      <trkpt lat="44.83611" lon="6.43888">
        <ele>1354</ele>
        <time>2017-02-26T15:29:20Z</time>
      </trkpt>
      <trkpt lat="44.83612" lon="6.43835">
        <ele>1356</ele>
        <time>2017-02-26T15:29:40Z</time>
      </trkpt>
      <trkpt lat="44.83625" lon="6.43708">
        <ele>1373</ele>
        <time>2017-02-26T15:30:00Z</time>
      </trkpt>
      <trkpt lat="44.8365" lon="6.43732">
        <ele>1377</ele>
        <time>2017-02-26T15:30:20Z</time>
      </trkpt>
      <trkpt lat="44.83637" lon="6.43682">
        <ele>1379</ele>
        <time>2017-02-26T15:30:40Z</time>
      </trkpt>
      <trkpt lat="44.83594" lon="6.43612">
        <ele>1387</ele>
        <time>2017-02-26T15:31:00Z</time>
      </trkpt>
      <trkpt lat="44.83599" lon="6.4347">
        <ele>1422</ele>
        <time>2017-02-26T15:31:20Z</time>
      </trkpt>
      <trkpt lat="44.83579" lon="6.43442">
        <ele>1401</ele>
        <time>2017-02-26T15:31:40Z</time>
      </trkpt>
      <trkpt lat="44.83585" lon="6.43395">
        <ele>1433</ele>
        <time>2017-02-26T15:32:00Z</time>
      </trkpt>
      <trkpt lat="44.8355" lon="6.43358">
        <ele>1410</ele>
        <time>2017-02-26T15:32:20Z</time>
      </trkpt>
      <trkpt lat="44.83594" lon="6.43341">
        <ele>1439</ele>
        <time>2017-02-26T15:32:40Z</time>
      </trkpt>
      <trkpt lat="44.83551" lon="6.43264">
        <ele>1428</ele>
        <time>2017-02-26T15:33:00Z</time>
      </trkpt>
      <trkpt lat="44.83562" lon="6.43245">
        <ele>1439</ele>
        <time>2017-02-26T15:33:20Z</time>
      </trkpt>
      <trkpt lat="44.83596" lon="6.43247">
        <ele>1454</ele>
        <time>2017-02-26T15:33:40Z</time>
      </trkpt>
      <trkpt lat="44.83577" lon="6.43148">
        <ele>1448</ele>
        <time>2017-02-26T15:34:00Z</time>
      </trkpt>
      <trkpt lat="44.83597" lon="6.43049">
        <ele>1472</ele>
        <time>2017-02-26T15:34:20Z</time>
      </trkpt>
      <trkpt lat="44.83574" lon="6.42983">
        <ele>1466</ele>
        <time>2017-02-26T15:34:40Z</time>
      </trkpt>
      <trkpt lat="44.83535" lon="6.42938">
        <ele>1466</ele>
        <time>2017-02-26T15:35:00Z</time>
      </trkpt>
      <trkpt lat="44.83501" lon="6.42809">
        <ele>1482</ele>
        <time>2017-02-26T15:35:20Z</time>
      </trkpt>
      <trkpt lat="44.83541" lon="6.4267">
        <ele>1493</ele>
        <time>2017-02-26T15:35:40Z</time>
      </trkpt>
      <trkpt lat="44.83521" lon="6.42571">
        <ele>1501</ele>
        <time>2017-02-26T15:36:00Z</time>
      </trkpt>
      <trkpt lat="44.83454" lon="6.42504">
        <ele>1490</ele>
        <time>2017-02-26T15:36:20Z</time>
      </trkpt>
      <trkpt lat="44.83399" lon="6.42369">
        <ele>1499</ele>
        <time>2017-02-26T15:36:40Z</time>
      </trkpt>
      <trkpt lat="44.83402" lon="6.42335">
        <ele>1504</ele>
        <time>2017-02-26T15:37:00Z</time>
      </trkpt>
      <trkpt lat="44.83384" lon="6.42277">
        <ele>1505</ele>
        <time>2017-02-26T15:37:20Z</time>
      </trkpt>
      <trkpt lat="44.83381" lon="6.42163">
        <ele>1527</ele>
        <time>2017-02-26T15:37:40Z</time>
      </trkpt>
      <trkpt lat="44.83314" lon="6.42037">
        <ele>1521</ele>
        <time>2017-02-26T15:38:00Z</time>
      </trkpt>
      <trkpt lat="44.83323" lon="6.41916">
        <ele>1545</ele>
        <time>2017-02-26T15:38:20Z</time>
      </trkpt>
      <trkpt lat="44.83296" lon="6.41861">
        <ele>1537</ele>
        <time>2017-02-26T15:38:40Z</time>
      </trkpt>
      <trkpt lat="44.83256" lon="6.4182">
        <ele>1536</ele>
        <time>2017-02-26T15:39:00Z</time>
      </trkpt>
      <trkpt lat="44.83262" lon="6.41635">
        <ele>1560</ele>
        <time>2017-02-26T15:39:20Z</time>
      </trkpt>
      <trkpt lat="44.83262" lon="6.41635">
        <ele>1560</ele>
        <time>2017-02-26T15:39:40Z</time>
      </trkpt>
      <trkpt lat="44.83278" lon="6.41567">
        <ele>1569</ele>
        <time>2017-02-26T15:40:00Z</time>
      </trkpt>
      <trkpt lat="44.83252" lon="6.41384">
        <ele>1579</ele>
        <time>2017-02-26T15:40:20Z</time>
      </trkpt>
      <trkpt lat="44.83273" lon="6.41292">
        <ele>1586</ele>
        <time>2017-02-26T15:40:40Z</time>
      </trkpt>
      <trkpt lat="44.83259" lon="6.41135">
        <ele>1605</ele>
        <time>2017-02-26T15:41:00Z</time>
      </trkpt>
      <trkpt lat="44.83223" lon="6.41039">
        <ele>1601</ele>
        <time>2017-02-26T15:41:20Z</time>
      </trkpt>
      <trkpt lat="44.83224" lon="6.40934">
        <ele>1607</ele>
        <time>2017-02-26T15:41:40Z</time>
      </trkpt>
      <trkpt lat="44.83136" lon="6.40721">
        <ele>1611</ele>
        <time>2017-02-26T15:42:00Z</time>
      </trkpt>
      <trkpt lat="44.83071" lon="6.40605">
        <ele>1608</ele>
        <time>2017-02-26T15:42:20Z</time>
      </trkpt>
      <trkpt lat="44.83065" lon="6.40314">
        <ele>1613</ele>
        <time>2017-02-26T15:42:40Z</time>
      </trkpt>
      <trkpt lat="44.83112" lon="6.40146">
        <ele>1620</ele>
        <time>2017-02-26T15:43:00Z</time>
      </trkpt>
      <trkpt lat="44.83026" lon="6.40116">
        <ele>1608</ele>
        <time>2017-02-26T15:43:20Z</time>
      </trkpt>
      <trkpt lat="44.82979" lon="6.39865">
        <ele>1618</ele>
        <time>2017-02-26T15:43:40Z</time>
      </trkpt>
      <trkpt lat="44.82911" lon="6.39723">
        <ele>1624</ele>
        <time>2017-02-26T15:44:00Z</time>
      </trkpt>
      <trkpt lat="44.82908" lon="6.39777">
        <ele>1621</ele>
        <time>2017-02-26T15:44:20Z</time>
      </trkpt>
      <trkpt lat="44.82873" lon="6.3965">
        <ele>1635</ele>
        <time>2017-02-26T15:44:40Z</time>
      </trkpt>
      <trkpt lat="44.82544" lon="6.39616">
        <ele>1689</ele>
        <time>2017-02-26T15:45:00Z</time>
      </trkpt>
      <trkpt lat="44.82505" lon="6.39597">
        <ele>1697</ele>
        <time>2017-02-26T15:45:20Z</time>
      </trkpt>
      <trkpt lat="44.82339" lon="6.39597">
        <ele>1724</ele>
        <time>2017-02-26T15:45:40Z</time>
      </trkpt>
      <trkpt lat="44.82272" lon="6.39635">
        <ele>1731</ele>
        <time>2017-02-26T15:46:00Z</time>
      </trkpt>
      <trkpt lat="44.82229" lon="6.39614">
        <ele>1738</ele>
        <time>2017-02-26T15:46:20Z</time>
      </trkpt>
      <trkpt lat="44.82191" lon="6.39629">
        <ele>1740</ele>
        <time>2017-02-26T15:46:40Z</time>
      </trkpt>
      <trkpt lat="44.8215" lon="6.39586">
        <ele>1747</ele>
        <time>2017-02-26T15:47:00Z</time>
      </trkpt>
      <trkpt lat="44.82037" lon="6.39563">
        <ele>1773</ele>
        <time>2017-02-26T15:47:20Z</time>
      </trkpt>
      <trkpt lat="44.81973" lon="6.39573">
        <ele>1777</ele>
        <time>2017-02-26T15:47:40Z</time>
      </trkpt>
      <trkpt lat="44.8185" lon="6.39505">
        <ele>1785</ele>
        <time>2017-02-26T15:48:00Z</time>
      </trkpt>
      <trkpt lat="44.81835" lon="6.39475">
        <ele>1791</ele>
        <time>2017-02-26T15:48:20Z</time>
      </trkpt>
      <trkpt lat="44.8178" lon="6.39455">
        <ele>1791</ele>
        <time>2017-02-26T15:48:40Z</time>
      </trkpt>
      <trkpt lat="44.81748" lon="6.39419">
        <ele>1790</ele>
        <time>2017-02-26T15:49:00Z</time>
      </trkpt>
      <trkpt lat="44.81695" lon="6.39376">
        <ele>1801</ele>
        <time>2017-02-26T15:49:20Z</time>
      </trkpt>
      <trkpt lat="44.81686" lon="6.39331">
        <ele>1813</ele>
        <time>2017-02-26T15:49:40Z</time>
      </trkpt>
      <trkpt lat="44.8161" lon="6.39206">
        <ele>1821</ele>
        <time>2017-02-26T15:50:00Z</time>
      </trkpt>
      <trkpt lat="44.81543" lon="6.39187">
        <ele>1812</ele>
        <time>2017-02-26T15:50:20Z</time>
      </trkpt>
      <trkpt lat="44.81348" lon="6.38915">
        <ele>1833</ele>
        <time>2017-02-26T15:50:40Z</time>
      </trkpt>
      <trkpt lat="44.81343" lon="6.38814">
        <ele>1843</ele>
        <time>2017-02-26T15:51:00Z</time>
      </trkpt>
      <trkpt lat="44.8124" lon="6.38618">
        <ele>1839</ele>
        <time>2017-02-26T15:51:20Z</time>
      </trkpt>
      <trkpt lat="44.81156" lon="6.38505">
        <ele>1841</ele>
        <time>2017-02-26T15:51:40Z</time>
      </trkpt>
      <trkpt lat="44.81101" lon="6.38466">
        <ele>1841</ele>
        <time>2017-02-26T15:52:00Z</time>
      </trkpt>
      <trkpt lat="44.81101" lon="6.38324">
        <ele>1852</ele>
        <time>2017-02-26T15:52:20Z</time>
      </trkpt>
      <trkpt lat="44.8102" lon="6.38215">
        <ele>1858</ele>
        <time>2017-02-26T15:52:40Z</time>
      </trkpt>
      <trkpt lat="44.80969" lon="6.38189">
        <ele>1857</ele>
        <time>2017-02-26T15:53:00Z</time>
      </trkpt>
      <trkpt lat="44.80918" lon="6.38033">
        <ele>1876</ele>
        <time>2017-02-26T15:53:20Z</time>
      </trkpt>
      <trkpt lat="44.80868" lon="6.38011">
        <ele>1870</ele>
        <time>2017-02-26T15:53:40Z</time>
      </trkpt>
      <trkpt lat="44.8088" lon="6.37979">
        <ele>1880</ele>
        <time>2017-02-26T15:54:00Z</time>
      </trkpt>
      <trkpt lat="44.80791" lon="6.37874">
        <ele>1896</ele>
        <time>2017-02-26T15:54:20Z</time>
      </trkpt>
      <trkpt lat="44.80801" lon="6.37865">
        <ele>1898</ele>
        <time>2017-02-26T15:54:40Z</time>
      </trkpt>
      <trkpt lat="44.80757" lon="6.37719">
        <ele>1934</ele>
        <time>2017-02-26T15:55:00Z</time>
      </trkpt>
      <trkpt lat="44.80597" lon="6.37552">
        <ele>1944</ele>
        <time>2017-02-26T15:55:20Z</time>
      </trkpt>
      <trkpt lat="44.80562" lon="6.3744">
        <ele>1945</ele>
        <time>2017-02-26T15:55:40Z</time>
      </trkpt>
      <trkpt lat="44.80509" lon="6.37436">
        <ele>1944</ele>
        <time>2017-02-26T15:56:00Z</time>
      </trkpt>
      <trkpt lat="44.80498" lon="6.37344">
        <ele>1952</ele>
        <time>2017-02-26T15:56:20Z</time>
      </trkpt>
      <trkpt lat="44.80354" lon="6.37196">
        <ele>1967</ele>
        <time>2017-02-26T15:56:40Z</time>
      </trkpt>
      <trkpt lat="44.80326" lon="6.37106">
        <ele>1973</ele>
        <time>2017-02-26T15:57:00Z</time>
      </trkpt>
      <trkpt lat="44.80235" lon="6.36975">
        <ele>1981</ele>
        <time>2017-02-26T15:57:20Z</time>
      </trkpt>
      <trkpt lat="44.8027" lon="6.36852">
        <ele>2000</ele>
        <time>2017-02-26T15:57:40Z</time>
      </trkpt>
      <trkpt lat="44.8016" lon="6.36683">
        <ele>2005</ele>
        <time>2017-02-26T15:58:00Z</time>
      </trkpt>
      <trkpt lat="44.80116" lon="6.36608">
        <ele>2015</ele>
        <time>2017-02-26T15:58:20Z</time>
      </trkpt>
      <trkpt lat="44.80101" lon="6.36548">
        <ele>2028</ele>
        <time>2017-02-26T15:58:40Z</time>
      </trkpt>
      <trkpt lat="44.80072" lon="6.36558">
        <ele>2025</ele>
        <time>2017-02-26T15:59:00Z</time>
      </trkpt>
      <trkpt lat="44.8006" lon="6.36588">
        <ele>2018</ele>
        <time>2017-02-26T15:59:20Z</time>
      </trkpt>
      <trkpt lat="44.80066" lon="6.36634">
        <ele>2015</ele>
        <time>2017-02-26T15:59:40Z</time>
      </trkpt>
      <trkpt lat="44.80023" lon="6.36642">
        <ele>2018</ele>
        <time>2017-02-26T16:00:00Z</time>
      </trkpt>
      <trkpt lat="44.79994" lon="6.36614">
        <ele>2032</ele>
        <time>2017-02-26T16:00:20Z</time>
      </trkpt>
      <trkpt lat="44.79932" lon="6.36679">
        <ele>2039</ele>
        <time>2017-02-26T16:00:40Z</time>
      </trkpt>
      <trkpt lat="44.79923" lon="6.36631">
        <ele>2040</ele>
        <time>2017-02-26T16:01:00Z</time>
      </trkpt>
      <trkpt lat="44.79903" lon="6.36685">
        <ele>2056</ele>
        <time>2017-02-26T16:01:20Z</time>
      </trkpt>
      <trkpt lat="44.79886" lon="6.36631">
        <ele>2063</ele>
        <time>2017-02-26T16:01:40Z</time>
      </trkpt>
      <trkpt lat="44.79873" lon="6.36636">
        <ele>2066</ele>
        <time>2017-02-26T16:02:00Z</time>
      </trkpt>
      <trkpt lat="44.79873" lon="6.36674">
        <ele>2064</ele>
        <time>2017-02-26T16:02:20Z</time>
      </trkpt>
      <trkpt lat="44.79837" lon="6.36674">
        <ele>2076</ele>
        <time>2017-02-26T16:02:40Z</time>
      </trkpt>
      <trkpt lat="44.79844" lon="6.36719">
        <ele>2068</ele>
        <time>2017-02-26T16:03:00Z</time>
      </trkpt>
      <trkpt lat="44.79812" lon="6.36668">
        <ele>2086</ele>
        <time>2017-02-26T16:03:20Z</time>
      </trkpt>
      <trkpt lat="44.79789" lon="6.36604">
        <ele>2093</ele>
        <time>2017-02-26T16:03:40Z</time>
      </trkpt>
      <trkpt lat="44.797" lon="6.36621">
        <ele>2102</ele>
        <time>2017-02-26T16:04:00Z</time>
      </trkpt>
      <trkpt lat="44.79618" lon="6.36526">
        <ele>2115</ele>
        <time>2017-02-26T16:04:20Z</time>
      </trkpt>
      <trkpt lat="44.79443" lon="6.36483">
        <ele>2124</ele>
        <time>2017-02-26T16:04:40Z</time>
      </trkpt>
      <trkpt lat="44.79294" lon="6.36496">
        <ele>2134</ele>
        <time>2017-02-26T16:05:00Z</time>
      </trkpt>
      <trkpt lat="44.79201" lon="6.36535">
        <ele>2140</ele>
        <time>2017-02-26T16:05:20Z</time>
      </trkpt>
      <trkpt lat="44.79116" lon="6.36494">
        <ele>2152</ele>
        <time>2017-02-26T16:05:40Z</time>
      </trkpt>
      <trkpt lat="44.79079" lon="6.3649">
        <ele>2160</ele>
        <time>2017-02-26T16:06:00Z</time>
      </trkpt>
      <trkpt lat="44.79058" lon="6.3647">
        <ele>2164</ele>
        <time>2017-02-26T16:06:20Z</time>
      </trkpt>
      <trkpt lat="44.78965" lon="6.36404">
        <ele>2190</ele>
        <time>2017-02-26T16:06:40Z</time>
      </trkpt>
      <trkpt lat="44.78878" lon="6.36325">
        <ele>2222</ele>
        <time>2017-02-26T16:07:00Z</time>
      </trkpt>
      <trkpt lat="44.78855" lon="6.36275">
        <ele>2228</ele>
        <time>2017-02-26T16:07:20Z</time>
      </trkpt>
      <trkpt lat="44.78837" lon="6.36303">
        <ele>2231</ele>
        <time>2017-02-26T16:07:40Z</time>
      </trkpt>
      <trkpt lat="44.78837" lon="6.36222">
        <ele>2240</ele>
        <time>2017-02-26T16:08:00Z</time>
      </trkpt>
      <trkpt lat="44.78822" lon="6.36187">
        <ele>2257</ele>
        <time>2017-02-26T16:08:20Z</time>
      </trkpt>
      <trkpt lat="44.78819" lon="6.3623">
        <ele>2252</ele>
        <time>2017-02-26T16:08:40Z</time>
      </trkpt>
      <trkpt lat="44.78794" lon="6.36232">
        <ele>2258</ele>
        <time>2017-02-26T16:09:00Z</time>
      </trkpt>
      <trkpt lat="44.78785" lon="6.36254">
        <ele>2258</ele>
        <time>2017-02-26T16:09:20Z</time>
      </trkpt>
      <trkpt lat="44.78732" lon="6.36192">
        <ele>2285</ele>
        <time>2017-02-26T16:09:40Z</time>
      </trkpt>
      <trkpt lat="44.787" lon="6.36318">
        <ele>2286</ele>
        <time>2017-02-26T16:10:00Z</time>
      </trkpt>
      <trkpt lat="44.7872" lon="6.36389">
        <ele>2279</ele>
        <time>2017-02-26T16:10:20Z</time>
      </trkpt>
      <trkpt lat="44.78625" lon="6.364">
        <ele>2294</ele>
        <time>2017-02-26T16:10:40Z</time>
      </trkpt>
      <trkpt lat="44.78638" lon="6.36363">
        <ele>2295</ele>
        <time>2017-02-26T16:11:00Z</time>
      </trkpt>
      <trkpt lat="44.78583" lon="6.36376">
        <ele>2309</ele>
        <time>2017-02-26T16:11:20Z</time>
      </trkpt>
      <trkpt lat="44.7854" lon="6.36365">
        <ele>2313</ele>
        <time>2017-02-26T16:11:40Z</time>
      </trkpt>
      <trkpt lat="44.78561" lon="6.36337">
        <ele>2312</ele>
        <time>2017-02-26T16:12:00Z</time>
      </trkpt>
      <trkpt lat="44.78528" lon="6.36335">
        <ele>2317</ele>
        <time>2017-02-26T16:12:20Z</time>
      </trkpt>
      <trkpt lat="44.78536" lon="6.36307">
        <ele>2331</ele>
        <time>2017-02-26T16:12:40Z</time>
      </trkpt>
      <trkpt lat="44.7849" lon="6.36303">
        <ele>2351</ele>
        <time>2017-02-26T16:13:00Z</time>
      </trkpt>
      <trkpt lat="44.78504" lon="6.36271">
        <ele>2344</ele>
        <time>2017-02-26T16:13:20Z</time>
      </trkpt>
      <trkpt lat="44.78458" lon="6.36267">
        <ele>2362</ele>
        <time>2017-02-26T16:13:40Z</time>
      </trkpt>
      <trkpt lat="44.785" lon="6.36226">
        <ele>2363</ele>
        <time>2017-02-26T16:14:00Z</time>
      </trkpt>
      <trkpt lat="44.78478" lon="6.36213">
        <ele>2380</ele>
        <time>2017-02-26T16:14:20Z</time>
      </trkpt>
      <trkpt lat="44.7851" lon="6.36187">
        <ele>2373</ele>
        <time>2017-02-26T16:14:40Z</time>
      </trkpt>
      <trkpt lat="44.78476" lon="6.36177">
        <ele>2386</ele>
        <time>2017-02-26T16:15:00Z</time>
      </trkpt>
      <trkpt lat="44.78505" lon="6.36153">
        <ele>2388</ele>
        <time>2017-02-26T16:15:20Z</time>
      </trkpt>
      <trkpt lat="44.78476" lon="6.36129">
        <ele>2406</ele>
        <time>2017-02-26T16:15:40Z</time>
      </trkpt>
      <trkpt lat="44.78532" lon="6.36116">
        <ele>2389</ele>
        <time>2017-02-26T16:16:00Z</time>
      </trkpt>
      <trkpt lat="44.78502" lon="6.36097">
        <ele>2400</ele>
        <time>2017-02-26T16:16:20Z</time>
      </trkpt>
      <trkpt lat="44.78539" lon="6.3608">
        <ele>2396</ele>
        <time>2017-02-26T16:16:40Z</time>
      </trkpt>
      <trkpt lat="44.78497" lon="6.36054">
        <ele>2423</ele>
        <time>2017-02-26T16:17:00Z</time>
      </trkpt>
      <trkpt lat="44.78458" lon="6.36063">
        <ele>2428</ele>
        <time>2017-02-26T16:17:20Z</time>
      </trkpt>
      <trkpt lat="44.78461" lon="6.36052">
        <ele>2428</ele>
        <time>2017-02-26T16:17:40Z</time>
      </trkpt>
      <trkpt lat="44.78449" lon="6.36026">
        <ele>2434</ele>
        <time>2017-02-26T16:18:00Z</time>
      </trkpt>
      <trkpt lat="44.78485" lon="6.36013">
        <ele>2427</ele>
        <time>2017-02-26T16:18:20Z</time>
      </trkpt>
      <trkpt lat="44.78423" lon="6.35971">
        <ele>2457</ele>
        <time>2017-02-26T16:18:40Z</time>
      </trkpt>
      <trkpt lat="44.78412" lon="6.36005">
        <ele>2455</ele>
        <time>2017-02-26T16:19:00Z</time>
      </trkpt>
      <trkpt lat="44.78354" lon="6.36016">
        <ele>2457</ele>
        <time>2017-02-26T16:19:20Z</time>
      </trkpt>
      <trkpt lat="44.78289" lon="6.35908">
        <ele>2491</ele>
        <time>2017-02-26T16:19:40Z</time>
      </trkpt>
      <trkpt lat="44.78261" lon="6.35835">
        <ele>2491</ele>
        <time>2017-02-26T16:20:00Z</time>
      </trkpt>
      <trkpt lat="44.78229" lon="6.35805">
        <ele>2503</ele>
        <time>2017-02-26T16:20:20Z</time>
      </trkpt>
      <trkpt lat="44.78199" lon="6.36022">
        <ele>2497</ele>
        <time>2017-02-26T16:20:40Z</time>
      </trkpt>
      <trkpt lat="44.78219" lon="6.36101">
        <ele>2491</ele>
        <time>2017-02-26T16:21:00Z</time>
      </trkpt>
      <trkpt lat="44.78184" lon="6.36104">
        <ele>2496</ele>
        <time>2017-02-26T16:21:20Z</time>
      </trkpt>
      <trkpt lat="44.78153" lon="6.36061">
        <ele>2512</ele>
        <time>2017-02-26T16:21:40Z</time>
      </trkpt>
      <trkpt lat="44.78108" lon="6.36043">
        <ele>2517</ele>
        <time>2017-02-26T16:22:00Z</time>
      </trkpt>
      <trkpt lat="44.7806" lon="6.35975">
        <ele>2546</ele>
        <time>2017-02-26T16:22:20Z</time>
      </trkpt>
      <trkpt lat="44.77887" lon="6.35934">
        <ele>2554</ele>
        <time>2017-02-26T16:22:40Z</time>
      </trkpt>
      <trkpt lat="44.77871" lon="6.35908">
        <ele>2595.1</ele>
        <time>2017-02-26T16:23:00Z</time>
      </trkpt>
      <trkpt lat="44.7778" lon="6.35893">
        <ele>2609.7</ele>
        <time>2017-02-26T16:23:20Z</time>
      </trkpt>
      <trkpt lat="44.77594" lon="6.36013">
        <ele>2644.3</ele>
        <time>2017-02-26T16:23:40Z</time>
      </trkpt>
      <trkpt lat="44.77581" lon="6.35977">
        <ele>2661.6</ele>
        <time>2017-02-26T16:24:00Z</time>
      </trkpt>
      <trkpt lat="44.77523" lon="6.36033">
        <ele>2675.1</ele>
        <time>2017-02-26T16:24:20Z</time>
      </trkpt>
      <trkpt lat="44.77472" lon="6.36119">
        <ele>2705.7</ele>
        <time>2017-02-26T16:24:40Z</time>
      </trkpt>
      <trkpt lat="44.77457" lon="6.3605">
        <ele>2722.8</ele>
        <time>2017-02-26T16:25:00Z</time>
      </trkpt>
      <trkpt lat="44.77454" lon="6.35994">
        <ele>2735.2</ele>
        <time>2017-02-26T16:25:20Z</time>
      </trkpt>
      <trkpt lat="44.77422" lon="6.36039">
        <ele>2750.2</ele>
        <time>2017-02-26T16:25:40Z</time>
      </trkpt>
      <trkpt lat="44.77384" lon="6.3588">
        <ele>2752.3</ele>
        <time>2017-02-26T16:26:00Z</time>
      </trkpt>
      <trkpt lat="44.77284" lon="6.35739">
        <ele>2736.1</ele>
        <time>2017-02-26T16:26:20Z</time>
      </trkpt>
      <trkpt lat="44.77081" lon="6.35627">
        <ele>2718.8</ele>
        <time>2017-02-26T16:26:40Z</time>
      </trkpt>
      <trkpt lat="44.77031" lon="6.35614">
        <ele>2717.7</ele>
        <time>2017-02-26T16:27:00Z</time>
      </trkpt>
      <trkpt lat="44.76846" lon="6.35408">
        <ele>2731.7</ele>
        <time>2017-02-26T16:27:20Z</time>
      </trkpt>
      <trkpt lat="44.7684" lon="6.35353">
        <ele>2730.1</ele>
        <time>2017-02-26T16:27:40Z</time>
      </trkpt>
      <trkpt lat="44.7684" lon="6.35284">
        <ele>2721.8</ele>
        <time>2017-02-26T16:28:00Z</time>
      </trkpt>
      <trkpt lat="44.76811" lon="6.35333">
        <ele>2714.2</ele>
        <time>2017-02-26T16:28:20Z</time>
      </trkpt>
      <trkpt lat="44.76791" lon="6.35209">
        <ele>2689.4</ele>
        <time>2017-02-26T16:28:40Z</time>
      </trkpt>
      <trkpt lat="44.76755" lon="6.35267">
        <ele>2677.3</ele>
        <time>2017-02-26T16:29:00Z</time>
      </trkpt>
      <trkpt lat="44.76734" lon="6.35196">
        <ele>2664.5</ele>
        <time>2017-02-26T16:29:20Z</time>
      </trkpt>
      <trkpt lat="44.76689" lon="6.35189">
        <ele>2648.9</ele>
        <time>2017-02-26T16:29:40Z</time>
      </trkpt>
      <trkpt lat="44.76657" lon="6.35162">
        <ele>2632.3</ele>
        <time>2017-02-26T16:30:00Z</time>
      </trkpt>
      <trkpt lat="44.76598" lon="6.35166">
        <ele>2614.9</ele>
        <time>2017-02-26T16:30:20Z</time>
      </trkpt>
      <trkpt lat="44.76564" lon="6.35125">
        <ele>2558</ele>
        <time>2017-02-26T16:30:40Z</time>
      </trkpt>
      <trkpt lat="44.76485" lon="6.35119">
        <ele>2553</ele>
        <time>2017-02-26T16:31:00Z</time>
      </trkpt>
      <trkpt lat="44.76551" lon="6.35054">
        <ele>2536</ele>
        <time>2017-02-26T16:31:20Z</time>
      </trkpt>
      <trkpt lat="44.76479" lon="6.35041">
        <ele>2528</ele>
        <time>2017-02-26T16:31:40Z</time>
      </trkpt>
      <trkpt lat="44.76456" lon="6.35069">
        <ele>2533</ele>
        <time>2017-02-26T16:32:00Z</time>
      </trkpt>
      <trkpt lat="44.76441" lon="6.35039">
        <ele>2524</ele>
        <time>2017-02-26T16:32:20Z</time>
      </trkpt>
      <trkpt lat="44.76488" lon="6.34998">
        <ele>2497</ele>
        <time>2017-02-26T16:32:40Z</time>
      </trkpt>
      <trkpt lat="44.76441" lon="6.3496">
        <ele>2471</ele>
        <time>2017-02-26T16:33:00Z</time>
      </trkpt>
      <trkpt lat="44.76484" lon="6.3496">
        <ele>2476</ele>
        <time>2017-02-26T16:33:20Z</time>
      </trkpt>
      <trkpt lat="44.7652" lon="6.34934">
        <ele>2484</ele>
        <time>2017-02-26T16:33:40Z</time>
      </trkpt>
      <trkpt lat="44.76478" lon="6.34936">
        <ele>2467</ele>
        <time>2017-02-26T16:34:00Z</time>
      </trkpt>
      <trkpt lat="44.76507" lon="6.34889">
        <ele>2454</ele>
        <time>2017-02-26T16:34:20Z</time>
      </trkpt>
      <trkpt lat="44.76462" lon="6.34902">
        <ele>2432</ele>
        <time>2017-02-26T16:34:40Z</time>
      </trkpt>
      <trkpt lat="44.7649" lon="6.34872">
        <ele>2429</ele>
        <time>2017-02-26T16:35:00Z</time>
      </trkpt>
      <trkpt lat="44.76449" lon="6.34863">
        <ele>2421</ele>
        <time>2017-02-26T16:35:20Z</time>
      </trkpt>
      <trkpt lat="44.7647" lon="6.34838">
        <ele>2422</ele>
        <time>2017-02-26T16:35:40Z</time>
      </trkpt>
      <trkpt lat="44.76438" lon="6.3484">
        <ele>2411</ele>
        <time>2017-02-26T16:36:00Z</time>
      </trkpt>
      <trkpt lat="44.76456" lon="6.34803">
        <ele>2394</ele>
        <time>2017-02-26T16:36:20Z</time>
      </trkpt>
      <trkpt lat="44.76426" lon="6.3481">
        <ele>2390</ele>
        <time>2017-02-26T16:36:40Z</time>
      </trkpt>
      <trkpt lat="44.76435" lon="6.3478">
        <ele>2385</ele>
        <time>2017-02-26T16:37:00Z</time>
      </trkpt>
      <trkpt lat="44.76398" lon="6.34782">
        <ele>2360</ele>
        <time>2017-02-26T16:37:20Z</time>
      </trkpt>
      <trkpt lat="44.76427" lon="6.34756">
        <ele>2372</ele>
        <time>2017-02-26T16:37:40Z</time>
      </trkpt>
      <trkpt lat="44.76397" lon="6.3476">
        <ele>2357</ele>
        <time>2017-02-26T16:38:00Z</time>
      </trkpt>
      <trkpt lat="44.76415" lon="6.34735">
        <ele>2345</ele>
        <time>2017-02-26T16:38:20Z</time>
      </trkpt>
      <trkpt lat="44.76359" lon="6.34711">
        <ele>2324</ele>
        <time>2017-02-26T16:38:40Z</time>
      </trkpt>
      <trkpt lat="44.76368" lon="6.34672">
        <ele>2319</ele>
        <time>2017-02-26T16:39:00Z</time>
      </trkpt>
      <trkpt lat="44.76333" lon="6.347">
        <ele>2296</ele>
        <time>2017-02-26T16:39:20Z</time>
      </trkpt>
      <trkpt lat="44.76312" lon="6.34685">
        <ele>2291</ele>
        <time>2017-02-26T16:39:40Z</time>
      </trkpt>
      <trkpt lat="44.76286" lon="6.3472">
        <ele>2292</ele>
        <time>2017-02-26T16:40:00Z</time>
      </trkpt>
      <trkpt lat="44.76255" lon="6.347">
        <ele>2282</ele>
        <time>2017-02-26T16:40:20Z</time>
      </trkpt>
      <trkpt lat="44.76235" lon="6.34711">
        <ele>2271</ele>
        <time>2017-02-26T16:40:40Z</time>
      </trkpt>
      <trkpt lat="44.76193" lon="6.34668">
        <ele>2259</ele>
        <time>2017-02-26T16:41:00Z</time>
      </trkpt>
      <trkpt lat="44.76159" lon="6.34679">
        <ele>2256</ele>
        <time>2017-02-26T16:41:20Z</time>
      </trkpt>
      <trkpt lat="44.76141" lon="6.34617">
        <ele>2232</ele>
        <time>2017-02-26T16:41:40Z</time>
      </trkpt>
      <trkpt lat="44.76179" lon="6.34614">
        <ele>2230</ele>
        <time>2017-02-26T16:42:00Z</time>
      </trkpt>
      <trkpt lat="44.76136" lon="6.34584">
        <ele>2228</ele>
        <time>2017-02-26T16:42:20Z</time>
      </trkpt>
      <trkpt lat="44.7619" lon="6.34561">
        <ele>2206</ele>
        <time>2017-02-26T16:42:40Z</time>
      </trkpt>
      <trkpt lat="44.76136" lon="6.34526">
        <ele>2200</ele>
        <time>2017-02-26T16:43:00Z</time>
      </trkpt>
      <trkpt lat="44.76209" lon="6.34462">
        <ele>2172</ele>
        <time>2017-02-26T16:43:20Z</time>
      </trkpt>
      <trkpt lat="44.76171" lon="6.34415">
        <ele>2157</ele>
        <time>2017-02-26T16:43:40Z</time>
      </trkpt>
      <trkpt lat="44.76141" lon="6.34406">
        <ele>2152</ele>
        <time>2017-02-26T16:44:00Z</time>
      </trkpt>
      <trkpt lat="44.76145" lon="6.34368">
        <ele>2146</ele>
        <time>2017-02-26T16:44:20Z</time>
      </trkpt>
      <trkpt lat="44.76074" lon="6.34284">
        <ele>2116</ele>
        <time>2017-02-26T16:44:40Z</time>
      </trkpt>
      <trkpt lat="44.76075" lon="6.34198">
        <ele>2097</ele>
        <time>2017-02-26T16:45:00Z</time>
      </trkpt>
      <trkpt lat="44.76205" lon="6.34039">
        <ele>2064</ele>
        <time>2017-02-26T16:45:20Z</time>
      </trkpt>
      <trkpt lat="44.76272" lon="6.34011">
        <ele>2054</ele>
        <time>2017-02-26T16:45:40Z</time>
      </trkpt>
      <trkpt lat="44.76334" lon="6.34022">
        <ele>2048</ele>
        <time>2017-02-26T16:46:00Z</time>
      </trkpt>
      <trkpt lat="44.76328" lon="6.33999">
        <ele>2039</ele>
        <time>2017-02-26T16:46:20Z</time>
      </trkpt>
      <trkpt lat="44.76292" lon="6.33994">
        <ele>2038</ele>
        <time>2017-02-26T16:46:40Z</time>
      </trkpt>
      <trkpt lat="44.76324" lon="6.33969">
        <ele>2035</ele>
        <time>2017-02-26T16:47:00Z</time>
      </trkpt>
      <trkpt lat="44.76301" lon="6.33956">
        <ele>2033</ele>
        <time>2017-02-26T16:47:20Z</time>
      </trkpt>
      <trkpt lat="44.76322" lon="6.33934">
        <ele>2028</ele>
        <time>2017-02-26T16:47:40Z</time>
      </trkpt>
      <trkpt lat="44.76351" lon="6.33782">
        <ele>1984</ele>
        <time>2017-02-26T16:48:00Z</time>
      </trkpt>
      <trkpt lat="44.76376" lon="6.33782">
        <ele>1984</ele>
        <time>2017-02-26T16:48:20Z</time>
      </trkpt>
      <trkpt lat="44.76357" lon="6.33758">
        <ele>1981</ele>
        <time>2017-02-26T16:48:40Z</time>
      </trkpt>
      <trkpt lat="44.76368" lon="6.33717">
        <ele>1969</ele>
        <time>2017-02-26T16:49:00Z</time>
      </trkpt>
      <trkpt lat="44.76312" lon="6.33724">
        <ele>1984</ele>
        <time>2017-02-26T16:49:20Z</time>
      </trkpt>
      <trkpt lat="44.76339" lon="6.33655">
        <ele>1964</ele>
        <time>2017-02-26T16:49:40Z</time>
      </trkpt>
      <trkpt lat="44.76401" lon="6.33584">
        <ele>1951</ele>
        <time>2017-02-26T16:50:00Z</time>
      </trkpt>
      <trkpt lat="44.76429" lon="6.33445">
        <ele>1925</ele>
        <time>2017-02-26T16:50:20Z</time>
      </trkpt>
      <trkpt lat="44.76459" lon="6.33436">
        <ele>1918</ele>
        <time>2017-02-26T16:50:40Z</time>
      </trkpt>
      <trkpt lat="44.76444" lon="6.33396">
        <ele>1911</ele>
        <time>2017-02-26T16:51:00Z</time>
      </trkpt>
      <trkpt lat="44.76468" lon="6.33391">
        <ele>1904</ele>
        <time>2017-02-26T16:51:20Z</time>
      </trkpt>
      <trkpt lat="44.76461" lon="6.33361">
        <ele>1903</ele>
        <time>2017-02-26T16:51:40Z</time>
      </trkpt>
      <trkpt lat="44.76476" lon="6.33353">
        <ele>1896</ele>
        <time>2017-02-26T16:52:00Z</time>
      </trkpt>
      <trkpt lat="44.76476" lon="6.33327">
        <ele>1880</ele>
        <time>2017-02-26T16:52:20Z</time>
      </trkpt>
      <trkpt lat="44.76496" lon="6.33336">
        <ele>1877</ele>
        <time>2017-02-26T16:52:40Z</time>
      </trkpt>
      <trkpt lat="44.76507" lon="6.33327">
        <ele>1867</ele>
        <time>2017-02-26T16:53:00Z</time>
      </trkpt>
      <trkpt lat="44.76464" lon="6.33224">
        <ele>1857</ele>
        <time>2017-02-26T16:53:20Z</time>
      </trkpt>
      <trkpt lat="44.76438" lon="6.32964">
        <ele>1814</ele>
        <time>2017-02-26T16:53:40Z</time>
      </trkpt>
      <trkpt lat="44.76456" lon="6.32883">
        <ele>1806</ele>
        <time>2017-02-26T16:54:00Z</time>
      </trkpt>
      <trkpt lat="44.76522" lon="6.3284">
        <ele>1807</ele>
        <time>2017-02-26T16:54:20Z</time>
      </trkpt>
      <trkpt lat="44.76514" lon="6.32694">
        <ele>1800</ele>
        <time>2017-02-26T16:54:40Z</time>
      </trkpt>
      <trkpt lat="44.76561" lon="6.32719">
        <ele>1806</ele>
        <time>2017-02-26T16:55:00Z</time>
      </trkpt>
      <trkpt lat="44.76731" lon="6.32886">
        <ele>1831</ele>
        <time>2017-02-26T16:55:20Z</time>
      </trkpt>
      <trkpt lat="44.76876" lon="6.32959">
        <ele>1865</ele>
        <time>2017-02-26T16:55:40Z</time>
      </trkpt>
      <trkpt lat="44.76986" lon="6.32944">
        <ele>1886</ele>
        <time>2017-02-26T16:56:00Z</time>
      </trkpt>
      <trkpt lat="44.77149" lon="6.32944">
        <ele>1911</ele>
        <time>2017-02-26T16:56:20Z</time>
      </trkpt>
      <trkpt lat="44.7731" lon="6.32794">
        <ele>1960</ele>
        <time>2017-02-26T16:56:40Z</time>
      </trkpt>
      <trkpt lat="44.7747" lon="6.32731">
        <ele>1999</ele>
        <time>2017-02-26T16:57:00Z</time>
      </trkpt>
      <trkpt lat="44.77561" lon="6.32807">
        <ele>2005</ele>
        <time>2017-02-26T16:57:20Z</time>
      </trkpt>
      <trkpt lat="44.7759" lon="6.32706">
        <ele>2032</ele>
        <time>2017-02-26T16:57:40Z</time>
      </trkpt>
      <trkpt lat="44.77625" lon="6.32738">
        <ele>2034</ele>
        <time>2017-02-26T16:58:00Z</time>
      </trkpt>
      <trkpt lat="44.77636" lon="6.32691">
        <ele>2039</ele>
        <time>2017-02-26T16:58:20Z</time>
      </trkpt>
      <trkpt lat="44.77659" lon="6.3271">
        <ele>2039</ele>
        <time>2017-02-26T16:58:40Z</time>
      </trkpt>
      <trkpt lat="44.77671" lon="6.32671">
        <ele>2054</ele>
        <time>2017-02-26T16:59:00Z</time>
      </trkpt>
      <trkpt lat="44.77702" lon="6.32695">
        <ele>2059</ele>
        <time>2017-02-26T16:59:20Z</time>
      </trkpt>
      <trkpt lat="44.77715" lon="6.32613">
        <ele>2073</ele>
        <time>2017-02-26T16:59:40Z</time>
      </trkpt>
      <trkpt lat="44.77696" lon="6.32566">
        <ele>2090</ele>
        <time>2017-02-26T17:00:00Z</time>
      </trkpt>
      <trkpt lat="44.77717" lon="6.32556">
        <ele>2095</ele>
        <time>2017-02-26T17:00:20Z</time>
      </trkpt>
      <trkpt lat="44.77671" lon="6.32502">
        <ele>2107</ele>
        <time>2017-02-26T17:00:40Z</time>
      </trkpt>
      <trkpt lat="44.77621" lon="6.32521">
        <ele>2098</ele>
        <time>2017-02-26T17:01:00Z</time>
      </trkpt>
      <trkpt lat="44.77502" lon="6.32468">
        <ele>2139</ele>
        <time>2017-02-26T17:01:20Z</time>
      </trkpt>
      <trkpt lat="44.77476" lon="6.3248">
        <ele>2132</ele>
        <time>2017-02-26T17:01:40Z</time>
      </trkpt>
      <trkpt lat="44.77444" lon="6.32457">
        <ele>2138</ele>
        <time>2017-02-26T17:02:00Z</time>
      </trkpt>
      <trkpt lat="44.77456" lon="6.32369">
        <ele>2175</ele>
        <time>2017-02-26T17:02:20Z</time>
      </trkpt>
      <trkpt lat="44.77406" lon="6.32251">
        <ele>2193</ele>
        <time>2017-02-26T17:02:40Z</time>
      </trkpt>
      <trkpt lat="44.77365" lon="6.32176">
        <ele>2208</ele>
        <time>2017-02-26T17:03:00Z</time>
      </trkpt>
      <trkpt lat="44.77423" lon="6.3218">
        <ele>2228</ele>
        <time>2017-02-26T17:03:20Z</time>
      </trkpt>
      <trkpt lat="44.77376" lon="6.32122">
        <ele>2235</ele>
        <time>2017-02-26T17:03:40Z</time>
      </trkpt>
      <trkpt lat="44.77519" lon="6.32148">
        <ele>2274</ele>
        <time>2017-02-26T17:04:00Z</time>
      </trkpt>
      <trkpt lat="44.77493" lon="6.32109">
        <ele>2274</ele>
        <time>2017-02-26T17:04:20Z</time>
      </trkpt>
      <trkpt lat="44.77533" lon="6.32113">
        <ele>2282</ele>
        <time>2017-02-26T17:04:40Z</time>
      </trkpt>
      <trkpt lat="44.77505" lon="6.32056">
        <ele>2306</ele>
        <time>2017-02-26T17:05:00Z</time>
      </trkpt>
      <trkpt lat="44.77452" lon="6.31978">
        <ele>2319</ele>
        <time>2017-02-26T17:05:20Z</time>
      </trkpt>
      <trkpt lat="44.77473" lon="6.31968">
        <ele>2322</ele>
        <time>2017-02-26T17:05:40Z</time>
      </trkpt>
      <trkpt lat="44.77438" lon="6.31886">
        <ele>2343</ele>
        <time>2017-02-26T17:06:00Z</time>
      </trkpt>
      <trkpt lat="44.77368" lon="6.31899">
        <ele>2336</ele>
        <time>2017-02-26T17:06:20Z</time>
      </trkpt>
      <trkpt lat="44.77377" lon="6.31847">
        <ele>2343</ele>
        <time>2017-02-26T17:06:40Z</time>
      </trkpt>
      <trkpt lat="44.77365" lon="6.318">
        <ele>2360</ele>
        <time>2017-02-26T17:07:00Z</time>
      </trkpt>
      <trkpt lat="44.77376" lon="6.3177">
        <ele>2364</ele>
        <time>2017-02-26T17:07:20Z</time>
      </trkpt>
      <trkpt lat="44.77376" lon="6.31727">
        <ele>2379</ele>
        <time>2017-02-26T17:07:40Z</time>
      </trkpt>
      <trkpt lat="44.77365" lon="6.31684">
        <ele>2384</ele>
        <time>2017-02-26T17:08:00Z</time>
      </trkpt>
      <trkpt lat="44.77389" lon="6.31626">
        <ele>2402</ele>
        <time>2017-02-26T17:08:20Z</time>
      </trkpt>
      <trkpt lat="44.77411" lon="6.31616">
        <ele>2405</ele>
        <time>2017-02-26T17:08:40Z</time>
      </trkpt>
      <trkpt lat="44.77392" lon="6.31558">
        <ele>2419</ele>
        <time>2017-02-26T17:09:00Z</time>
      </trkpt>
      <trkpt lat="44.77418" lon="6.31491">
        <ele>2444</ele>
        <time>2017-02-26T17:09:20Z</time>
      </trkpt>
      <trkpt lat="44.77362" lon="6.31264">
        <ele>2468</ele>
        <time>2017-02-26T17:09:40Z</time>
      </trkpt>
      <trkpt lat="44.77325" lon="6.31287">
        <ele>2466</ele>
        <time>2017-02-26T17:10:00Z</time>
      </trkpt>
      <trkpt lat="44.77328" lon="6.31223">
        <ele>2476</ele>
        <time>2017-02-26T17:10:20Z</time>
      </trkpt>
      <trkpt lat="44.77313" lon="6.31234">
        <ele>2475</ele>
        <time>2017-02-26T17:10:40Z</time>
      </trkpt>
      <trkpt lat="44.77303" lon="6.31135">
        <ele>2492</ele>
        <time>2017-02-26T17:11:00Z</time>
      </trkpt>
      <trkpt lat="44.77254" lon="6.31084">
        <ele>2499</ele>
        <time>2017-02-26T17:11:20Z</time>
      </trkpt>
      <trkpt lat="44.77304" lon="6.30968">
        <ele>2524</ele>
        <time>2017-02-26T17:11:40Z</time>
      </trkpt>
      <trkpt lat="44.77296" lon="6.30933">
        <ele>2528</ele>
        <time>2017-02-26T17:12:00Z</time>
      </trkpt>
      <trkpt lat="44.77278" lon="6.30955">
        <ele>2526</ele>
        <time>2017-02-26T17:12:20Z</time>
      </trkpt>
      <trkpt lat="44.77258" lon="6.30884">
        <ele>2537</ele>
        <time>2017-02-26T17:12:40Z</time>
      </trkpt>
      <trkpt lat="44.77272" lon="6.30811">
        <ele>2604.7</ele>
        <time>2017-02-26T17:13:00Z</time>
      </trkpt>
      <trkpt lat="44.77272" lon="6.30732">
        <ele>2627.1</ele>
        <time>2017-02-26T17:13:20Z</time>
      </trkpt>
      <trkpt lat="44.77316" lon="6.30618">
        <ele>2638.8</ele>
        <time>2017-02-26T17:13:40Z</time>
      </trkpt>
      <trkpt lat="44.77287" lon="6.30618">
        <ele>2648.1</ele>
        <time>2017-02-26T17:14:00Z</time>
      </trkpt>
      <trkpt lat="44.77307" lon="6.30573">
        <ele>2660.9</ele>
        <time>2017-02-26T17:14:20Z</time>
      </trkpt>
      <trkpt lat="44.77389" lon="6.30508">
        <ele>2650.9</ele>
        <time>2017-02-26T17:14:40Z</time>
      </trkpt>
      <trkpt lat="44.77385" lon="6.30487">
        <ele>2641.9</ele>
        <time>2017-02-26T17:15:00Z</time>
      </trkpt>
      <trkpt lat="44.77411" lon="6.30487">
        <ele>2635.9</ele>
        <time>2017-02-26T17:15:20Z</time>
      </trkpt>
      <trkpt lat="44.77389" lon="6.30463">
        <ele>2629</ele>
        <time>2017-02-26T17:15:40Z</time>
      </trkpt>
      <trkpt lat="44.77417" lon="6.30474">
        <ele>2626.2</ele>
        <time>2017-02-26T17:16:00Z</time>
      </trkpt>
      <trkpt lat="44.77408" lon="6.30444">
        <ele>2612.8</ele>
        <time>2017-02-26T17:16:20Z</time>
      </trkpt>
      <trkpt lat="44.77434" lon="6.30453">
        <ele>2612.7</ele>
        <time>2017-02-26T17:16:40Z</time>
      </trkpt>
      <trkpt lat="44.77423" lon="6.30423">
        <ele>2601.4</ele>
        <time>2017-02-26T17:17:00Z</time>
      </trkpt>
      <trkpt lat="44.77447" lon="6.30427">
        <ele>2598.8</ele>
        <time>2017-02-26T17:17:20Z</time>
      </trkpt>
      <trkpt lat="44.77426" lon="6.30363">
        <ele>2552</ele>
        <time>2017-02-26T17:17:40Z</time>
      </trkpt>
      <trkpt lat="44.77452" lon="6.30373">
        <ele>2552</ele>
        <time>2017-02-26T17:18:00Z</time>
      </trkpt>
      <trkpt lat="44.7744" lon="6.30335">
        <ele>2552</ele>
        <time>2017-02-26T17:18:20Z</time>
      </trkpt>
      <trkpt lat="44.77464" lon="6.30341">
        <ele>2552</ele>
        <time>2017-02-26T17:18:40Z</time>
      </trkpt>
      <trkpt lat="44.77504" lon="6.3023">
        <ele>2528</ele>
        <time>2017-02-26T17:19:00Z</time>
      </trkpt>
      <trkpt lat="44.77565" lon="6.30206">
        <ele>2522</ele>
        <time>2017-02-26T17:19:20Z</time>
      </trkpt>
      <trkpt lat="44.77592" lon="6.29996">
        <ele>2484</ele>
        <time>2017-02-26T17:19:40Z</time>
      </trkpt>
      <trkpt lat="44.77692" lon="6.29721">
        <ele>2492</ele>
        <time>2017-02-26T17:20:00Z</time>
      </trkpt>
      <trkpt lat="44.77692" lon="6.29624">
        <ele>2491</ele>
        <time>2017-02-26T17:20:20Z</time>
      </trkpt>
      <trkpt lat="44.77712" lon="6.295">
        <ele>2502</ele>
        <time>2017-02-26T17:20:40Z</time>
      </trkpt>
      <trkpt lat="44.77708" lon="6.293">
        <ele>2535</ele>
        <time>2017-02-26T17:21:00Z</time>
      </trkpt>
      <trkpt lat="44.77753" lon="6.29217">
        <ele>2550</ele>
        <time>2017-02-26T17:21:20Z</time>
      </trkpt>
      <trkpt lat="44.77721" lon="6.29109">
        <ele>2572</ele>
        <time>2017-02-26T17:21:40Z</time>
      </trkpt>
      <trkpt lat="44.77752" lon="6.29099">
        <ele>2583.1</ele>
        <time>2017-02-26T17:22:00Z</time>
      </trkpt>
      <trkpt lat="44.77724" lon="6.29019">
        <ele>2601.3</ele>
        <time>2017-02-26T17:22:20Z</time>
      </trkpt>
      <trkpt lat="44.77769" lon="6.29019">
        <ele>2588.2</ele>
        <time>2017-02-26T17:22:40Z</time>
      </trkpt>
      <trkpt lat="44.77848" lon="6.28959">
        <ele>2546</ele>
        <time>2017-02-26T17:23:00Z</time>
      </trkpt>
      <trkpt lat="44.77886" lon="6.28968">
        <ele>2545</ele>
        <time>2017-02-26T17:23:20Z</time>
      </trkpt>
      <trkpt lat="44.77881" lon="6.28914">
        <ele>2539</ele>
        <time>2017-02-26T17:23:40Z</time>
      </trkpt>
      <trkpt lat="44.77936" lon="6.28906">
        <ele>2535</ele>
        <time>2017-02-26T17:24:00Z</time>
      </trkpt>
      <trkpt lat="44.7799" lon="6.2888">
        <ele>2529</ele>
        <time>2017-02-26T17:24:20Z</time>
      </trkpt>
      <trkpt lat="44.7812" lon="6.28873">
        <ele>2501</ele>
        <time>2017-02-26T17:24:40Z</time>
      </trkpt>
      <trkpt lat="44.78101" lon="6.28835">
        <ele>2493</ele>
        <time>2017-02-26T17:25:00Z</time>
      </trkpt>
      <trkpt lat="44.78162" lon="6.28835">
        <ele>2479</ele>
        <time>2017-02-26T17:25:20Z</time>
      </trkpt>
      <trkpt lat="44.78212" lon="6.28796">
        <ele>2467</ele>
        <time>2017-02-26T17:25:40Z</time>
      </trkpt>
      <trkpt lat="44.78242" lon="6.28702">
        <ele>2443</ele>
        <time>2017-02-26T17:26:00Z</time>
      </trkpt>
      <trkpt lat="44.78318" lon="6.28672">
        <ele>2446</ele>
        <time>2017-02-26T17:26:20Z</time>
      </trkpt>
      <trkpt lat="44.78334" lon="6.28642">
        <ele>2441</ele>
        <time>2017-02-26T17:26:40Z</time>
      </trkpt>
      <trkpt lat="44.78347" lon="6.28579">
        <ele>2424</ele>
        <time>2017-02-26T17:27:00Z</time>
      </trkpt>
      <trkpt lat="44.78364" lon="6.28586">
        <ele>2437</ele>
        <time>2017-02-26T17:27:20Z</time>
      </trkpt>
      <trkpt lat="44.78381" lon="6.28541">
        <ele>2422</ele>
        <time>2017-02-26T17:27:40Z</time>
      </trkpt>
      <trkpt lat="44.7841" lon="6.28524">
        <ele>2421</ele>
        <time>2017-02-26T17:28:00Z</time>
      </trkpt>
      <trkpt lat="44.78453" lon="6.28511">
        <ele>2437</ele>
        <time>2017-02-26T17:28:20Z</time>
      </trkpt>
      <trkpt lat="44.78478" lon="6.28371">
        <ele>2417</ele>
        <time>2017-02-26T17:28:40Z</time>
      </trkpt>
      <trkpt lat="44.78516" lon="6.28339">
        <ele>2432</ele>
        <time>2017-02-26T17:29:00Z</time>
      </trkpt>
      <trkpt lat="44.78515" lon="6.28307">
        <ele>2428</ele>
        <time>2017-02-26T17:29:20Z</time>
      </trkpt>
      <trkpt lat="44.78547" lon="6.28294">
        <ele>2434</ele>
        <time>2017-02-26T17:29:40Z</time>
      </trkpt>
      <trkpt lat="44.78561" lon="6.28318">
        <ele>2439</ele>
        <time>2017-02-26T17:30:00Z</time>
      </trkpt>
      <trkpt lat="44.78596" lon="6.28236">
        <ele>2456</ele>
        <time>2017-02-26T17:30:20Z</time>
      </trkpt>
      <trkpt lat="44.78617" lon="6.28176">
        <ele>2461</ele>
        <time>2017-02-26T17:30:40Z</time>
      </trkpt>
      <trkpt lat="44.78731" lon="6.28135">
        <ele>2507</ele>
        <time>2017-02-26T17:31:00Z</time>
      </trkpt>
      <trkpt lat="44.78728" lon="6.2806">
        <ele>2504</ele>
        <time>2017-02-26T17:31:20Z</time>
      </trkpt>
      <trkpt lat="44.78794" lon="6.28056">
        <ele>2522</ele>
        <time>2017-02-26T17:31:40Z</time>
      </trkpt>
      <trkpt lat="44.78829" lon="6.28022">
        <ele>2522</ele>
        <time>2017-02-26T17:32:00Z</time>
      </trkpt>
      <trkpt lat="44.78855" lon="6.28037">
        <ele>2582.5</ele>
        <time>2017-02-26T17:32:20Z</time>
      </trkpt>
      <trkpt lat="44.78873" lon="6.28022">
        <ele>2591.5</ele>
        <time>2017-02-26T17:32:40Z</time>
      </trkpt>
      <trkpt lat="44.78874" lon="6.28152">
        <ele>2605.9</ele>
        <time>2017-02-26T17:33:00Z</time>
      </trkpt>
      <trkpt lat="44.78891" lon="6.28197">
        <ele>2599.6</ele>
        <time>2017-02-26T17:33:20Z</time>
      </trkpt>
      <trkpt lat="44.78938" lon="6.28103">
        <ele>2619.1</ele>
        <time>2017-02-26T17:33:40Z</time>
      </trkpt>
      <trkpt lat="44.78992" lon="6.2812">
        <ele>2593.4</ele>
        <time>2017-02-26T17:34:00Z</time>
      </trkpt>
      <trkpt lat="44.78993" lon="6.28155">
        <ele>2578.7</ele>
        <time>2017-02-26T17:34:20Z</time>
      </trkpt>
      <trkpt lat="44.79034" lon="6.28172">
        <ele>2545</ele>
        <time>2017-02-26T17:34:40Z</time>
      </trkpt>
      <trkpt lat="44.79013" lon="6.28182">
        <ele>2546</ele>
        <time>2017-02-26T17:35:00Z</time>
      </trkpt>
      <trkpt lat="44.79045" lon="6.28245">
        <ele>2545</ele>
        <time>2017-02-26T17:35:20Z</time>
      </trkpt>
      <trkpt lat="44.79112" lon="6.28249">
        <ele>2545</ele>
        <time>2017-02-26T17:35:40Z</time>
      </trkpt>
      <trkpt lat="44.791" lon="6.28363">
        <ele>2509</ele>
        <time>2017-02-26T17:36:00Z</time>
      </trkpt>
      <trkpt lat="44.79164" lon="6.28397">
        <ele>2502</ele>
        <time>2017-02-26T17:36:20Z</time>
      </trkpt>
      <trkpt lat="44.7913" lon="6.28416">
        <ele>2501</ele>
        <time>2017-02-26T17:36:40Z</time>
      </trkpt>
      <trkpt lat="44.79132" lon="6.28459">
        <ele>2473</ele>
        <time>2017-02-26T17:37:00Z</time>
      </trkpt>
      <trkpt lat="44.79183" lon="6.28476">
        <ele>2477</ele>
        <time>2017-02-26T17:37:20Z</time>
      </trkpt>
      <trkpt lat="44.79116" lon="6.28526">
        <ele>2447</ele>
        <time>2017-02-26T17:37:40Z</time>
      </trkpt>
      <trkpt lat="44.7924" lon="6.28655">
        <ele>2426</ele>
        <time>2017-02-26T17:38:00Z</time>
      </trkpt>
      <trkpt lat="44.79255" lon="6.28691">
        <ele>2412</ele>
        <time>2017-02-26T17:38:20Z</time>
      </trkpt>
      <trkpt lat="44.79339" lon="6.28732">
        <ele>2388</ele>
        <time>2017-02-26T17:38:40Z</time>
      </trkpt>
      <trkpt lat="44.79471" lon="6.28646">
        <ele>2379</ele>
        <time>2017-02-26T17:39:00Z</time>
      </trkpt>
      <trkpt lat="44.79424" lon="6.28747">
        <ele>2359</ele>
        <time>2017-02-26T17:39:20Z</time>
      </trkpt>
      <trkpt lat="44.79502" lon="6.28738">
        <ele>2337</ele>
        <time>2017-02-26T17:39:40Z</time>
      </trkpt>
      <trkpt lat="44.79525" lon="6.28755">
        <ele>2326</ele>
        <time>2017-02-26T17:40:00Z</time>
      </trkpt>
      <trkpt lat="44.79601" lon="6.28747">
        <ele>2317</ele>
        <time>2017-02-26T17:40:20Z</time>
      </trkpt>
      <trkpt lat="44.79576" lon="6.28813">
        <ele>2314</ele>
        <time>2017-02-26T17:40:40Z</time>
      </trkpt>
      <trkpt lat="44.79578" lon="6.28867">
        <ele>2305</ele>
        <time>2017-02-26T17:41:00Z</time>
      </trkpt>
      <trkpt lat="44.79723" lon="6.28856">
        <ele>2284</ele>
        <time>2017-02-26T17:41:20Z</time>
      </trkpt>
      <trkpt lat="44.79838" lon="6.28916">
        <ele>2278</ele>
        <time>2017-02-26T17:41:40Z</time>
      </trkpt>
      <trkpt lat="44.79864" lon="6.28968">
        <ele>2274</ele>
        <time>2017-02-26T17:42:00Z</time>
      </trkpt>
      <trkpt lat="44.79831" lon="6.29024">
        <ele>2273</ele>
        <time>2017-02-26T17:42:20Z</time>
      </trkpt>
      <trkpt lat="44.79809" lon="6.2903">
        <ele>2273</ele>
        <time>2017-02-26T17:42:40Z</time>
      </trkpt>
      <trkpt lat="44.79809" lon="6.29122">
        <ele>2271</ele>
        <time>2017-02-26T17:43:00Z</time>
      </trkpt>
      <trkpt lat="44.79849" lon="6.29185">
        <ele>2262</ele>
        <time>2017-02-26T17:43:20Z</time>
      </trkpt>
      <trkpt lat="44.79994" lon="6.29144">
        <ele>2247</ele>
        <time>2017-02-26T17:43:40Z</time>
      </trkpt>
      <trkpt lat="44.80074" lon="6.2918">
        <ele>2217</ele>
        <time>2017-02-26T17:44:00Z</time>
      </trkpt>
      <trkpt lat="44.80077" lon="6.29212">
        <ele>2217</ele>
        <time>2017-02-26T17:44:20Z</time>
      </trkpt>
      <trkpt lat="44.80115" lon="6.29167">
        <ele>2195</ele>
        <time>2017-02-26T17:44:40Z</time>
      </trkpt>
      <trkpt lat="44.80135" lon="6.29221">
        <ele>2187</ele>
        <time>2017-02-26T17:45:00Z</time>
      </trkpt>
      <trkpt lat="44.80149" lon="6.29189">
        <ele>2185</ele>
        <time>2017-02-26T17:45:20Z</time>
      </trkpt>
      <trkpt lat="44.80166" lon="6.29215">
        <ele>2182</ele>
        <time>2017-02-26T17:45:40Z</time>
      </trkpt>
      <trkpt lat="44.8019" lon="6.29193">
        <ele>2155</ele>
        <time>2017-02-26T17:46:00Z</time>
      </trkpt>
      <trkpt lat="44.80178" lon="6.29234">
        <ele>2158</ele>
        <time>2017-02-26T17:46:20Z</time>
      </trkpt>
      <trkpt lat="44.80204" lon="6.29215">
        <ele>2150</ele>
        <time>2017-02-26T17:46:40Z</time>
      </trkpt>
      <trkpt lat="44.80216" lon="6.29257">
        <ele>2146</ele>
        <time>2017-02-26T17:47:00Z</time>
      </trkpt>
      <trkpt lat="44.80251" lon="6.29148">
        <ele>2118</ele>
        <time>2017-02-26T17:47:20Z</time>
      </trkpt>
      <trkpt lat="44.80272" lon="6.29245">
        <ele>2116</ele>
        <time>2017-02-26T17:47:40Z</time>
      </trkpt>
      <trkpt lat="44.80313" lon="6.29172">
        <ele>2101</ele>
        <time>2017-02-26T17:48:00Z</time>
      </trkpt>
      <trkpt lat="44.80298" lon="6.29137">
        <ele>2106</ele>
        <time>2017-02-26T17:48:20Z</time>
      </trkpt>
      <trkpt lat="44.80309" lon="6.29107">
        <ele>2102</ele>
        <time>2017-02-26T17:48:40Z</time>
      </trkpt>
      <trkpt lat="44.80324" lon="6.29137">
        <ele>2100</ele>
        <time>2017-02-26T17:49:00Z</time>
      </trkpt>
      <trkpt lat="44.80376" lon="6.29154">
        <ele>2074</ele>
        <time>2017-02-26T17:49:20Z</time>
      </trkpt>
      <trkpt lat="44.80386" lon="6.29187">
        <ele>2074</ele>
        <time>2017-02-26T17:49:40Z</time>
      </trkpt>
      <trkpt lat="44.8038" lon="6.29219">
        <ele>2076</ele>
        <time>2017-02-26T17:50:00Z</time>
      </trkpt>
      <trkpt lat="44.80388" lon="6.29238">
        <ele>2074</ele>
        <time>2017-02-26T17:50:20Z</time>
      </trkpt>
      <trkpt lat="44.80411" lon="6.29232">
        <ele>2071</ele>
        <time>2017-02-26T17:50:40Z</time>
      </trkpt>
      <trkpt lat="44.80502" lon="6.29257">
        <ele>2035</ele>
        <time>2017-02-26T17:51:00Z</time>
      </trkpt>
      <trkpt lat="44.80493" lon="6.29285">
        <ele>2053</ele>
        <time>2017-02-26T17:51:20Z</time>
      </trkpt>
      <trkpt lat="44.8052" lon="6.29315">
        <ele>2028</ele>
        <time>2017-02-26T17:51:40Z</time>
      </trkpt>
      <trkpt lat="44.80507" lon="6.29365">
        <ele>2032</ele>
        <time>2017-02-26T17:52:00Z</time>
      </trkpt>
      <trkpt lat="44.80525" lon="6.2941">
        <ele>2032</ele>
        <time>2017-02-26T17:52:20Z</time>
      </trkpt>
      <trkpt lat="44.80534" lon="6.29363">
        <ele>2025</ele>
        <time>2017-02-26T17:52:40Z</time>
      </trkpt>
      <trkpt lat="44.8059" lon="6.29524">
        <ele>1981</ele>
        <time>2017-02-26T17:53:00Z</time>
      </trkpt>
      <trkpt lat="44.80606" lon="6.29416">
        <ele>1976</ele>
        <time>2017-02-26T17:53:20Z</time>
      </trkpt>
      <trkpt lat="44.80662" lon="6.29569">
        <ele>1955</ele>
        <time>2017-02-26T17:53:40Z</time>
      </trkpt>
      <trkpt lat="44.80674" lon="6.29421">
        <ele>1931</ele>
        <time>2017-02-26T17:54:00Z</time>
      </trkpt>
      <trkpt lat="44.80721" lon="6.29566">
        <ele>1908</ele>
        <time>2017-02-26T17:54:20Z</time>
      </trkpt>
      <trkpt lat="44.80738" lon="6.29453">
        <ele>1905</ele>
        <time>2017-02-26T17:54:40Z</time>
      </trkpt>
      <trkpt lat="44.80775" lon="6.29566">
        <ele>1872</ele>
        <time>2017-02-26T17:55:00Z</time>
      </trkpt>
      <trkpt lat="44.80785" lon="6.29513">
        <ele>1868</ele>
        <time>2017-02-26T17:55:20Z</time>
      </trkpt>
      <trkpt lat="44.80802" lon="6.29564">
        <ele>1863</ele>
        <time>2017-02-26T17:55:40Z</time>
      </trkpt>
      <trkpt lat="44.80823" lon="6.29494">
        <ele>1856</ele>
        <time>2017-02-26T17:56:00Z</time>
      </trkpt>
      <trkpt lat="44.8086" lon="6.29459">
        <ele>1840</ele>
        <time>2017-02-26T17:56:20Z</time>
      </trkpt>
      <trkpt lat="44.80852" lon="6.29496">
        <ele>1841</ele>
        <time>2017-02-26T17:56:40Z</time>
      </trkpt>
      <trkpt lat="44.80863" lon="6.29579">
        <ele>1829</ele>
        <time>2017-02-26T17:57:00Z</time>
      </trkpt>
      <trkpt lat="44.80895" lon="6.29534">
        <ele>1823</ele>
        <time>2017-02-26T17:57:20Z</time>
      </trkpt>
      <trkpt lat="44.80936" lon="6.29515">
        <ele>1798</ele>
        <time>2017-02-26T17:57:40Z</time>
      </trkpt>
      <trkpt lat="44.8093" lon="6.29584">
        <ele>1788</ele>
        <time>2017-02-26T17:58:00Z</time>
      </trkpt>
      <trkpt lat="44.80962" lon="6.29551">
        <ele>1786</ele>
        <time>2017-02-26T17:58:20Z</time>
      </trkpt>
      <trkpt lat="44.80956" lon="6.29579">
        <ele>1786</ele>
        <time>2017-02-26T17:58:40Z</time>
      </trkpt>
      <trkpt lat="44.80979" lon="6.29571">
        <ele>1777</ele>
        <time>2017-02-26T17:59:00Z</time>
      </trkpt>
      <trkpt lat="44.80998" lon="6.29528">
        <ele>1781</ele>
        <time>2017-02-26T17:59:20Z</time>
      </trkpt>
      <trkpt lat="44.81021" lon="6.29509">
        <ele>1758</ele>
        <time>2017-02-26T17:59:40Z</time>
      </trkpt>
      <trkpt lat="44.81023" lon="6.29539">
        <ele>1752</ele>
        <time>2017-02-26T18:00:00Z</time>
      </trkpt>
      <trkpt lat="44.81032" lon="6.29547">
        <ele>1749</ele>
        <time>2017-02-26T18:00:20Z</time>
      </trkpt>
      <trkpt lat="44.81074" lon="6.29496">
        <ele>1742</ele>
        <time>2017-02-26T18:00:40Z</time>
      </trkpt>
      <trkpt lat="44.81081" lon="6.29551">
        <ele>1739</ele>
        <time>2017-02-26T18:01:00Z</time>
      </trkpt>
      <trkpt lat="44.81111" lon="6.29603">
        <ele>1710</ele>
        <time>2017-02-26T18:01:20Z</time>
      </trkpt>
      <trkpt lat="44.81109" lon="6.29659">
        <ele>1706</ele>
        <time>2017-02-26T18:01:40Z</time>
      </trkpt>
      <trkpt lat="44.81132" lon="6.29648">
        <ele>1704</ele>
        <time>2017-02-26T18:02:00Z</time>
      </trkpt>
      <trkpt lat="44.81141" lon="6.29601">
        <ele>1706</ele>
        <time>2017-02-26T18:02:20Z</time>
      </trkpt>
      <trkpt lat="44.81167" lon="6.29592">
        <ele>1701</ele>
        <time>2017-02-26T18:02:40Z</time>
      </trkpt>
      <trkpt lat="44.81247" lon="6.29669">
        <ele>1684</ele>
        <time>2017-02-26T18:03:00Z</time>
      </trkpt>
      <trkpt lat="44.81393" lon="6.29639">
        <ele>1671</ele>
        <time>2017-02-26T18:03:20Z</time>
      </trkpt>
      <trkpt lat="44.81507" lon="6.29586">
        <ele>1656</ele>
        <time>2017-02-26T18:03:40Z</time>
      </trkpt>
      <trkpt lat="44.81673" lon="6.29543">
        <ele>1647</ele>
        <time>2017-02-26T18:04:00Z</time>
      </trkpt>
      <trkpt lat="44.81738" lon="6.29579">
        <ele>1642</ele>
        <time>2017-02-26T18:04:20Z</time>
      </trkpt>
      <trkpt lat="44.81787" lon="6.29551">
        <ele>1640</ele>
        <time>2017-02-26T18:04:40Z</time>
      </trkpt>
      <trkpt lat="44.81919" lon="6.29566">
        <ele>1622</ele>
        <time>2017-02-26T18:05:00Z</time>
      </trkpt>
      <trkpt lat="44.82169" lon="6.29483">
        <ele>1582</ele>
        <time>2017-02-26T18:05:20Z</time>
      </trkpt>
      <trkpt lat="44.82256" lon="6.29386">
        <ele>1588</ele>
        <time>2017-02-26T18:05:40Z</time>
      </trkpt>
      <trkpt lat="44.82464" lon="6.29309">
        <ele>1580</ele>
        <time>2017-02-26T18:06:00Z</time>
      </trkpt>
      <trkpt lat="44.82478" lon="6.29341">
        <ele>1570</ele>
        <time>2017-02-26T18:06:20Z</time>
      </trkpt>
      <trkpt lat="44.82514" lon="6.29305">
        <ele>1565</ele>
        <time>2017-02-26T18:06:40Z</time>
      </trkpt>
      <trkpt lat="44.82619" lon="6.29294">
        <ele>1559</ele>
        <time>2017-02-26T18:07:00Z</time>
      </trkpt>
      <trkpt lat="44.8268" lon="6.29236">
        <ele>1555</ele>
        <time>2017-02-26T18:07:20Z</time>
      </trkpt>
      <trkpt lat="44.82758" lon="6.29202">
        <ele>1547</ele>
        <time>2017-02-26T18:07:40Z</time>
      </trkpt>
      <trkpt lat="44.82811" lon="6.29223">
        <ele>1549</ele>
        <time>2017-02-26T18:08:00Z</time>
      </trkpt>
      <trkpt lat="44.82817" lon="6.2918">
        <ele>1544</ele>
        <time>2017-02-26T18:08:20Z</time>
      </trkpt>
      <trkpt lat="44.8288" lon="6.29114">
        <ele>1534</ele>
        <time>2017-02-26T18:08:40Z</time>
      </trkpt>
      <trkpt lat="44.82998" lon="6.29036">
        <ele>1522</ele>
        <time>2017-02-26T18:09:00Z</time>
      </trkpt>
      <trkpt lat="44.83055" lon="6.28865">
        <ele>1500</ele>
        <time>2017-02-26T18:09:20Z</time>
      </trkpt>
      <trkpt lat="44.83082" lon="6.28807">
        <ele>1491</ele>
        <time>2017-02-26T18:09:40Z</time>
      </trkpt>
      <trkpt lat="44.83088" lon="6.28742">
        <ele>1481</ele>
        <time>2017-02-26T18:10:00Z</time>
      </trkpt>
      <trkpt lat="44.83102" lon="6.28685">
        <ele>1481</ele>
        <time>2017-02-26T18:10:20Z</time>
      </trkpt>
      <trkpt lat="44.831" lon="6.28601">
        <ele>1467</ele>
        <time>2017-02-26T18:10:40Z</time>
      </trkpt>
      <trkpt lat="44.83152" lon="6.28446">
        <ele>1446</ele>
        <time>2017-02-26T18:11:00Z</time>
      </trkpt>
      <trkpt lat="44.83154" lon="6.28348">
        <ele>1435</ele>
        <time>2017-02-26T18:11:20Z</time>
      </trkpt>
      <trkpt lat="44.83195" lon="6.28335">
        <ele>1450</ele>
        <time>2017-02-26T18:11:40Z</time>
      </trkpt>
      <trkpt lat="44.83189" lon="6.28258">
        <ele>1450</ele>
        <time>2017-02-26T18:12:00Z</time>
      </trkpt>
      <trkpt lat="44.83161" lon="6.2815">
        <ele>1429</ele>
        <time>2017-02-26T18:12:20Z</time>
      </trkpt>
      <trkpt lat="44.83189" lon="6.28116">
        <ele>1458</ele>
        <time>2017-02-26T18:12:40Z</time>
      </trkpt>
      <trkpt lat="44.83158" lon="6.28079">
        <ele>1436</ele>
        <time>2017-02-26T18:13:00Z</time>
      </trkpt>
      <trkpt lat="44.83144" lon="6.28049">
        <ele>1436</ele>
        <time>2017-02-26T18:13:20Z</time>
      </trkpt>
      <trkpt lat="44.83091" lon="6.28015">
        <ele>1426</ele>
        <time>2017-02-26T18:13:40Z</time>
      </trkpt>
      <trkpt lat="44.83" lon="6.27934">
        <ele>1416</ele>
        <time>2017-02-26T18:14:00Z</time>
      </trkpt>
      <trkpt lat="44.82962" lon="6.27807">
        <ele>1422</ele>
        <time>2017-02-26T18:14:20Z</time>
      </trkpt>
      <trkpt lat="44.82937" lon="6.27646">
        <ele>1418</ele>
        <time>2017-02-26T18:14:40Z</time>
      </trkpt>
      <trkpt lat="44.82916" lon="6.27599">
        <ele>1404</ele>
        <time>2017-02-26T18:15:00Z</time>
      </trkpt>
      <trkpt lat="44.82898" lon="6.27122">
        <ele>1419</ele>
        <time>2017-02-26T18:15:20Z</time>
      </trkpt>
      <trkpt lat="44.82907" lon="6.27082">
        <ele>1433</ele>
        <time>2017-02-26T18:15:40Z</time>
      </trkpt>
      <trkpt lat="44.82889" lon="6.27043">
        <ele>1426</ele>
        <time>2017-02-26T18:16:00Z</time>
      </trkpt>
      <trkpt lat="44.82886" lon="6.27002">
        <ele>1428</ele>
        <time>2017-02-26T18:16:20Z</time>
      </trkpt>
      <trkpt lat="44.82854" lon="6.26949">
        <ele>1429</ele>
        <time>2017-02-26T18:16:40Z</time>
      </trkpt>
      <trkpt lat="44.82854" lon="6.26889">
        <ele>1441</ele>
        <time>2017-02-26T18:17:00Z</time>
      </trkpt>
      <trkpt lat="44.8282" lon="6.26846">
        <ele>1419</ele>
        <time>2017-02-26T18:17:20Z</time>
      </trkpt>
      <trkpt lat="44.82807" lon="6.26803">
        <ele>1419</ele>
        <time>2017-02-26T18:17:40Z</time>
      </trkpt>
      <trkpt lat="44.82831" lon="6.26779">
        <ele>1425</ele>
        <time>2017-02-26T18:18:00Z</time>
      </trkpt>
      <trkpt lat="44.82782" lon="6.26713">
        <ele>1418</ele>
        <time>2017-02-26T18:18:20Z</time>
      </trkpt>
      <trkpt lat="44.8274" lon="6.26511">
        <ele>1401</ele>
        <time>2017-02-26T18:18:40Z</time>
      </trkpt>
      <trkpt lat="44.82737" lon="6.26419">
        <ele>1408</ele>
        <time>2017-02-26T18:19:00Z</time>
      </trkpt>
      <trkpt lat="44.82682" lon="6.26251">
        <ele>1409</ele>
        <time>2017-02-26T18:19:20Z</time>
      </trkpt>
      <trkpt lat="44.82685" lon="6.26191">
        <ele>1419</ele>
        <time>2017-02-26T18:19:40Z</time>
      </trkpt>
      <trkpt lat="44.8266" lon="6.26133">
        <ele>1395</ele>
        <time>2017-02-26T18:20:00Z</time>
      </trkpt>
      <trkpt lat="44.82656" lon="6.26041">
        <ele>1387</ele>
        <time>2017-02-26T18:20:20Z</time>
      </trkpt>
      <trkpt lat="44.82692" lon="6.25994">
        <ele>1407</ele>
        <time>2017-02-26T18:20:40Z</time>
      </trkpt>
      <trkpt lat="44.82645" lon="6.25957">
        <ele>1379</ele>
        <time>2017-02-26T18:21:00Z</time>
      </trkpt>
      <trkpt lat="44.82597" lon="6.25886">
        <ele>1372</ele>
        <time>2017-02-26T18:21:20Z</time>
      </trkpt>
      <trkpt lat="44.82586" lon="6.25844">
        <ele>1367</ele>
        <time>2017-02-26T18:21:40Z</time>
      </trkpt>
      <trkpt lat="44.8256" lon="6.25884">
        <ele>1344</ele>
        <time>2017-02-26T18:22:00Z</time>
      </trkpt>
      <trkpt lat="44.82536" lon="6.25708">
        <ele>1316</ele>
        <time>2017-02-26T18:22:20Z</time>
      </trkpt>
      <trkpt lat="44.82562" lon="6.25623">
        <ele>1306</ele>
        <time>2017-02-26T18:22:40Z</time>
      </trkpt>
      <trkpt lat="44.82589" lon="6.2559">
        <ele>1327</ele>
        <time>2017-02-26T18:23:00Z</time>
      </trkpt>
      <trkpt lat="44.8256" lon="6.25541">
        <ele>1295</ele>
        <time>2017-02-26T18:23:20Z</time>
      </trkpt>
      <trkpt lat="44.82554" lon="6.25419">
        <ele>1286</ele>
        <time>2017-02-26T18:23:40Z</time>
      </trkpt>
      <trkpt lat="44.82604" lon="6.25202">
        <ele>1284</ele>
        <time>2017-02-26T18:24:00Z</time>
      </trkpt>
      <trkpt lat="44.82589" lon="6.25032">
        <ele>1262</ele>
        <time>2017-02-26T18:24:20Z</time>
      </trkpt>
      <trkpt lat="44.82592" lon="6.24944">
        <ele>1257</ele>
        <time>2017-02-26T18:24:40Z</time>
      </trkpt>
      <trkpt lat="44.82539" lon="6.24595">
        <ele>1218</ele>
        <time>2017-02-26T18:25:00Z</time>
      </trkpt>
      <trkpt lat="44.82525" lon="6.2455">
        <ele>1216</ele>
        <time>2017-02-26T18:25:20Z</time>
      </trkpt>
      <trkpt lat="44.82522" lon="6.24436">
        <ele>1211</ele>
        <time>2017-02-26T18:25:40Z</time>
      </trkpt>
      <trkpt lat="44.8247" lon="6.23957">
        <ele>1186</ele>
        <time>2017-02-26T18:26:00Z</time>
      </trkpt>
      <trkpt lat="44.82489" lon="6.23571">
        <ele>1190</ele>
        <time>2017-02-26T18:26:20Z</time>
      </trkpt>
      <trkpt lat="44.82476" lon="6.23507">
        <ele>1188</ele>
        <time>2017-02-26T18:26:40Z</time>
      </trkpt>
      <trkpt lat="44.82498" lon="6.23417">
        <ele>1186</ele>
        <time>2017-02-26T18:27:00Z</time>
      </trkpt>
      <trkpt lat="44.82472" lon="6.23254">
        <ele>1179</ele>
        <time>2017-02-26T18:27:20Z</time>
      </trkpt>
      <trkpt lat="44.82449" lon="6.23299">
        <ele>1177</ele>
        <time>2017-02-26T18:27:40Z</time>
      </trkpt>
      <trkpt lat="44.82364" lon="6.23318">
        <ele>1176</ele>
        <time>2017-02-26T18:28:00Z</time>
      </trkpt>
      <trkpt lat="44.82289" lon="6.23069">
        <ele>1175</ele>
        <time>2017-02-26T18:28:20Z</time>
      </trkpt>
      <trkpt lat="44.82222" lon="6.22968">
        <ele>1182</ele>
        <time>2017-02-26T18:28:40Z</time>
      </trkpt>
      <trkpt lat="44.82169" lon="6.22803">
        <ele>1169</ele>
        <time>2017-02-26T18:29:00Z</time>
      </trkpt>
      <trkpt lat="44.8207" lon="6.22649">
        <ele>1190</ele>
        <time>2017-02-26T18:29:20Z</time>
      </trkpt>
      <trkpt lat="44.82065" lon="6.22513">
        <ele>1185</ele>
        <time>2017-02-26T18:29:40Z</time>
      </trkpt>
      <trkpt lat="44.82023" lon="6.2235">
        <ele>1176</ele>
        <time>2017-02-26T18:30:00Z</time>
      </trkpt>
      <trkpt lat="44.82008" lon="6.22058">
        <ele>1148</ele>
        <time>2017-02-26T18:30:20Z</time>
      </trkpt>
      <trkpt lat="44.81979" lon="6.21938">
        <ele>1157</ele>
        <time>2017-02-26T18:30:40Z</time>
      </trkpt>
      <trkpt lat="44.81989" lon="6.21915">
        <ele>1149</ele>
        <time>2017-02-26T18:31:00Z</time>
      </trkpt>
      <trkpt lat="44.81979" lon="6.21861">
        <ele>1154</ele>
        <time>2017-02-26T18:31:20Z</time>
      </trkpt>
      <trkpt lat="44.81988" lon="6.21771">
        <ele>1148</ele>
        <time>2017-02-26T18:31:40Z</time>
      </trkpt>
      <trkpt lat="44.8196" lon="6.21552">
        <ele>1135</ele>
        <time>2017-02-26T18:32:00Z</time>
      </trkpt>
      <trkpt lat="44.819" lon="6.21468">
        <ele>1134</ele>
        <time>2017-02-26T18:32:20Z</time>
      </trkpt>
      <trkpt lat="44.81881" lon="6.21348">
        <ele>1132</ele>
        <time>2017-02-26T18:32:40Z</time>
      </trkpt>
      <trkpt lat="44.81858" lon="6.21297">
        <ele>1132</ele>
        <time>2017-02-26T18:33:00Z</time>
      </trkpt>
      <trkpt lat="44.8188" lon="6.21181">
        <ele>1128</ele>
        <time>2017-02-26T18:33:20Z</time>
      </trkpt>
      <trkpt lat="44.81868" lon="6.21114">
        <ele>1130</ele>
        <time>2017-02-26T18:33:40Z</time>
      </trkpt>
      <trkpt lat="44.81889" lon="6.20885">
        <ele>1126</ele>
        <time>2017-02-26T18:34:00Z</time>
      </trkpt>
      <trkpt lat="44.81895" lon="6.20771">
        <ele>1122</ele>
        <time>2017-02-26T18:34:20Z</time>
      </trkpt>
      <trkpt lat="44.81865" lon="6.2067">
        <ele>1120</ele>
        <time>2017-02-26T18:34:40Z</time>
      </trkpt>
      <trkpt lat="44.8186" lon="6.2058">
        <ele>1113</ele>
        <time>2017-02-26T18:35:00Z</time>
      </trkpt>
      <trkpt lat="44.81869" lon="6.20488">
        <ele>1112</ele>
        <time>2017-02-26T18:35:20Z</time>
      </trkpt>
      <trkpt lat="44.81836" lon="6.20363">
        <ele>1112</ele>
        <time>2017-02-26T18:35:40Z</time>
      </trkpt>
      <trkpt lat="44.81855" lon="6.20295">
        <ele>1109</ele>
        <time>2017-02-26T18:36:00Z</time>
      </trkpt>
      <trkpt lat="44.81761" lon="6.20069">
        <ele>1108</ele>
        <time>2017-02-26T18:36:20Z</time>
      </trkpt>
      <trkpt lat="44.81723" lon="6.20014">
        <ele>1125</ele>
        <time>2017-02-26T18:36:40Z</time>
      </trkpt>
      <trkpt lat="44.81714" lon="6.19874">
        <ele>1106</ele>
        <time>2017-02-26T18:37:00Z</time>
      </trkpt>
      <trkpt lat="44.81665" lon="6.19784">
        <ele>1124</ele>
        <time>2017-02-26T18:37:20Z</time>
      </trkpt>
      <trkpt lat="44.81638" lon="6.19638">
        <ele>1112</ele>
        <time>2017-02-26T18:37:40Z</time>
      </trkpt>
      <trkpt lat="44.81668" lon="6.19582">
        <ele>1100</ele>
        <time>2017-02-26T18:38:00Z</time>
      </trkpt>
      <trkpt lat="44.81668" lon="6.19582">
        <ele>1100</ele>
        <time>2017-02-26T18:38:20Z</time>
      </trkpt>
      <trkpt lat="44.81656" lon="6.19552">
        <ele>1103</ele>
        <time>2017-02-26T18:38:40Z</time>
      </trkpt>
      <trkpt lat="44.8165" lon="6.19504">
        <ele>1101</ele>
        <time>2017-02-26T18:39:00Z</time>
      </trkpt>
      <trkpt lat="44.81757" lon="6.19337">
        <ele>1093</ele>
        <time>2017-02-26T18:39:20Z</time>
      </trkpt>
      <trkpt lat="44.81766" lon="6.19144">
        <ele>1091</ele>
        <time>2017-02-26T18:39:40Z</time>
      </trkpt>
      <trkpt lat="44.81801" lon="6.18978">
        <ele>1087</ele>
        <time>2017-02-26T18:40:00Z</time>
      </trkpt>
      <trkpt lat="44.81894" lon="6.1891">
        <ele>1083</ele>
        <time>2017-02-26T18:40:20Z</time>
      </trkpt>
      <trkpt lat="44.8195" lon="6.1874">
        <ele>1083</ele>
        <time>2017-02-26T18:40:40Z</time>
      </trkpt>
      <trkpt lat="44.81983" lon="6.18723">
        <ele>1086</ele>
        <time>2017-02-26T18:41:00Z</time>
      </trkpt>
      <trkpt lat="44.81971" lon="6.18453">
        <ele>1079</ele>
        <time>2017-02-26T18:41:20Z</time>
      </trkpt>
      <trkpt lat="44.81989" lon="6.1838">
        <ele>1075</ele>
        <time>2017-02-26T18:41:40Z</time>
      </trkpt>
      <trkpt lat="44.81986" lon="6.18339">
        <ele>1074</ele>
        <time>2017-02-26T18:42:00Z</time>
      </trkpt>
      <trkpt lat="44.82012" lon="6.1824">
        <ele>1079</ele>
        <time>2017-02-26T18:42:20Z</time>
      </trkpt>
      <trkpt lat="44.81989" lon="6.18088">
        <ele>1071</ele>
        <time>2017-02-26T18:42:40Z</time>
      </trkpt>
      <trkpt lat="44.82059" lon="6.17914">
        <ele>1075</ele>
        <time>2017-02-26T18:43:00Z</time>
      </trkpt>
      <trkpt lat="44.82026" lon="6.17768">
        <ele>1072</ele>
        <time>2017-02-26T18:43:20Z</time>
      </trkpt>
      <trkpt lat="44.82087" lon="6.17502">
        <ele>1070</ele>
        <time>2017-02-26T18:43:40Z</time>
      </trkpt>
      <trkpt lat="44.82126" lon="6.17335">
        <ele>1073</ele>
        <time>2017-02-26T18:44:00Z</time>
      </trkpt>
      <trkpt lat="44.82085" lon="6.17318">
        <ele>1064</ele>
        <time>2017-02-26T18:44:20Z</time>
      </trkpt>
      <trkpt lat="44.82122" lon="6.17103">
        <ele>1060</ele>
        <time>2017-02-26T18:44:40Z</time>
      </trkpt>
      <trkpt lat="44.82209" lon="6.16938">
        <ele>1063</ele>
        <time>2017-02-26T18:45:00Z</time>
      </trkpt>
      <trkpt lat="44.82239" lon="6.16721">
        <ele>1055</ele>
        <time>2017-02-26T18:45:20Z</time>
      </trkpt>
      <trkpt lat="44.82174" lon="6.16427">
        <ele>1048</ele>
        <time>2017-02-26T18:45:40Z</time>
      </trkpt>
      <trkpt lat="44.82101" lon="6.16247">
        <ele>1051</ele>
        <time>2017-02-26T18:46:00Z</time>
      </trkpt>
      <trkpt lat="44.82174" lon="6.15676">
        <ele>1044</ele>
        <time>2017-02-26T18:46:20Z</time>
      </trkpt>
      <trkpt lat="44.82291" lon="6.15571">
        <ele>1035</ele>
        <time>2017-02-26T18:46:40Z</time>
      </trkpt>
      <trkpt lat="44.82338" lon="6.15438">
        <ele>1033</ele>
        <time>2017-02-26T18:47:00Z</time>
      </trkpt>
      <trkpt lat="44.82336" lon="6.15266">
        <ele>1031</ele>
        <time>2017-02-26T18:47:20Z</time>
      </trkpt>
      <trkpt lat="44.82358" lon="6.152">
        <ele>1031</ele>
        <time>2017-02-26T18:47:40Z</time>
      </trkpt>
      <trkpt lat="44.82368" lon="6.15026">
        <ele>1034</ele>
        <time>2017-02-26T18:48:00Z</time>
      </trkpt>
      <trkpt lat="44.82368" lon="6.15026">
        <ele>1034</ele>
        <time>2017-02-26T18:48:20Z</time>
      </trkpt>
      <trkpt lat="44.82438" lon="6.14998">
        <ele>1044</ele>
        <time>2017-02-26T18:48:40Z</time>
      </trkpt>
      <trkpt lat="44.82411" lon="6.14861">
        <ele>1032</ele>
        <time>2017-02-26T18:49:00Z</time>
      </trkpt>
      <trkpt lat="44.82446" lon="6.14886">
        <ele>1046</ele>
        <time>2017-02-26T18:49:20Z</time>
      </trkpt>
      <trkpt lat="44.82469" lon="6.14876">
        <ele>1050</ele>
        <time>2017-02-26T18:49:40Z</time>
      </trkpt>
      <trkpt lat="44.82487" lon="6.14723">
        <ele>1042</ele>
        <time>2017-02-26T18:50:00Z</time>
      </trkpt>
      <trkpt lat="44.82484" lon="6.1464">
        <ele>1036</ele>
        <time>2017-02-26T18:50:20Z</time>
      </trkpt>
      <trkpt lat="44.82502" lon="6.14537">
        <ele>1040</ele>
        <time>2017-02-26T18:50:40Z</time>
      </trkpt>
      <trkpt lat="44.82574" lon="6.14462">
        <ele>1037</ele>
        <time>2017-02-26T18:51:00Z</time>
      </trkpt>
      <trkpt lat="44.82571" lon="6.14356">
        <ele>1033</ele>
        <time>2017-02-26T18:51:20Z</time>
      </trkpt>
      <trkpt lat="44.82613" lon="6.14427">
        <ele>1046</ele>
        <time>2017-02-26T18:51:40Z</time>
      </trkpt>
      <trkpt lat="44.82677" lon="6.14425">
        <ele>1059</ele>
        <time>2017-02-26T18:52:00Z</time>
      </trkpt>
      <trkpt lat="44.82668" lon="6.14459">
        <ele>1063</ele>
        <time>2017-02-26T18:52:20Z</time>
      </trkpt>
      <trkpt lat="44.8261" lon="6.14567">
        <ele>1062</ele>
        <time>2017-02-26T18:52:40Z</time>
      </trkpt>
      <trkpt lat="44.82655" lon="6.14543">
        <ele>1061</ele>
        <time>2017-02-26T18:53:00Z</time>
      </trkpt>
      <trkpt lat="44.8269" lon="6.14625">
        <ele>1091</ele>
        <time>2017-02-26T18:53:20Z</time>
      </trkpt>
      <trkpt lat="44.82823" lon="6.14539">
        <ele>1122</ele>
        <time>2017-02-26T18:53:40Z</time>
      </trkpt>
      <trkpt lat="44.82907" lon="6.14429">
        <ele>1159</ele>
        <time>2017-02-26T18:54:00Z</time>
      </trkpt>
      <trkpt lat="44.82927" lon="6.1435">
        <ele>1157</ele>
        <time>2017-02-26T18:54:20Z</time>
      </trkpt>
      <trkpt lat="44.83068" lon="6.14322">
        <ele>1186</ele>
        <time>2017-02-26T18:54:40Z</time>
      </trkpt>
      <trkpt lat="44.83158" lon="6.14262">
        <ele>1206</ele>
        <time>2017-02-26T18:55:00Z</time>
      </trkpt>
      <trkpt lat="44.83186" lon="6.14219">
        <ele>1212</ele>
        <time>2017-02-26T18:55:20Z</time>
      </trkpt>
      <trkpt lat="44.83228" lon="6.142">
        <ele>1219</ele>
        <time>2017-02-26T18:55:40Z</time>
      </trkpt>
      <trkpt lat="44.83242" lon="6.14148">
        <ele>1215</ele>
        <time>2017-02-26T18:56:00Z</time>
      </trkpt>
      <trkpt lat="44.83281" lon="6.14131">
        <ele>1236</ele>
        <time>2017-02-26T18:56:20Z</time>
      </trkpt>
      <trkpt lat="44.83272" lon="6.14165">
        <ele>1233</ele>
        <time>2017-02-26T18:56:40Z</time>
      </trkpt>
      <trkpt lat="44.83313" lon="6.14114">
        <ele>1241</ele>
        <time>2017-02-26T18:57:00Z</time>
      </trkpt>
      <trkpt lat="44.83418" lon="6.14054">
        <ele>1294</ele>
        <time>2017-02-26T18:57:20Z</time>
      </trkpt>
      <trkpt lat="44.83432" lon="6.14067">
        <ele>1295</ele>
        <time>2017-02-26T18:57:40Z</time>
      </trkpt>
      <trkpt lat="44.83409" lon="6.14086">
        <ele>1285</ele>
        <time>2017-02-26T18:58:00Z</time>
      </trkpt>
      <trkpt lat="44.83429" lon="6.14084">
        <ele>1304</ele>
        <time>2017-02-26T18:58:20Z</time>
      </trkpt>
      <trkpt lat="44.83409" lon="6.1412">
        <ele>1292</ele>
        <time>2017-02-26T18:58:40Z</time>
      </trkpt>
      <trkpt lat="44.83464" lon="6.1409">
        <ele>1329</ele>
        <time>2017-02-26T18:59:00Z</time>
      </trkpt>
      <trkpt lat="44.83495" lon="6.14032">
        <ele>1310</ele>
        <time>2017-02-26T18:59:20Z</time>
      </trkpt>
      <trkpt lat="44.83487" lon="6.14084">
        <ele>1336</ele>
        <time>2017-02-26T18:59:40Z</time>
      </trkpt>
      <trkpt lat="44.83598" lon="6.13972">
        <ele>1365</ele>
        <time>2017-02-26T19:00:00Z</time>
      </trkpt>
      <trkpt lat="44.83537" lon="6.14148">
        <ele>1391</ele>
        <time>2017-02-26T19:00:20Z</time>
      </trkpt>
      <trkpt lat="44.8346" lon="6.14262">
        <ele>1406</ele>
        <time>2017-02-26T19:00:40Z</time>
      </trkpt>
      <trkpt lat="44.83536" lon="6.1423">
        <ele>1426</ele>
        <time>2017-02-26T19:01:00Z</time>
      </trkpt>
      <trkpt lat="44.83534" lon="6.14273">
        <ele>1454</ele>
        <time>2017-02-26T19:01:20Z</time>
      </trkpt>
      <trkpt lat="44.83698" lon="6.14204">
        <ele>1508</ele>
        <time>2017-02-26T19:01:40Z</time>
      </trkpt>
      <trkpt lat="44.83689" lon="6.14253">
        <ele>1535</ele>
        <time>2017-02-26T19:02:00Z</time>
      </trkpt>
      <trkpt lat="44.83796" lon="6.14172">
        <ele>1550</ele>
        <time>2017-02-26T19:02:20Z</time>
      </trkpt>
      <trkpt lat="44.83755" lon="6.14258">
        <ele>1572</ele>
        <time>2017-02-26T19:02:40Z</time>
      </trkpt>
      <trkpt lat="44.8398" lon="6.14146">
        <ele>1602</ele>
        <time>2017-02-26T19:03:00Z</time>
      </trkpt>
      <trkpt lat="44.83892" lon="6.14273">
        <ele>1636</ele>
        <time>2017-02-26T19:03:20Z</time>
      </trkpt>
      <trkpt lat="44.8398" lon="6.14236">
        <ele>1642</ele>
        <time>2017-02-26T19:03:40Z</time>
      </trkpt>
      <trkpt lat="44.83936" lon="6.14298">
        <ele>1667</ele>
        <time>2017-02-26T19:04:00Z</time>
      </trkpt>
      <trkpt lat="44.84077" lon="6.1426">
        <ele>1689</ele>
        <time>2017-02-26T19:04:20Z</time>
      </trkpt>
      <trkpt lat="44.84004" lon="6.14344">
        <ele>1714</ele>
        <time>2017-02-26T19:04:40Z</time>
      </trkpt>
      <trkpt lat="44.84106" lon="6.14329">
        <ele>1727</ele>
        <time>2017-02-26T19:05:00Z</time>
      </trkpt>
      <trkpt lat="44.84147" lon="6.14384">
        <ele>1774</ele>
        <time>2017-02-26T19:05:20Z</time>
      </trkpt>
      <trkpt lat="44.84205" lon="6.14279">
        <ele>1754</ele>
        <time>2017-02-26T19:05:40Z</time>
      </trkpt>
      <trkpt lat="44.84321" lon="6.14273">
        <ele>1788</ele>
        <time>2017-02-26T19:06:00Z</time>
      </trkpt>
      <trkpt lat="44.84231" lon="6.14356">
        <ele>1799</ele>
        <time>2017-02-26T19:06:20Z</time>
      </trkpt>
      <trkpt lat="44.84299" lon="6.14359">
        <ele>1832</ele>
        <time>2017-02-26T19:06:40Z</time>
      </trkpt>
      <trkpt lat="44.84217" lon="6.14459">
        <ele>1846</ele>
        <time>2017-02-26T19:07:00Z</time>
      </trkpt>
      <trkpt lat="44.8426" lon="6.14466">
        <ele>1869</ele>
        <time>2017-02-26T19:07:20Z</time>
      </trkpt>
      <trkpt lat="44.84357" lon="6.1441">
        <ele>1867</ele>
        <time>2017-02-26T19:07:40Z</time>
      </trkpt>
      <trkpt lat="44.84485" lon="6.14474">
        <ele>1912</ele>
        <time>2017-02-26T19:08:00Z</time>
      </trkpt>
      <trkpt lat="44.8447" lon="6.14492">
        <ele>1914</ele>
        <time>2017-02-26T19:08:20Z</time>
      </trkpt>
      <trkpt lat="44.8455" lon="6.14543">
        <ele>1937</ele>
        <time>2017-02-26T19:08:40Z</time>
      </trkpt>
      <trkpt lat="44.8457" lon="6.14515">
        <ele>1934</ele>
        <time>2017-02-26T19:09:00Z</time>
      </trkpt>
      <trkpt lat="44.84605" lon="6.14539">
        <ele>1949</ele>
        <time>2017-02-26T19:09:20Z</time>
      </trkpt>
      <trkpt lat="44.84617" lon="6.14453">
        <ele>1933</ele>
        <time>2017-02-26T19:09:40Z</time>
      </trkpt>
      <trkpt lat="44.8473" lon="6.14397">
        <ele>1961</ele>
        <time>2017-02-26T19:10:00Z</time>
      </trkpt>
      <trkpt lat="44.84832" lon="6.14157">
        <ele>1964</ele>
        <time>2017-02-26T19:10:20Z</time>
      </trkpt>
      <trkpt lat="44.84871" lon="6.14015">
        <ele>1972</ele>
        <time>2017-02-26T19:10:40Z</time>
      </trkpt>
      <trkpt lat="44.84963" lon="6.13917">
        <ele>2001</ele>
        <time>2017-02-26T19:11:00Z</time>
      </trkpt>
      <trkpt lat="44.84935" lon="6.14054">
        <ele>2031</ele>
        <time>2017-02-26T19:11:20Z</time>
      </trkpt>
      <trkpt lat="44.85037" lon="6.13936">
        <ele>2062</ele>
        <time>2017-02-26T19:11:40Z</time>
      </trkpt>
      <trkpt lat="44.85071" lon="6.13854">
        <ele>2064</ele>
        <time>2017-02-26T19:12:00Z</time>
      </trkpt>
      <trkpt lat="44.85101" lon="6.13856">
        <ele>2098</ele>
        <time>2017-02-26T19:12:20Z</time>
      </trkpt>
      <trkpt lat="44.85103" lon="6.13833">
        <ele>2093</ele>
        <time>2017-02-26T19:12:40Z</time>
      </trkpt>
      <trkpt lat="44.85056" lon="6.13803">
        <ele>2054</ele>
        <time>2017-02-26T19:13:00Z</time>
      </trkpt>
      <trkpt lat="44.85078" lon="6.137">
        <ele>2046</ele>
        <time>2017-02-26T19:13:20Z</time>
      </trkpt>
      <trkpt lat="44.85046" lon="6.13732">
        <ele>2041</ele>
        <time>2017-02-26T19:13:40Z</time>
      </trkpt>
      <trkpt lat="44.85098" lon="6.1359">
        <ele>2077</ele>
        <time>2017-02-26T19:14:00Z</time>
      </trkpt>
      <trkpt lat="44.8504" lon="6.13552">
        <ele>2056</ele>
        <time>2017-02-26T19:14:20Z</time>
      </trkpt>
      <trkpt lat="44.85037" lon="6.13496">
        <ele>2079</ele>
        <time>2017-02-26T19:14:40Z</time>
      </trkpt>
      <trkpt lat="44.84975" lon="6.13466">
        <ele>2051</ele>
        <time>2017-02-26T19:15:00Z</time>
      </trkpt>
      <trkpt lat="44.84963" lon="6.13421">
        <ele>2054</ele>
        <time>2017-02-26T19:15:20Z</time>
      </trkpt>
      <trkpt lat="44.84922" lon="6.13387">
        <ele>2057</ele>
        <time>2017-02-26T19:15:40Z</time>
      </trkpt>
      <trkpt lat="44.84906" lon="6.13307">
        <ele>2040</ele>
        <time>2017-02-26T19:16:00Z</time>
      </trkpt>
      <trkpt lat="44.8482" lon="6.13193">
        <ele>2015</ele>
        <time>2017-02-26T19:16:20Z</time>
      </trkpt>
      <trkpt lat="44.84792" lon="6.1303">
        <ele>2049</ele>
        <time>2017-02-26T19:16:40Z</time>
      </trkpt>
      <trkpt lat="44.84774" lon="6.12985">
        <ele>2054</ele>
        <time>2017-02-26T19:17:00Z</time>
      </trkpt>
      <trkpt lat="44.84762" lon="6.12784">
        <ele>2064</ele>
        <time>2017-02-26T19:17:20Z</time>
      </trkpt>
      <trkpt lat="44.84719" lon="6.12659">
        <ele>2063</ele>
        <time>2017-02-26T19:17:40Z</time>
      </trkpt>
      <trkpt lat="44.84716" lon="6.12524">
        <ele>2077</ele>
        <time>2017-02-26T19:18:00Z</time>
      </trkpt>
      <trkpt lat="44.84634" lon="6.1243">
        <ele>2073</ele>
        <time>2017-02-26T19:18:20Z</time>
      </trkpt>
      <trkpt lat="44.8459" lon="6.12301">
        <ele>2100</ele>
        <time>2017-02-26T19:18:40Z</time>
      </trkpt>
      <trkpt lat="44.84526" lon="6.12324">
        <ele>2116</ele>
        <time>2017-02-26T19:19:00Z</time>
      </trkpt>
      <trkpt lat="44.84506" lon="6.12363">
        <ele>2093</ele>
        <time>2017-02-26T19:19:20Z</time>
      </trkpt>
      <trkpt lat="44.84462" lon="6.12393">
        <ele>2116</ele>
        <time>2017-02-26T19:19:40Z</time>
      </trkpt>
      <trkpt lat="44.8442" lon="6.12438">
        <ele>2105</ele>
        <time>2017-02-26T19:20:00Z</time>
      </trkpt>
      <trkpt lat="44.84432" lon="6.12384">
        <ele>2127</ele>
        <time>2017-02-26T19:20:20Z</time>
      </trkpt>
      <trkpt lat="44.84403" lon="6.12395">
        <ele>2158</ele>
        <time>2017-02-26T19:20:40Z</time>
      </trkpt>
      <trkpt lat="44.84424" lon="6.12357">
        <ele>2141</ele>
        <time>2017-02-26T19:21:00Z</time>
      </trkpt>
      <trkpt lat="44.84379" lon="6.12389">
        <ele>2169</ele>
        <time>2017-02-26T19:21:20Z</time>
      </trkpt>
      <trkpt lat="44.84385" lon="6.12344">
        <ele>2176</ele>
        <time>2017-02-26T19:21:40Z</time>
      </trkpt>
      <trkpt lat="44.84424" lon="6.12316">
        <ele>2169</ele>
        <time>2017-02-26T19:22:00Z</time>
      </trkpt>
      <trkpt lat="44.84369" lon="6.12314">
        <ele>2199</ele>
        <time>2017-02-26T19:22:20Z</time>
      </trkpt>
      <trkpt lat="44.84417" lon="6.12266">
        <ele>2201</ele>
        <time>2017-02-26T19:22:40Z</time>
      </trkpt>
      <trkpt lat="44.84383" lon="6.12243">
        <ele>2215</ele>
        <time>2017-02-26T19:23:00Z</time>
      </trkpt>
      <trkpt lat="44.84353" lon="6.12279">
        <ele>2204</ele>
        <time>2017-02-26T19:23:20Z</time>
      </trkpt>
      <trkpt lat="44.84348" lon="6.12258">
        <ele>2207</ele>
        <time>2017-02-26T19:23:40Z</time>
      </trkpt>
      <trkpt lat="44.84386" lon="6.12151">
        <ele>2244</ele>
        <time>2017-02-26T19:24:00Z</time>
      </trkpt>
      <trkpt lat="44.84433" lon="6.12176">
        <ele>2215</ele>
        <time>2017-02-26T19:24:20Z</time>
      </trkpt>
      <trkpt lat="44.84401" lon="6.12108">
        <ele>2252</ele>
        <time>2017-02-26T19:24:40Z</time>
      </trkpt>
      <trkpt lat="44.8435" lon="6.12133">
        <ele>2249</ele>
        <time>2017-02-26T19:25:00Z</time>
      </trkpt>
      <trkpt lat="44.84404" lon="6.12048">
        <ele>2289</ele>
        <time>2017-02-26T19:25:20Z</time>
      </trkpt>
      <trkpt lat="44.84445" lon="6.12041">
        <ele>2267</ele>
        <time>2017-02-26T19:25:40Z</time>
      </trkpt>
      <trkpt lat="44.84468" lon="6.11996">
        <ele>2294</ele>
        <time>2017-02-26T19:26:00Z</time>
      </trkpt>
      <trkpt lat="44.8454" lon="6.11964">
        <ele>2290</ele>
        <time>2017-02-26T19:26:20Z</time>
      </trkpt>
      <trkpt lat="44.84616" lon="6.12003">
        <ele>2261</ele>
        <time>2017-02-26T19:26:40Z</time>
      </trkpt>
      <trkpt lat="44.84582" lon="6.11964">
        <ele>2290</ele>
        <time>2017-02-26T19:27:00Z</time>
      </trkpt>
      <trkpt lat="44.84645" lon="6.11927">
        <ele>2304</ele>
        <time>2017-02-26T19:27:20Z</time>
      </trkpt>
      <trkpt lat="44.84718" lon="6.11932">
        <ele>2313</ele>
        <time>2017-02-26T19:27:40Z</time>
      </trkpt>
      <trkpt lat="44.84674" lon="6.11893">
        <ele>2334</ele>
        <time>2017-02-26T19:28:00Z</time>
      </trkpt>
      <trkpt lat="44.8459" lon="6.11889">
        <ele>2327</ele>
        <time>2017-02-26T19:28:20Z</time>
      </trkpt>
      <trkpt lat="44.84552" lon="6.11827">
        <ele>2360</ele>
        <time>2017-02-26T19:28:40Z</time>
      </trkpt>
      <trkpt lat="44.84473" lon="6.11812">
        <ele>2378</ele>
        <time>2017-02-26T19:29:00Z</time>
      </trkpt>
      <trkpt lat="44.84532" lon="6.11758">
        <ele>2374</ele>
        <time>2017-02-26T19:29:20Z</time>
      </trkpt>
      <trkpt lat="44.84633" lon="6.11769">
        <ele>2373</ele>
        <time>2017-02-26T19:29:40Z</time>
      </trkpt>
      <trkpt lat="44.84651" lon="6.1173">
        <ele>2397</ele>
        <time>2017-02-26T19:30:00Z</time>
      </trkpt>
      <trkpt lat="44.84592" lon="6.11734">
        <ele>2394</ele>
        <time>2017-02-26T19:30:20Z</time>
      </trkpt>
      <trkpt lat="44.84531" lon="6.11691">
        <ele>2409</ele>
        <time>2017-02-26T19:30:40Z</time>
      </trkpt>
      <trkpt lat="44.84582" lon="6.11578">
        <ele>2447</ele>
        <time>2017-02-26T19:31:00Z</time>
      </trkpt>
      <trkpt lat="44.84643" lon="6.11571">
        <ele>2462</ele>
        <time>2017-02-26T19:31:20Z</time>
      </trkpt>
      <trkpt lat="44.8475" lon="6.11644">
        <ele>2461</ele>
        <time>2017-02-26T19:31:40Z</time>
      </trkpt>
      <trkpt lat="44.84669" lon="6.11462">
        <ele>2495</ele>
        <time>2017-02-26T19:32:00Z</time>
      </trkpt>
      <trkpt lat="44.84697" lon="6.11348">
        <ele>2462</ele>
        <time>2017-02-26T19:32:20Z</time>
      </trkpt>
      <trkpt lat="44.84718" lon="6.11327">
        <ele>2437</ele>
        <time>2017-02-26T19:32:40Z</time>
      </trkpt>
      <trkpt lat="44.8475" lon="6.11361">
        <ele>2447</ele>
        <time>2017-02-26T19:33:00Z</time>
      </trkpt>
      <trkpt lat="44.84777" lon="6.11318">
        <ele>2397</ele>
        <time>2017-02-26T19:33:20Z</time>
      </trkpt>
      <trkpt lat="44.84989" lon="6.11185">
        <ele>2278</ele>
        <time>2017-02-26T19:33:40Z</time>
      </trkpt>
      <trkpt lat="44.85046" lon="6.11125">
        <ele>2238</ele>
        <time>2017-02-26T19:34:00Z</time>
      </trkpt>
      <trkpt lat="44.85066" lon="6.1108">
        <ele>2201</ele>
        <time>2017-02-26T19:34:20Z</time>
      </trkpt>
      <trkpt lat="44.85118" lon="6.11056">
        <ele>2190</ele>
        <time>2017-02-26T19:34:40Z</time>
      </trkpt>
      <trkpt lat="44.85176" lon="6.10942">
        <ele>2151</ele>
        <time>2017-02-26T19:35:00Z</time>
      </trkpt>
      <trkpt lat="44.85305" lon="6.10887">
        <ele>2117</ele>
        <time>2017-02-26T19:35:20Z</time>
      </trkpt>
      <trkpt lat="44.85361" lon="6.10897">
        <ele>2108</ele>
        <time>2017-02-26T19:35:40Z</time>
      </trkpt>
      <trkpt lat="44.85658" lon="6.10736">
        <ele>2002</ele>
        <time>2017-02-26T19:36:00Z</time>
      </trkpt>
      <trkpt lat="44.85837" lon="6.10754">
        <ele>1971</ele>
        <time>2017-02-26T19:36:20Z</time>
      </trkpt>
      <trkpt lat="44.85948" lon="6.10683">
        <ele>1946</ele>
        <time>2017-02-26T19:36:40Z</time>
      </trkpt>
      <trkpt lat="44.86034" lon="6.1073">
        <ele>1937</ele>
        <time>2017-02-26T19:37:00Z</time>
      </trkpt>
      <trkpt lat="44.86104" lon="6.10659">
        <ele>1871</ele>
        <time>2017-02-26T19:37:20Z</time>
      </trkpt>
      <trkpt lat="44.86209" lon="6.10717">
        <ele>1897</ele>
        <time>2017-02-26T19:37:40Z</time>
      </trkpt>
      <trkpt lat="44.86332" lon="6.10694">
        <ele>1890</ele>
        <time>2017-02-26T19:38:00Z</time>
      </trkpt>
      <trkpt lat="44.86481" lon="6.10543">
        <ele>1867</ele>
        <time>2017-02-26T19:38:20Z</time>
      </trkpt>
      <trkpt lat="44.86473" lon="6.10402">
        <ele>1822</ele>
        <time>2017-02-26T19:38:40Z</time>
      </trkpt>
      <trkpt lat="44.86447" lon="6.10346">
        <ele>1809</ele>
        <time>2017-02-26T19:39:00Z</time>
      </trkpt>
      <trkpt lat="44.86403" lon="6.10346">
        <ele>1797</ele>
        <time>2017-02-26T19:39:20Z</time>
      </trkpt>
      <trkpt lat="44.86423" lon="6.10314">
        <ele>1780</ele>
        <time>2017-02-26T19:39:40Z</time>
      </trkpt>
      <trkpt lat="44.86408" lon="6.10303">
        <ele>1766</ele>
        <time>2017-02-26T19:40:00Z</time>
      </trkpt>
      <trkpt lat="44.86447" lon="6.10267">
        <ele>1762</ele>
        <time>2017-02-26T19:40:20Z</time>
      </trkpt>
      <trkpt lat="44.86435" lon="6.1023">
        <ele>1736</ele>
        <time>2017-02-26T19:40:40Z</time>
      </trkpt>
      <trkpt lat="44.86341" lon="6.10247">
        <ele>1715</ele>
        <time>2017-02-26T19:41:00Z</time>
      </trkpt>
      <trkpt lat="44.86262" lon="6.10297">
        <ele>1715</ele>
        <time>2017-02-26T19:41:20Z</time>
      </trkpt>
      <trkpt lat="44.86275" lon="6.10247">
        <ele>1683</ele>
        <time>2017-02-26T19:41:40Z</time>
      </trkpt>
      <trkpt lat="44.86242" lon="6.10234">
        <ele>1666</ele>
        <time>2017-02-26T19:42:00Z</time>
      </trkpt>
      <trkpt lat="44.8626" lon="6.10202">
        <ele>1672</ele>
        <time>2017-02-26T19:42:20Z</time>
      </trkpt>
      <trkpt lat="44.86225" lon="6.102">
        <ele>1651</ele>
        <time>2017-02-26T19:42:40Z</time>
      </trkpt>
      <trkpt lat="44.86338" lon="6.10069">
        <ele>1630</ele>
        <time>2017-02-26T19:43:00Z</time>
      </trkpt>
      <trkpt lat="44.86323" lon="6.10063">
        <ele>1610</ele>
        <time>2017-02-26T19:43:20Z</time>
      </trkpt>
      <trkpt lat="44.86333" lon="6.10039">
        <ele>1599</ele>
        <time>2017-02-26T19:43:40Z</time>
      </trkpt>
      <trkpt lat="44.86282" lon="6.10035">
        <ele>1590</ele>
        <time>2017-02-26T19:44:00Z</time>
      </trkpt>
      <trkpt lat="44.86335" lon="6.09917">
        <ele>1546</ele>
        <time>2017-02-26T19:44:20Z</time>
      </trkpt>
      <trkpt lat="44.86306" lon="6.09921">
        <ele>1544</ele>
        <time>2017-02-26T19:44:40Z</time>
      </trkpt>
      <trkpt lat="44.86344" lon="6.0987">
        <ele>1524</ele>
        <time>2017-02-26T19:45:00Z</time>
      </trkpt>
      <trkpt lat="44.86428" lon="6.09713">
        <ele>1447</ele>
        <time>2017-02-26T19:45:20Z</time>
      </trkpt>
      <trkpt lat="44.86507" lon="6.09719">
        <ele>1419</ele>
        <time>2017-02-26T19:45:40Z</time>
      </trkpt>
      <trkpt lat="44.86558" lon="6.09668">
        <ele>1385</ele>
        <time>2017-02-26T19:46:00Z</time>
      </trkpt>
      <trkpt lat="44.86613" lon="6.09754">
        <ele>1388</ele>
        <time>2017-02-26T19:46:20Z</time>
      </trkpt>
      <trkpt lat="44.86703" lon="6.0976">
        <ele>1343</ele>
        <time>2017-02-26T19:46:40Z</time>
      </trkpt>
      <trkpt lat="44.86621" lon="6.09657">
        <ele>1334</ele>
        <time>2017-02-26T19:47:00Z</time>
      </trkpt>
      <trkpt lat="44.86621" lon="6.09657">
        <ele>1334</ele>
        <time>2017-02-26T19:47:20Z</time>
      </trkpt>
      <trkpt lat="44.86642" lon="6.09569">
        <ele>1316</ele>
        <time>2017-02-26T19:47:40Z</time>
      </trkpt>
      <trkpt lat="44.86729" lon="6.09458">
        <ele>1289</ele>
        <time>2017-02-26T19:48:00Z</time>
      </trkpt>
      <trkpt lat="44.86797" lon="6.09413">
        <ele>1274</ele>
        <time>2017-02-26T19:48:20Z</time>
      </trkpt>
      <trkpt lat="44.86852" lon="6.09211">
        <ele>1271</ele>
        <time>2017-02-26T19:48:40Z</time>
      </trkpt>
      <trkpt lat="44.86932" lon="6.09215">
        <ele>1287</ele>
        <time>2017-02-26T19:49:00Z</time>
      </trkpt>
      <trkpt lat="44.87048" lon="6.09172">
        <ele>1306</ele>
        <time>2017-02-26T19:49:20Z</time>
      </trkpt>
      <trkpt lat="44.87135" lon="6.09256">
        <ele>1325</ele>
        <time>2017-02-26T19:49:40Z</time>
      </trkpt>
      <trkpt lat="44.87291" lon="6.0931">
        <ele>1364</ele>
        <time>2017-02-26T19:50:00Z</time>
      </trkpt>
      <trkpt lat="44.87366" lon="6.09282">
        <ele>1389</ele>
        <time>2017-02-26T19:50:20Z</time>
      </trkpt>
      <trkpt lat="44.87434" lon="6.09277">
        <ele>1414</ele>
        <time>2017-02-26T19:50:40Z</time>
      </trkpt>
      <trkpt lat="44.87807" lon="6.09024">
        <ele>1519</ele>
        <time>2017-02-26T19:51:00Z</time>
      </trkpt>
      <trkpt lat="44.87963" lon="6.08968">
        <ele>1573</ele>
        <time>2017-02-26T19:51:20Z</time>
      </trkpt>
      <trkpt lat="44.88122" lon="6.0888">
        <ele>1623</ele>
        <time>2017-02-26T19:51:40Z</time>
      </trkpt>
      <trkpt lat="44.88371" lon="6.08777">
        <ele>1717</ele>
        <time>2017-02-26T19:52:00Z</time>
      </trkpt>
      <trkpt lat="44.8842" lon="6.08788">
        <ele>1747</ele>
        <time>2017-02-26T19:52:20Z</time>
      </trkpt>
      <trkpt lat="44.88479" lon="6.08698">
        <ele>1765</ele>
        <time>2017-02-26T19:52:40Z</time>
      </trkpt>
      <trkpt lat="44.88555" lon="6.08674">
        <ele>1800</ele>
        <time>2017-02-26T19:53:00Z</time>
      </trkpt>
      <trkpt lat="44.88578" lon="6.08625">
        <ele>1820</ele>
        <time>2017-02-26T19:53:20Z</time>
      </trkpt>
      <trkpt lat="44.88608" lon="6.08649">
        <ele>1842</ele>
        <time>2017-02-26T19:53:40Z</time>
      </trkpt>
      <trkpt lat="44.88638" lon="6.08629">
        <ele>1855</ele>
        <time>2017-02-26T19:54:00Z</time>
      </trkpt>
      <trkpt lat="44.88654" lon="6.0858">
        <ele>1879</ele>
        <time>2017-02-26T19:54:20Z</time>
      </trkpt>
      <trkpt lat="44.88714" lon="6.08529">
        <ele>1919</ele>
        <time>2017-02-26T19:54:40Z</time>
      </trkpt>
      <trkpt lat="44.8874" lon="6.08544">
        <ele>1922</ele>
        <time>2017-02-26T19:55:00Z</time>
      </trkpt>
      <trkpt lat="44.88816" lon="6.08537">
        <ele>1966</ele>
        <time>2017-02-26T19:55:20Z</time>
      </trkpt>
      <trkpt lat="44.88853" lon="6.08554">
        <ele>1999</ele>
        <time>2017-02-26T19:55:40Z</time>
      </trkpt>
      <trkpt lat="44.88863" lon="6.08481">
        <ele>2010</ele>
        <time>2017-02-26T19:56:00Z</time>
      </trkpt>
      <trkpt lat="44.88828" lon="6.08389">
        <ele>2009</ele>
        <time>2017-02-26T19:56:20Z</time>
      </trkpt>
      <trkpt lat="44.88847" lon="6.08385">
        <ele>2034</ele>
        <time>2017-02-26T19:56:40Z</time>
      </trkpt>
      <trkpt lat="44.88853" lon="6.08327">
        <ele>2058</ele>
        <time>2017-02-26T19:57:00Z</time>
      </trkpt>
      <trkpt lat="44.88832" lon="6.08307">
        <ele>2046</ele>
        <time>2017-02-26T19:57:20Z</time>
      </trkpt>
      <trkpt lat="44.88859" lon="6.08273">
        <ele>2073</ele>
        <time>2017-02-26T19:57:40Z</time>
      </trkpt>
      <trkpt lat="44.88848" lon="6.08232">
        <ele>2091</ele>
        <time>2017-02-26T19:58:00Z</time>
      </trkpt>
      <trkpt lat="44.8887" lon="6.08207">
        <ele>2101</ele>
        <time>2017-02-26T19:58:20Z</time>
      </trkpt>
      <trkpt lat="44.88856" lon="6.08196">
        <ele>2101</ele>
        <time>2017-02-26T19:58:40Z</time>
      </trkpt>
      <trkpt lat="44.88876" lon="6.08168">
        <ele>2107</ele>
        <time>2017-02-26T19:59:00Z</time>
      </trkpt>
      <trkpt lat="44.88921" lon="6.08177">
        <ele>2127</ele>
        <time>2017-02-26T19:59:20Z</time>
      </trkpt>
      <trkpt lat="44.88941" lon="6.08277">
        <ele>2107</ele>
        <time>2017-02-26T19:59:40Z</time>
      </trkpt>
      <trkpt lat="44.88952" lon="6.08198">
        <ele>2133</ele>
        <time>2017-02-26T20:00:00Z</time>
      </trkpt>
      <trkpt lat="44.88976" lon="6.08237">
        <ele>2134</ele>
        <time>2017-02-26T20:00:20Z</time>
      </trkpt>
      <trkpt lat="44.88974" lon="6.08192">
        <ele>2140</ele>
        <time>2017-02-26T20:00:40Z</time>
      </trkpt>
      <trkpt lat="44.88999" lon="6.0823">
        <ele>2138</ele>
        <time>2017-02-26T20:01:00Z</time>
      </trkpt>
      <trkpt lat="44.89002" lon="6.08179">
        <ele>2167</ele>
        <time>2017-02-26T20:01:20Z</time>
      </trkpt>
      <trkpt lat="44.89026" lon="6.08215">
        <ele>2169</ele>
        <time>2017-02-26T20:01:40Z</time>
      </trkpt>
      <trkpt lat="44.89037" lon="6.08196">
        <ele>2174</ele>
        <time>2017-02-26T20:02:00Z</time>
      </trkpt>
      <trkpt lat="44.89032" lon="6.08162">
        <ele>2187</ele>
        <time>2017-02-26T20:02:20Z</time>
      </trkpt>
      <trkpt lat="44.89052" lon="6.08194">
        <ele>2179</ele>
        <time>2017-02-26T20:02:40Z</time>
      </trkpt>
      <trkpt lat="44.8906" lon="6.08157">
        <ele>2196</ele>
        <time>2017-02-26T20:03:00Z</time>
      </trkpt>
      <trkpt lat="44.89072" lon="6.08187">
        <ele>2186</ele>
        <time>2017-02-26T20:03:20Z</time>
      </trkpt>
      <trkpt lat="44.89081" lon="6.08132">
        <ele>2199</ele>
        <time>2017-02-26T20:03:40Z</time>
      </trkpt>
      <trkpt lat="44.89104" lon="6.08164">
        <ele>2222</ele>
        <time>2017-02-26T20:04:00Z</time>
      </trkpt>
      <trkpt lat="44.8911" lon="6.08123">
        <ele>2231</ele>
        <time>2017-02-26T20:04:20Z</time>
      </trkpt>
      <trkpt lat="44.89129" lon="6.08153">
        <ele>2236</ele>
        <time>2017-02-26T20:04:40Z</time>
      </trkpt>
      <trkpt lat="44.89142" lon="6.08041">
        <ele>2255</ele>
        <time>2017-02-26T20:05:00Z</time>
      </trkpt>
      <trkpt lat="44.89158" lon="6.08076">
        <ele>2260</ele>
        <time>2017-02-26T20:05:20Z</time>
      </trkpt>
      <trkpt lat="44.89166" lon="6.08016">
        <ele>2266</ele>
        <time>2017-02-26T20:05:40Z</time>
      </trkpt>
      <trkpt lat="44.89236" lon="6.07983">
        <ele>2297</ele>
        <time>2017-02-26T20:06:00Z</time>
      </trkpt>
      <trkpt lat="44.89266" lon="6.07938">
        <ele>2294</ele>
        <time>2017-02-26T20:06:20Z</time>
      </trkpt>
      <trkpt lat="44.8928" lon="6.07953">
        <ele>2294</ele>
        <time>2017-02-26T20:06:40Z</time>
      </trkpt>
      <trkpt lat="44.89272" lon="6.07863">
        <ele>2267</ele>
        <time>2017-02-26T20:07:00Z</time>
      </trkpt>
      <trkpt lat="44.8935" lon="6.07908">
        <ele>2251</ele>
        <time>2017-02-26T20:07:20Z</time>
      </trkpt>
      <trkpt lat="44.89417" lon="6.07915">
        <ele>2243</ele>
        <time>2017-02-26T20:07:40Z</time>
      </trkpt>
      <trkpt lat="44.89368" lon="6.07863">
        <ele>2237</ele>
        <time>2017-02-26T20:08:00Z</time>
      </trkpt>
      <trkpt lat="44.89356" lon="6.0779">
        <ele>2206</ele>
        <time>2017-02-26T20:08:20Z</time>
      </trkpt>
      <trkpt lat="44.89551" lon="6.07928">
        <ele>2186</ele>
        <time>2017-02-26T20:08:40Z</time>
      </trkpt>
      <trkpt lat="44.8966" lon="6.08009">
        <ele>2164</ele>
        <time>2017-02-26T20:09:00Z</time>
      </trkpt>
      <trkpt lat="44.89648" lon="6.07966">
        <ele>2149</ele>
        <time>2017-02-26T20:09:20Z</time>
      </trkpt>
      <trkpt lat="44.89613" lon="6.07932">
        <ele>2147</ele>
        <time>2017-02-26T20:09:40Z</time>
      </trkpt>
      <trkpt lat="44.8964" lon="6.07928">
        <ele>2140</ele>
        <time>2017-02-26T20:10:00Z</time>
      </trkpt>
      <trkpt lat="44.89628" lon="6.07891">
        <ele>2108</ele>
        <time>2017-02-26T20:10:20Z</time>
      </trkpt>
      <trkpt lat="44.89727" lon="6.07943">
        <ele>2103</ele>
        <time>2017-02-26T20:10:40Z</time>
      </trkpt>
      <trkpt lat="44.89662" lon="6.07825">
        <ele>2053</ele>
        <time>2017-02-26T20:11:00Z</time>
      </trkpt>
      <trkpt lat="44.89703" lon="6.07844">
        <ele>2062</ele>
        <time>2017-02-26T20:11:20Z</time>
      </trkpt>
      <trkpt lat="44.89671" lon="6.07797">
        <ele>2023</ele>
        <time>2017-02-26T20:11:40Z</time>
      </trkpt>
      <trkpt lat="44.89757" lon="6.07859">
        <ele>2027</ele>
        <time>2017-02-26T20:12:00Z</time>
      </trkpt>
      <trkpt lat="44.89724" lon="6.0778">
        <ele>2010</ele>
        <time>2017-02-26T20:12:20Z</time>
      </trkpt>
      <trkpt lat="44.89806" lon="6.07848">
        <ele>2007</ele>
        <time>2017-02-26T20:12:40Z</time>
      </trkpt>
      <trkpt lat="44.89779" lon="6.07754">
        <ele>1977</ele>
        <time>2017-02-26T20:13:00Z</time>
      </trkpt>
      <trkpt lat="44.89809" lon="6.07775">
        <ele>1970</ele>
        <time>2017-02-26T20:13:20Z</time>
      </trkpt>
      <trkpt lat="44.89804" lon="6.07728">
        <ele>1938</ele>
        <time>2017-02-26T20:13:40Z</time>
      </trkpt>
      <trkpt lat="44.89934" lon="6.07887">
        <ele>1920</ele>
        <time>2017-02-26T20:14:00Z</time>
      </trkpt>
      <trkpt lat="44.89988" lon="6.079">
        <ele>1905</ele>
        <time>2017-02-26T20:14:20Z</time>
      </trkpt>
      <trkpt lat="44.90067" lon="6.07975">
        <ele>1884</ele>
        <time>2017-02-26T20:14:40Z</time>
      </trkpt>
      <trkpt lat="44.90143" lon="6.08132">
        <ele>1861</ele>
        <time>2017-02-26T20:15:00Z</time>
      </trkpt>
      <trkpt lat="44.90102" lon="6.08164">
        <ele>1874</ele>
        <time>2017-02-26T20:15:20Z</time>
      </trkpt>
      <trkpt lat="44.90122" lon="6.08228">
        <ele>1861</ele>
        <time>2017-02-26T20:15:40Z</time>
      </trkpt>
      <trkpt lat="44.90186" lon="6.08254">
        <ele>1829</ele>
        <time>2017-02-26T20:16:00Z</time>
      </trkpt>
      <trkpt lat="44.90216" lon="6.08318">
        <ele>1826</ele>
        <time>2017-02-26T20:16:20Z</time>
      </trkpt>
      <trkpt lat="44.90289" lon="6.08325">
        <ele>1786</ele>
        <time>2017-02-26T20:16:40Z</time>
      </trkpt>
      <trkpt lat="44.90353" lon="6.08398">
        <ele>1779</ele>
        <time>2017-02-26T20:17:00Z</time>
      </trkpt>
      <trkpt lat="44.90312" lon="6.08284">
        <ele>1774</ele>
        <time>2017-02-26T20:17:20Z</time>
      </trkpt>
      <trkpt lat="44.90364" lon="6.08271">
        <ele>1738</ele>
        <time>2017-02-26T20:17:40Z</time>
      </trkpt>
      <trkpt lat="44.90344" lon="6.08164">
        <ele>1703</ele>
        <time>2017-02-26T20:18:00Z</time>
      </trkpt>
      <trkpt lat="44.90408" lon="6.08189">
        <ele>1697</ele>
        <time>2017-02-26T20:18:20Z</time>
      </trkpt>
      <trkpt lat="44.90397" lon="6.08099">
        <ele>1668</ele>
        <time>2017-02-26T20:18:40Z</time>
      </trkpt>
      <trkpt lat="44.90431" lon="6.08112">
        <ele>1647</ele>
        <time>2017-02-26T20:19:00Z</time>
      </trkpt>
      <trkpt lat="44.90415" lon="6.08065">
        <ele>1648</ele>
        <time>2017-02-26T20:19:20Z</time>
      </trkpt>
      <trkpt lat="44.90461" lon="6.08065">
        <ele>1622</ele>
        <time>2017-02-26T20:19:40Z</time>
      </trkpt>
      <trkpt lat="44.90456" lon="6.08029">
        <ele>1618</ele>
        <time>2017-02-26T20:20:00Z</time>
      </trkpt>
      <trkpt lat="44.90491" lon="6.08029">
        <ele>1611</ele>
        <time>2017-02-26T20:20:20Z</time>
      </trkpt>
      <trkpt lat="44.90479" lon="6.07917">
        <ele>1589</ele>
        <time>2017-02-26T20:20:40Z</time>
      </trkpt>
      <trkpt lat="44.90438" lon="6.07859">
        <ele>1581</ele>
        <time>2017-02-26T20:21:00Z</time>
      </trkpt>
      <trkpt lat="44.90438" lon="6.07829">
        <ele>1566</ele>
        <time>2017-02-26T20:21:20Z</time>
      </trkpt>
      <trkpt lat="44.90371" lon="6.07769">
        <ele>1572</ele>
        <time>2017-02-26T20:21:40Z</time>
      </trkpt>
      <trkpt lat="44.9044" lon="6.0775">
        <ele>1538</ele>
        <time>2017-02-26T20:22:00Z</time>
      </trkpt>
      <trkpt lat="44.9042" lon="6.07726">
        <ele>1536</ele>
        <time>2017-02-26T20:22:20Z</time>
      </trkpt>
      <trkpt lat="44.90481" lon="6.07696">
        <ele>1527</ele>
        <time>2017-02-26T20:22:40Z</time>
      </trkpt>
      <trkpt lat="44.90552" lon="6.07599">
        <ele>1500</ele>
        <time>2017-02-26T20:23:00Z</time>
      </trkpt>
      <trkpt lat="44.90645" lon="6.07659">
        <ele>1502</ele>
        <time>2017-02-26T20:23:20Z</time>
      </trkpt>
      <trkpt lat="44.90692" lon="6.07762">
        <ele>1527</ele>
        <time>2017-02-26T20:23:40Z</time>
      </trkpt>
      <trkpt lat="44.90798" lon="6.07823">
        <ele>1537</ele>
        <time>2017-02-26T20:24:00Z</time>
      </trkpt>
      <trkpt lat="44.90791" lon="6.0799">
        <ele>1562</ele>
        <time>2017-02-26T20:24:20Z</time>
      </trkpt>
      <trkpt lat="44.90832" lon="6.0802">
        <ele>1572</ele>
        <time>2017-02-26T20:24:40Z</time>
      </trkpt>
      <trkpt lat="44.90852" lon="6.08112">
        <ele>1595</ele>
        <time>2017-02-26T20:25:00Z</time>
      </trkpt>
      <trkpt lat="44.90783" lon="6.08149">
        <ele>1592</ele>
        <time>2017-02-26T20:25:20Z</time>
      </trkpt>
      <trkpt lat="44.90862" lon="6.08237">
        <ele>1614</ele>
        <time>2017-02-26T20:25:40Z</time>
      </trkpt>
      <trkpt lat="44.90976" lon="6.084">
        <ele>1640</ele>
        <time>2017-02-26T20:26:00Z</time>
      </trkpt>
      <trkpt lat="44.91017" lon="6.0841">
        <ele>1645</ele>
        <time>2017-02-26T20:26:20Z</time>
      </trkpt>
      <trkpt lat="44.91039" lon="6.08385">
        <ele>1648</ele>
        <time>2017-02-26T20:26:40Z</time>
      </trkpt>
      <trkpt lat="44.91004" lon="6.08307">
        <ele>1647</ele>
        <time>2017-02-26T20:27:00Z</time>
      </trkpt>
      <trkpt lat="44.91035" lon="6.08286">
        <ele>1655</ele>
        <time>2017-02-26T20:27:20Z</time>
      </trkpt>
      <trkpt lat="44.91143" lon="6.08395">
        <ele>1677</ele>
        <time>2017-02-26T20:27:40Z</time>
      </trkpt>
      <trkpt lat="44.91347" lon="6.08445">
        <ele>1742</ele>
        <time>2017-02-26T20:28:00Z</time>
      </trkpt>
      <trkpt lat="44.91306" lon="6.08305">
        <ele>1773</ele>
        <time>2017-02-26T20:28:20Z</time>
      </trkpt>
      <trkpt lat="44.91405" lon="6.0829">
        <ele>1808</ele>
        <time>2017-02-26T20:28:40Z</time>
      </trkpt>
      <trkpt lat="44.91503" lon="6.08277">
        <ele>1858</ele>
        <time>2017-02-26T20:29:00Z</time>
      </trkpt>
      <trkpt lat="44.91622" lon="6.08312">
        <ele>1893</ele>
        <time>2017-02-26T20:29:20Z</time>
      </trkpt>
      <trkpt lat="44.91703" lon="6.08398">
        <ele>1905</ele>
        <time>2017-02-26T20:29:40Z</time>
      </trkpt>
      <trkpt lat="44.91763" lon="6.08432">
        <ele>1921</ele>
        <time>2017-02-26T20:30:00Z</time>
      </trkpt>
      <trkpt lat="44.91788" lon="6.08481">
        <ele>1916</ele>
        <time>2017-02-26T20:30:20Z</time>
      </trkpt>
      <trkpt lat="44.91798" lon="6.08408">
        <ele>1950</ele>
        <time>2017-02-26T20:30:40Z</time>
      </trkpt>
      <trkpt lat="44.91827" lon="6.08453">
        <ele>1930</ele>
        <time>2017-02-26T20:31:00Z</time>
      </trkpt>
      <trkpt lat="44.91914" lon="6.08456">
        <ele>1959</ele>
        <time>2017-02-26T20:31:20Z</time>
      </trkpt>
      <trkpt lat="44.91897" lon="6.08368">
        <ele>1991</ele>
        <time>2017-02-26T20:31:40Z</time>
      </trkpt>
      <trkpt lat="44.91944" lon="6.08378">
        <ele>2008</ele>
        <time>2017-02-26T20:32:00Z</time>
      </trkpt>
      <trkpt lat="44.92016" lon="6.08346">
        <ele>2035</ele>
        <time>2017-02-26T20:32:20Z</time>
      </trkpt>
      <trkpt lat="44.92198" lon="6.08372">
        <ele>2092</ele>
        <time>2017-02-26T20:32:40Z</time>
      </trkpt>
      <trkpt lat="44.92243" lon="6.08441">
        <ele>2084</ele>
        <time>2017-02-26T20:33:00Z</time>
      </trkpt>
      <trkpt lat="44.92386" lon="6.08492">
        <ele>2136</ele>
        <time>2017-02-26T20:33:20Z</time>
      </trkpt>
      <trkpt lat="44.92496" lon="6.08511">
        <ele>2160</ele>
        <time>2017-02-26T20:33:40Z</time>
      </trkpt>
      <trkpt lat="44.92547" lon="6.08563">
        <ele>2176</ele>
        <time>2017-02-26T20:34:00Z</time>
      </trkpt>
      <trkpt lat="44.92628" lon="6.08586">
        <ele>2193</ele>
        <time>2017-02-26T20:34:20Z</time>
      </trkpt>
      <trkpt lat="44.92719" lon="6.08629">
        <ele>2228</ele>
        <time>2017-02-26T20:34:40Z</time>
      </trkpt>
      <trkpt lat="44.92743" lon="6.08612">
        <ele>2235</ele>
        <time>2017-02-26T20:35:00Z</time>
      </trkpt>
      <trkpt lat="44.92774" lon="6.08634">
        <ele>2263</ele>
        <time>2017-02-26T20:35:20Z</time>
      </trkpt>
      <trkpt lat="44.92789" lon="6.08621">
        <ele>2268</ele>
        <time>2017-02-26T20:35:40Z</time>
      </trkpt>
      <trkpt lat="44.92824" lon="6.08664">
        <ele>2277</ele>
        <time>2017-02-26T20:36:00Z</time>
      </trkpt>
      <trkpt lat="44.92839" lon="6.08651">
        <ele>2295</ele>
        <time>2017-02-26T20:36:20Z</time>
      </trkpt>
      <trkpt lat="44.92912" lon="6.087">
        <ele>2317</ele>
        <time>2017-02-26T20:36:40Z</time>
      </trkpt>
      <trkpt lat="44.92933" lon="6.08679">
        <ele>2343</ele>
        <time>2017-02-26T20:37:00Z</time>
      </trkpt>
      <trkpt lat="44.93283" lon="6.0882">
        <ele>2609.3</ele>
        <time>2017-02-26T20:37:20Z</time>
      </trkpt>
      <trkpt lat="44.93346" lon="6.08737">
        <ele>2592.5</ele>
        <time>2017-02-26T20:37:40Z</time>
      </trkpt>
      <trkpt lat="44.93333" lon="6.08792">
        <ele>2580.2</ele>
        <time>2017-02-26T20:38:00Z</time>
      </trkpt>
      <trkpt lat="44.93352" lon="6.08792">
        <ele>2537</ele>
        <time>2017-02-26T20:38:20Z</time>
      </trkpt>
      <trkpt lat="44.9336" lon="6.08842">
        <ele>2527</ele>
        <time>2017-02-26T20:38:40Z</time>
      </trkpt>
      <trkpt lat="44.93442" lon="6.08788">
        <ele>2533</ele>
        <time>2017-02-26T20:39:00Z</time>
      </trkpt>
      <trkpt lat="44.93438" lon="6.08846">
        <ele>2521</ele>
        <time>2017-02-26T20:39:20Z</time>
      </trkpt>
      <trkpt lat="44.93501" lon="6.08805">
        <ele>2520</ele>
        <time>2017-02-26T20:39:40Z</time>
      </trkpt>
      <trkpt lat="44.9353" lon="6.0885">
        <ele>2495</ele>
        <time>2017-02-26T20:40:00Z</time>
      </trkpt>
      <trkpt lat="44.93612" lon="6.08887">
        <ele>2457</ele>
        <time>2017-02-26T20:40:20Z</time>
      </trkpt>
      <trkpt lat="44.93641" lon="6.08917">
        <ele>2433</ele>
        <time>2017-02-26T20:40:40Z</time>
      </trkpt>
      <trkpt lat="44.93764" lon="6.09001">
        <ele>2381</ele>
        <time>2017-02-26T20:41:00Z</time>
      </trkpt>
      <trkpt lat="44.93927" lon="6.08988">
        <ele>2333</ele>
        <time>2017-02-26T20:41:20Z</time>
      </trkpt>
      <trkpt lat="44.94063" lon="6.09013">
        <ele>2298</ele>
        <time>2017-02-26T20:41:40Z</time>
      </trkpt>
      <trkpt lat="44.94191" lon="6.09084">
        <ele>2264</ele>
        <time>2017-02-26T20:42:00Z</time>
      </trkpt>
      <trkpt lat="44.94253" lon="6.09116">
        <ele>2252</ele>
        <time>2017-02-26T20:42:20Z</time>
      </trkpt>
      <trkpt lat="44.94303" lon="6.0917">
        <ele>2229</ele>
        <time>2017-02-26T20:42:40Z</time>
      </trkpt>
      <trkpt lat="44.943" lon="6.09194">
        <ele>2230</ele>
        <time>2017-02-26T20:43:00Z</time>
      </trkpt>
      <trkpt lat="44.94341" lon="6.09213">
        <ele>2208</ele>
        <time>2017-02-26T20:43:20Z</time>
      </trkpt>
      <trkpt lat="44.94431" lon="6.09198">
        <ele>2190</ele>
        <time>2017-02-26T20:43:40Z</time>
      </trkpt>
      <trkpt lat="44.94434" lon="6.09224">
        <ele>2185</ele>
        <time>2017-02-26T20:44:00Z</time>
      </trkpt>
      <trkpt lat="44.94505" lon="6.09226">
        <ele>2177</ele>
        <time>2017-02-26T20:44:20Z</time>
      </trkpt>
      <trkpt lat="44.94543" lon="6.09286">
        <ele>2158</ele>
        <time>2017-02-26T20:44:40Z</time>
      </trkpt>
      <trkpt lat="44.94603" lon="6.0931">
        <ele>2147</ele>
        <time>2017-02-26T20:45:00Z</time>
      </trkpt>
      <trkpt lat="44.95079" lon="6.09503">
        <ele>2105</ele>
        <time>2017-02-26T20:45:20Z</time>
      </trkpt>
      <trkpt lat="44.9519" lon="6.09597">
        <ele>2109</ele>
        <time>2017-02-26T20:45:40Z</time>
      </trkpt>
      <trkpt lat="44.953" lon="6.09734">
        <ele>2120</ele>
        <time>2017-02-26T20:46:00Z</time>
      </trkpt>
      <trkpt lat="44.953" lon="6.09734">
        <ele>2120</ele>
        <time>2017-02-26T20:46:20Z</time>
      </trkpt>
      <trkpt lat="44.95383" lon="6.09708">
        <ele>2132</ele>
        <time>2017-02-26T20:46:40Z</time>
      </trkpt>
      <trkpt lat="44.95485" lon="6.09753">
        <ele>2146</ele>
        <time>2017-02-26T20:47:00Z</time>
      </trkpt>
      <trkpt lat="44.95505" lon="6.09822">
        <ele>2143</ele>
        <time>2017-02-26T20:47:20Z</time>
      </trkpt>
      <trkpt lat="44.95562" lon="6.0985">
        <ele>2145</ele>
        <time>2017-02-26T20:47:40Z</time>
      </trkpt>
      <trkpt lat="44.95612" lon="6.09899">
        <ele>2132</ele>
        <time>2017-02-26T20:48:00Z</time>
      </trkpt>
      <trkpt lat="44.95597" lon="6.09998">
        <ele>2133</ele>
        <time>2017-02-26T20:48:20Z</time>
      </trkpt>
      <trkpt lat="44.95606" lon="6.10075">
        <ele>2123</ele>
        <time>2017-02-26T20:48:40Z</time>
      </trkpt>
      <trkpt lat="44.95579" lon="6.10122">
        <ele>2131</ele>
        <time>2017-02-26T20:49:00Z</time>
      </trkpt>
      <trkpt lat="44.95603" lon="6.1015">
        <ele>2111</ele>
        <time>2017-02-26T20:49:20Z</time>
      </trkpt>
      <trkpt lat="44.95665" lon="6.10124">
        <ele>2102</ele>
        <time>2017-02-26T20:49:40Z</time>
      </trkpt>
      <trkpt lat="44.9565" lon="6.10178">
        <ele>2093</ele>
        <time>2017-02-26T20:50:00Z</time>
      </trkpt>
      <trkpt lat="44.957" lon="6.10215">
        <ele>2054</ele>
        <time>2017-02-26T20:50:20Z</time>
      </trkpt>
      <trkpt lat="44.95723" lon="6.10165">
        <ele>2047</ele>
        <time>2017-02-26T20:50:40Z</time>
      </trkpt>
      <trkpt lat="44.95773" lon="6.10182">
        <ele>2000</ele>
        <time>2017-02-26T20:51:00Z</time>
      </trkpt>
      <trkpt lat="44.95764" lon="6.10206">
        <ele>2000</ele>
        <time>2017-02-26T20:51:20Z</time>
      </trkpt>
      <trkpt lat="44.95798" lon="6.10202">
        <ele>1990</ele>
        <time>2017-02-26T20:51:40Z</time>
      </trkpt>
      <trkpt lat="44.95775" lon="6.10249">
        <ele>2001</ele>
        <time>2017-02-26T20:52:00Z</time>
      </trkpt>
      <trkpt lat="44.95837" lon="6.10247">
        <ele>1965</ele>
        <time>2017-02-26T20:52:20Z</time>
      </trkpt>
      <trkpt lat="44.95886" lon="6.10157">
        <ele>1929</ele>
        <time>2017-02-26T20:52:40Z</time>
      </trkpt>
      <trkpt lat="44.95877" lon="6.10109">
        <ele>1926</ele>
        <time>2017-02-26T20:53:00Z</time>
      </trkpt>
      <trkpt lat="44.95896" lon="6.10101">
        <ele>1917</ele>
        <time>2017-02-26T20:53:20Z</time>
      </trkpt>
      <trkpt lat="44.95892" lon="6.10066">
        <ele>1901</ele>
        <time>2017-02-26T20:53:40Z</time>
      </trkpt>
      <trkpt lat="44.95916" lon="6.10041">
        <ele>1893</ele>
        <time>2017-02-26T20:54:00Z</time>
      </trkpt>
      <trkpt lat="44.95902" lon="6.09959">
        <ele>1871</ele>
        <time>2017-02-26T20:54:20Z</time>
      </trkpt>
      <trkpt lat="44.95954" lon="6.09923">
        <ele>1830</ele>
        <time>2017-02-26T20:54:40Z</time>
      </trkpt>
      <trkpt lat="44.96031" lon="6.09972">
        <ele>1809</ele>
        <time>2017-02-26T20:55:00Z</time>
      </trkpt>
      <trkpt lat="44.96094" lon="6.09972">
        <ele>1806</ele>
        <time>2017-02-26T20:55:20Z</time>
      </trkpt>
      <trkpt lat="44.96136" lon="6.10013">
        <ele>1803</ele>
        <time>2017-02-26T20:55:40Z</time>
      </trkpt>
      <trkpt lat="44.96217" lon="6.10045">
        <ele>1795</ele>
        <time>2017-02-26T20:56:00Z</time>
      </trkpt>
      <trkpt lat="44.96253" lon="6.10099">
        <ele>1778</ele>
        <time>2017-02-26T20:56:20Z</time>
      </trkpt>
      <trkpt lat="44.96315" lon="6.10127">
        <ele>1775</ele>
        <time>2017-02-26T20:56:40Z</time>
      </trkpt>
      <trkpt lat="44.96362" lon="6.10227">
        <ele>1746</ele>
        <time>2017-02-26T20:57:00Z</time>
      </trkpt>
      <trkpt lat="44.96438" lon="6.10322">
        <ele>1710</ele>
        <time>2017-02-26T20:57:20Z</time>
      </trkpt>
      <trkpt lat="44.96531" lon="6.10322">
        <ele>1707</ele>
        <time>2017-02-26T20:57:40Z</time>
      </trkpt>
      <trkpt lat="44.96713" lon="6.10493">
        <ele>1670</ele>
        <time>2017-02-26T20:58:00Z</time>
      </trkpt>
      <trkpt lat="44.96763" lon="6.10524">
        <ele>1653</ele>
        <time>2017-02-26T20:58:20Z</time>
      </trkpt>
      <trkpt lat="44.96792" lon="6.10564">
        <ele>1648</ele>
        <time>2017-02-26T20:58:40Z</time>
      </trkpt>
      <trkpt lat="44.96778" lon="6.10581">
        <ele>1645</ele>
        <time>2017-02-26T20:59:00Z</time>
      </trkpt>
      <trkpt lat="44.9685" lon="6.10667">
        <ele>1615</ele>
        <time>2017-02-26T20:59:20Z</time>
      </trkpt>
      <trkpt lat="44.96885" lon="6.10824">
        <ele>1590</ele>
        <time>2017-02-26T20:59:40Z</time>
      </trkpt>
      <trkpt lat="44.96883" lon="6.10888">
        <ele>1572</ele>
        <time>2017-02-26T21:00:00Z</time>
      </trkpt>
      <trkpt lat="44.96892" lon="6.11049">
        <ele>1540</ele>
        <time>2017-02-26T21:00:20Z</time>
      </trkpt>
      <trkpt lat="44.96918" lon="6.11075">
        <ele>1533</ele>
        <time>2017-02-26T21:00:40Z</time>
      </trkpt>
      <trkpt lat="44.9692" lon="6.11105">
        <ele>1524</ele>
        <time>2017-02-26T21:01:00Z</time>
      </trkpt>
      <trkpt lat="44.96903" lon="6.11146">
        <ele>1522</ele>
        <time>2017-02-26T21:01:20Z</time>
      </trkpt>
      <trkpt lat="44.96973" lon="6.1127">
        <ele>1467</ele>
        <time>2017-02-26T21:01:40Z</time>
      </trkpt>
      <trkpt lat="44.96989" lon="6.11354">
        <ele>1437</ele>
        <time>2017-02-26T21:02:00Z</time>
      </trkpt>
      <trkpt lat="44.96968" lon="6.11384">
        <ele>1433</ele>
        <time>2017-02-26T21:02:20Z</time>
      </trkpt>
      <trkpt lat="44.97011" lon="6.11485">
        <ele>1393</ele>
        <time>2017-02-26T21:02:40Z</time>
      </trkpt>
      <trkpt lat="44.9709" lon="6.11517">
        <ele>1373</ele>
        <time>2017-02-26T21:03:00Z</time>
      </trkpt>
      <trkpt lat="44.97108" lon="6.11562">
        <ele>1359</ele>
        <time>2017-02-26T21:03:20Z</time>
      </trkpt>
      <trkpt lat="44.97238" lon="6.11706">
        <ele>1297</ele>
        <time>2017-02-26T21:03:40Z</time>
      </trkpt>
      <trkpt lat="44.97228" lon="6.11732">
        <ele>1292</ele>
        <time>2017-02-26T21:04:00Z</time>
      </trkpt>
      <trkpt lat="44.97255" lon="6.11815">
        <ele>1277</ele>
        <time>2017-02-26T21:04:20Z</time>
      </trkpt>
      <trkpt lat="44.97346" lon="6.11856">
        <ele>1274</ele>
        <time>2017-02-26T21:04:40Z</time>
      </trkpt>
      <trkpt lat="44.97377" lon="6.11893">
        <ele>1268</ele>
        <time>2017-02-26T21:05:00Z</time>
      </trkpt>
      <trkpt lat="44.9748" lon="6.1192">
        <ele>1245</ele>
        <time>2017-02-26T21:05:20Z</time>
      </trkpt>
      <trkpt lat="44.97536" lon="6.11895">
        <ele>1267</ele>
        <time>2017-02-26T21:05:40Z</time>
      </trkpt>
      <trkpt lat="44.97703" lon="6.1197">
        <ele>1229</ele>
        <time>2017-02-26T21:06:00Z</time>
      </trkpt>
      <trkpt lat="44.97814" lon="6.11899">
        <ele>1232</ele>
        <time>2017-02-26T21:06:20Z</time>
      </trkpt>
      <trkpt lat="44.97839" lon="6.11957">
        <ele>1175</ele>
        <time>2017-02-26T21:06:40Z</time>
      </trkpt>
      <trkpt lat="44.97855" lon="6.11948">
        <ele>1173</ele>
        <time>2017-02-26T21:07:00Z</time>
      </trkpt>
      <trkpt lat="44.97853" lon="6.11989">
        <ele>1169</ele>
        <time>2017-02-26T21:07:20Z</time>
      </trkpt>
      <trkpt lat="44.97888" lon="6.11987">
        <ele>1154</ele>
        <time>2017-02-26T21:07:40Z</time>
      </trkpt>
      <trkpt lat="44.97883" lon="6.12023">
        <ele>1136</ele>
        <time>2017-02-26T21:08:00Z</time>
      </trkpt>
      <trkpt lat="44.97912" lon="6.11996">
        <ele>1134</ele>
        <time>2017-02-26T21:08:20Z</time>
      </trkpt>
      <trkpt lat="44.98" lon="6.12068">
        <ele>1050</ele>
        <time>2017-02-26T21:08:40Z</time>
      </trkpt>
      <trkpt lat="44.98078" lon="6.12056">
        <ele>1037</ele>
        <time>2017-02-26T21:09:00Z</time>
      </trkpt>
      <trkpt lat="44.9819" lon="6.11989">
        <ele>1003</ele>
        <time>2017-02-26T21:09:20Z</time>
      </trkpt>
      <trkpt lat="44.9826" lon="6.11993">
        <ele>967</ele>
        <time>2017-02-26T21:09:40Z</time>
      </trkpt>
      <trkpt lat="44.98295" lon="6.11927">
        <ele>965</ele>
        <time>2017-02-26T21:10:00Z</time>
      </trkpt>
      <trkpt lat="44.98377" lon="6.11854">
        <ele>953</ele>
        <time>2017-02-26T21:10:20Z</time>
      </trkpt>
      <trkpt lat="44.98416" lon="6.11723">
        <ele>952</ele>
        <time>2017-02-26T21:10:40Z</time>
      </trkpt>
      <trkpt lat="44.98518" lon="6.11528">
        <ele>946</ele>
        <time>2017-02-26T21:11:00Z</time>
      </trkpt>
      <trkpt lat="44.98551" lon="6.11403">
        <ele>961</ele>
        <time>2017-02-26T21:11:20Z</time>
      </trkpt>
      <trkpt lat="44.98617" lon="6.11281">
        <ele>953</ele>
        <time>2017-02-26T21:11:40Z</time>
      </trkpt>
      <trkpt lat="44.98662" lon="6.10959">
        <ele>949</ele>
        <time>2017-02-26T21:12:00Z</time>
      </trkpt>
      <trkpt lat="44.98636" lon="6.10833">
        <ele>960</ele>
        <time>2017-02-26T21:12:20Z</time>
      </trkpt>
      <trkpt lat="44.98638" lon="6.10714">
        <ele>956</ele>
        <time>2017-02-26T21:12:40Z</time>
      </trkpt>
      <trkpt lat="44.98632" lon="6.10551">
        <ele>945</ele>
        <time>2017-02-26T21:13:00Z</time>
      </trkpt>
      <trkpt lat="44.98767" lon="6.10386">
        <ele>921</ele>
        <time>2017-02-26T21:13:20Z</time>
      </trkpt>
      <trkpt lat="44.98815" lon="6.10307">
        <ele>926</ele>
        <time>2017-02-26T21:13:40Z</time>
      </trkpt>
      <trkpt lat="44.98885" lon="6.10217">
        <ele>916</ele>
        <time>2017-02-26T21:14:00Z</time>
      </trkpt>
      <trkpt lat="44.98903" lon="6.10118">
        <ele>917</ele>
        <time>2017-02-26T21:14:20Z</time>
      </trkpt>
      <trkpt lat="44.9882" lon="6.09869">
        <ele>943</ele>
        <time>2017-02-26T21:14:40Z</time>
      </trkpt>
      <trkpt lat="44.98828" lon="6.09749">
        <ele>921</ele>
        <time>2017-02-26T21:15:00Z</time>
      </trkpt>
      <trkpt lat="44.98861" lon="6.09682">
        <ele>907</ele>
        <time>2017-02-26T21:15:20Z</time>
      </trkpt>
      <trkpt lat="44.98855" lon="6.09549">
        <ele>908</ele>
        <time>2017-02-26T21:15:40Z</time>
      </trkpt>
      <trkpt lat="44.98855" lon="6.09382">
        <ele>905</ele>
        <time>2017-02-26T21:16:00Z</time>
      </trkpt>
      <trkpt lat="44.98846" lon="6.0933">
        <ele>910</ele>
        <time>2017-02-26T21:16:20Z</time>
      </trkpt>
      <trkpt lat="44.98903" lon="6.09172">
        <ele>910</ele>
        <time>2017-02-26T21:16:40Z</time>
      </trkpt>
      <trkpt lat="44.98881" lon="6.09036">
        <ele>929</ele>
        <time>2017-02-26T21:17:00Z</time>
      </trkpt>
      <trkpt lat="44.98922" lon="6.08923">
        <ele>925</ele>
        <time>2017-02-26T21:17:20Z</time>
      </trkpt>
      <trkpt lat="44.9892" lon="6.0888">
        <ele>924</ele>
        <time>2017-02-26T21:17:40Z</time>
      </trkpt>
      <trkpt lat="44.98952" lon="6.08743">
        <ele>929</ele>
        <time>2017-02-26T21:18:00Z</time>
      </trkpt>
      <trkpt lat="44.98902" lon="6.08498">
        <ele>949</ele>
        <time>2017-02-26T21:18:20Z</time>
      </trkpt>
      <trkpt lat="44.98843" lon="6.08356">
        <ele>962</ele>
        <time>2017-02-26T21:18:40Z</time>
      </trkpt>
      <trkpt lat="44.98902" lon="6.08292">
        <ele>964</ele>
        <time>2017-02-26T21:19:00Z</time>
      </trkpt>
      <trkpt lat="44.9895" lon="6.08281">
        <ele>950</ele>
        <time>2017-02-26T21:19:20Z</time>
      </trkpt>
      <trkpt lat="44.9895" lon="6.08331">
        <ele>946</ele>
        <time>2017-02-26T21:19:40Z</time>
      </trkpt>
      <trkpt lat="44.98982" lon="6.08305">
        <ele>943</ele>
        <time>2017-02-26T21:20:00Z</time>
      </trkpt>
      <trkpt lat="44.99035" lon="6.08208">
        <ele>938</ele>
        <time>2017-02-26T21:20:20Z</time>
      </trkpt>
      <trkpt lat="44.99134" lon="6.08135">
        <ele>922</ele>
        <time>2017-02-26T21:20:40Z</time>
      </trkpt>
      <trkpt lat="44.99195" lon="6.08024">
        <ele>905</ele>
        <time>2017-02-26T21:21:00Z</time>
      </trkpt>
      <trkpt lat="44.99201" lon="6.08071">
        <ele>902</ele>
        <time>2017-02-26T21:21:20Z</time>
      </trkpt>
      <trkpt lat="44.99214" lon="6.07914">
        <ele>902</ele>
        <time>2017-02-26T21:21:40Z</time>
      </trkpt>
      <trkpt lat="44.99257" lon="6.07964">
        <ele>880</ele>
        <time>2017-02-26T21:22:00Z</time>
      </trkpt>
      <trkpt lat="44.99274" lon="6.07923">
        <ele>880</ele>
        <time>2017-02-26T21:22:20Z</time>
      </trkpt>
      <trkpt lat="44.99262" lon="6.07831">
        <ele>879</ele>
        <time>2017-02-26T21:22:40Z</time>
      </trkpt>
      <trkpt lat="44.99312" lon="6.07923">
        <ele>870</ele>
        <time>2017-02-26T21:23:00Z</time>
      </trkpt>
      <trkpt lat="44.99316" lon="6.08017">
        <ele>866</ele>
        <time>2017-02-26T21:23:20Z</time>
      </trkpt>
      <trkpt lat="44.99301" lon="6.08095">
        <ele>861</ele>
        <time>2017-02-26T21:23:40Z</time>
      </trkpt>
      <trkpt lat="44.99362" lon="6.07974">
        <ele>858</ele>
        <time>2017-02-26T21:24:00Z</time>
      </trkpt>
      <trkpt lat="44.99353" lon="6.07843">
        <ele>855</ele>
        <time>2017-02-26T21:24:20Z</time>
      </trkpt>
      <trkpt lat="44.99389" lon="6.07515">
        <ele>847</ele>
        <time>2017-02-26T21:24:40Z</time>
      </trkpt>
      <trkpt lat="44.99418" lon="6.07457">
        <ele>836</ele>
        <time>2017-02-26T21:25:00Z</time>
      </trkpt>
      <trkpt lat="44.99425" lon="6.07279">
        <ele>839</ele>
        <time>2017-02-26T21:25:20Z</time>
      </trkpt>
      <trkpt lat="44.99425" lon="6.07279">
        <ele>839</ele>
        <time>2017-02-26T21:25:40Z</time>
      </trkpt>
      <trkpt lat="44.99598" lon="6.07122">
        <ele>815</ele>
        <time>2017-02-26T21:26:00Z</time>
      </trkpt>
      <trkpt lat="44.99667" lon="6.07069">
        <ele>812</ele>
        <time>2017-02-26T21:26:20Z</time>
      </trkpt>
      <trkpt lat="44.99705" lon="6.06977">
        <ele>815</ele>
        <time>2017-02-26T21:26:40Z</time>
      </trkpt>
      <trkpt lat="44.99853" lon="6.06891">
        <ele>809</ele>
        <time>2017-02-26T21:27:00Z</time>
      </trkpt>
      <trkpt lat="44.9995" lon="6.06897">
        <ele>795</ele>
        <time>2017-02-26T21:27:20Z</time>
      </trkpt>
      <trkpt lat="45.0006" lon="6.06779">
        <ele>804</ele>
        <time>2017-02-26T21:27:40Z</time>
      </trkpt>
      <trkpt lat="45.00277" lon="6.06803">
        <ele>775</ele>
        <time>2017-02-26T21:28:00Z</time>
      </trkpt>
      <trkpt lat="45.00404" lon="6.06719">
        <ele>778</ele>
        <time>2017-02-26T21:28:20Z</time>
      </trkpt>
      <trkpt lat="45.00472" lon="6.06723">
        <ele>773</ele>
        <time>2017-02-26T21:28:40Z</time>
      </trkpt>
      <trkpt lat="45.00597" lon="6.06603">
        <ele>768</ele>
        <time>2017-02-26T21:29:00Z</time>
      </trkpt>
      <trkpt lat="45.00613" lon="6.06545">
        <ele>771</ele>
        <time>2017-02-26T21:29:20Z</time>
      </trkpt>
      <trkpt lat="45.00688" lon="6.06464">
        <ele>762</ele>
        <time>2017-02-26T21:29:40Z</time>
      </trkpt>
      <trkpt lat="45.00756" lon="6.06363">
        <ele>761</ele>
        <time>2017-02-26T21:30:00Z</time>
      </trkpt>
      <trkpt lat="45.00833" lon="6.06359">
        <ele>762</ele>
        <time>2017-02-26T21:30:20Z</time>
      </trkpt>
      <trkpt lat="45.00923" lon="6.06266">
        <ele>760</ele>
        <time>2017-02-26T21:30:40Z</time>
      </trkpt>
      <trkpt lat="45.0097" lon="6.0618">
        <ele>759</ele>
        <time>2017-02-26T21:31:00Z</time>
      </trkpt>
      <trkpt lat="45.01213" lon="6.06015">
        <ele>751</ele>
        <time>2017-02-26T21:31:20Z</time>
      </trkpt>
      <trkpt lat="45.01289" lon="6.0603">
        <ele>748</ele>
        <time>2017-02-26T21:31:40Z</time>
      </trkpt>
      <trkpt lat="45.01401" lon="6.05972">
        <ele>749</ele>
        <time>2017-02-26T21:32:00Z</time>
      </trkpt>
      <trkpt lat="45.01411" lon="6.05902">
        <ele>753</ele>
        <time>2017-02-26T21:32:20Z</time>
      </trkpt>
      <trkpt lat="45.01389" lon="6.05844">
        <ele>756</ele>
        <time>2017-02-26T21:32:40Z</time>
      </trkpt>
      <trkpt lat="45.01421" lon="6.05732">
        <ele>770</ele>
        <time>2017-02-26T21:33:00Z</time>
      </trkpt>
      <trkpt lat="45.01487" lon="6.05708">
        <ele>770</ele>
        <time>2017-02-26T21:33:20Z</time>
      </trkpt>
      <trkpt lat="45.01519" lon="6.05608">
        <ele>782</ele>
        <time>2017-02-26T21:33:40Z</time>
      </trkpt>
      <trkpt lat="45.01587" lon="6.05571">
        <ele>785</ele>
        <time>2017-02-26T21:34:00Z</time>
      </trkpt>
      <trkpt lat="45.01609" lon="6.0552">
        <ele>806</ele>
        <time>2017-02-26T21:34:20Z</time>
      </trkpt>
      <trkpt lat="45.01648" lon="6.0552">
        <ele>806</ele>
        <time>2017-02-26T21:34:40Z</time>
      </trkpt>
      <trkpt lat="45.01694" lon="6.05578">
        <ele>786</ele>
        <time>2017-02-26T21:35:00Z</time>
      </trkpt>
      <trkpt lat="45.01768" lon="6.05578">
        <ele>778</ele>
        <time>2017-02-26T21:35:20Z</time>
      </trkpt>
      <trkpt lat="45.01821" lon="6.05616">
        <ele>768</ele>
        <time>2017-02-26T21:35:40Z</time>
      </trkpt>
      <trkpt lat="45.01857" lon="6.0559">
        <ele>763</ele>
        <time>2017-02-26T21:36:00Z</time>
      </trkpt>
      <trkpt lat="45.01926" lon="6.05588">
        <ele>757</ele>
        <time>2017-02-26T21:36:20Z</time>
      </trkpt>
      <trkpt lat="45.01938" lon="6.05635">
        <ele>753</ele>
        <time>2017-02-26T21:36:40Z</time>
      </trkpt>
      <trkpt lat="45.01918" lon="6.05788">
        <ele>750</ele>
        <time>2017-02-26T21:37:00Z</time>
      </trkpt>
      <trkpt lat="45.01986" lon="6.05839">
        <ele>748</ele>
        <time>2017-02-26T21:37:20Z</time>
      </trkpt>
      <trkpt lat="45.02056" lon="6.05792">
        <ele>746</ele>
        <time>2017-02-26T21:37:40Z</time>
      </trkpt>
      <trkpt lat="45.02082" lon="6.05822">
        <ele>746</ele>
        <time>2017-02-26T21:38:00Z</time>
      </trkpt>
      <trkpt lat="45.02149" lon="6.05766">
        <ele>745</ele>
        <time>2017-02-26T21:38:20Z</time>
      </trkpt>
      <trkpt lat="45.02247" lon="6.05704">
        <ele>744</ele>
        <time>2017-02-26T21:38:40Z</time>
      </trkpt>
      <trkpt lat="45.02265" lon="6.0556">
        <ele>741</ele>
        <time>2017-02-26T21:39:00Z</time>
      </trkpt>
      <trkpt lat="45.02344" lon="6.05496">
        <ele>741</ele>
        <time>2017-02-26T21:39:20Z</time>
      </trkpt>
      <trkpt lat="45.02409" lon="6.05369">
        <ele>742</ele>
        <time>2017-02-26T21:39:40Z</time>
      </trkpt>
      <trkpt lat="45.0247" lon="6.05339">
        <ele>738</ele>
        <time>2017-02-26T21:40:00Z</time>
      </trkpt>
      <trkpt lat="45.02552" lon="6.05183">
        <ele>742</ele>
        <time>2017-02-26T21:40:20Z</time>
      </trkpt>
      <trkpt lat="45.02631" lon="6.05219">
        <ele>741</ele>
        <time>2017-02-26T21:40:40Z</time>
      </trkpt>
      <trkpt lat="45.02707" lon="6.05144">
        <ele>745</ele>
        <time>2017-02-26T21:41:00Z</time>
      </trkpt>
      <trkpt lat="45.02755" lon="6.05108">
        <ele>743</ele>
        <time>2017-02-26T21:41:20Z</time>
      </trkpt>
      <trkpt lat="45.02779" lon="6.05063">
        <ele>746</ele>
        <time>2017-02-26T21:41:40Z</time>
      </trkpt>
      <trkpt lat="45.02936" lon="6.0499">
        <ele>744</ele>
        <time>2017-02-26T21:42:00Z</time>
      </trkpt>
      <trkpt lat="45.03055" lon="6.04872">
        <ele>739</ele>
        <time>2017-02-26T21:42:20Z</time>
      </trkpt>
      <trkpt lat="45.03128" lon="6.04816">
        <ele>740</ele>
        <time>2017-02-26T21:42:40Z</time>
      </trkpt>
      <trkpt lat="45.03153" lon="6.04751">
        <ele>737</ele>
        <time>2017-02-26T21:43:00Z</time>
      </trkpt>
      <trkpt lat="45.03215" lon="6.04668">
        <ele>736</ele>
        <time>2017-02-26T21:43:20Z</time>
      </trkpt>
      <trkpt lat="45.03218" lon="6.0458">
        <ele>764</ele>
        <time>2017-02-26T21:43:40Z</time>
      </trkpt>
      <trkpt lat="45.03339" lon="6.0452">
        <ele>737</ele>
        <time>2017-02-26T21:44:00Z</time>
      </trkpt>
      <trkpt lat="45.03406" lon="6.04528">
        <ele>734</ele>
        <time>2017-02-26T21:44:20Z</time>
      </trkpt>
      <trkpt lat="45.03454" lon="6.04496">
        <ele>732</ele>
        <time>2017-02-26T21:44:40Z</time>
      </trkpt>
      <trkpt lat="45.0353" lon="6.04421">
        <ele>727</ele>
        <time>2017-02-26T21:45:00Z</time>
      </trkpt>
      <trkpt lat="45.03567" lon="6.04258">
        <ele>730</ele>
        <time>2017-02-26T21:45:20Z</time>
      </trkpt>
      <trkpt lat="45.03708" lon="6.04161">
        <ele>724</ele>
        <time>2017-02-26T21:45:40Z</time>
      </trkpt>
      <trkpt lat="45.03748" lon="6.04093">
        <ele>723</ele>
        <time>2017-02-26T21:46:00Z</time>
      </trkpt>
      <trkpt lat="45.03812" lon="6.04041">
        <ele>724</ele>
        <time>2017-02-26T21:46:20Z</time>
      </trkpt>
      <trkpt lat="45.03927" lon="6.03775">
        <ele>728</ele>
        <time>2017-02-26T21:46:40Z</time>
      </trkpt>
      <trkpt lat="45.03929" lon="6.03715">
        <ele>731</ele>
        <time>2017-02-26T21:47:00Z</time>
      </trkpt>
      <trkpt lat="45.0398" lon="6.0364">
        <ele>737</ele>
        <time>2017-02-26T21:47:20Z</time>
      </trkpt>
      <trkpt lat="45.03988" lon="6.03515">
        <ele>750</ele>
        <time>2017-02-26T21:47:40Z</time>
      </trkpt>
      <trkpt lat="45.04115" lon="6.03415">
        <ele>738</ele>
        <time>2017-02-26T21:48:00Z</time>
      </trkpt>
      <trkpt lat="45.0425" lon="6.03393">
        <ele>743</ele>
        <time>2017-02-26T21:48:20Z</time>
      </trkpt>
      <trkpt lat="45.04325" lon="6.03355">
        <ele>748</ele>
        <time>2017-02-26T21:48:40Z</time>
      </trkpt>
      <trkpt lat="45.0436" lon="6.03361">
        <ele>744</ele>
        <time>2017-02-26T21:49:00Z</time>
      </trkpt>
      <trkpt lat="45.04458" lon="6.03269">
        <ele>740</ele>
        <time>2017-02-26T21:49:20Z</time>
      </trkpt>
      <trkpt lat="45.04504" lon="6.03256">
        <ele>733</ele>
        <time>2017-02-26T21:49:40Z</time>
      </trkpt>
      <trkpt lat="45.04537" lon="6.03168">
        <ele>731</ele>
        <time>2017-02-26T21:50:00Z</time>
      </trkpt>
      <trkpt lat="45.04622" lon="6.03056">
        <ele>733</ele>
        <time>2017-02-26T21:50:20Z</time>
      </trkpt>
      <trkpt lat="45.04693" lon="6.02955">
        <ele>738</ele>
        <time>2017-02-26T21:50:40Z</time>
      </trkpt>
      <trkpt lat="45.04786" lon="6.02908">
        <ele>735</ele>
        <time>2017-02-26T21:51:00Z</time>
      </trkpt>
      <trkpt lat="45.04851" lon="6.02848">
        <ele>729</ele>
        <time>2017-02-26T21:51:20Z</time>
      </trkpt>
      <trkpt lat="45.04898" lon="6.02771">
        <ele>738</ele>
        <time>2017-02-26T21:51:40Z</time>
      </trkpt>
      <trkpt lat="45.0494" lon="6.02782">
        <ele>732</ele>
        <time>2017-02-26T21:52:00Z</time>
      </trkpt>
      <trkpt lat="45.05043" lon="6.02908">
        <ele>727</ele>
        <time>2017-02-26T21:52:20Z</time>
      </trkpt>
      <trkpt lat="45.05192" lon="6.02962">
        <ele>729</ele>
        <time>2017-02-26T21:52:40Z</time>
      </trkpt>
      <trkpt lat="45.05365" lon="6.02895">
        <ele>733</ele>
        <time>2017-02-26T21:53:00Z</time>
      </trkpt>
      <trkpt lat="45.05403" lon="6.02897">
        <ele>733</ele>
        <time>2017-02-26T21:53:20Z</time>
      </trkpt>
      <trkpt lat="45.05472" lon="6.03183">
        <ele>721</ele>
        <time>2017-02-26T21:53:40Z</time>
      </trkpt>
    </trkseg>
  </trk>
</gpx>